<?xml version="1.0" encoding="UTF-8" standalone="no" ?>
<gpx xmlns="http://www.topografix.com/GPX/1/1" xmlns:xsi="http://www.w3.org/2001/XMLSchema-instance" xsi:schemaLocation="http://www.topografix.com/GPX/1/1 http://www.topografix.com/GPX/1/1/gpx.xsd" version="1.1" creator="VisuGPX - https://www.visugpx.com">
  <metadata>
    <name>3 jours en Beaufortain 2018</name>
    <desc><![CDATA[3 jours en Beaufortain 2018 depuis le refuge de La Balme]]></desc>
  </metadata>
  <trk>
    <name><![CDATA[PAROZAN]]></name>
    <trkseg>
      <trkpt lat="45.63208" lon="6.66907">
        <ele>2018.43</ele>
        <time>2018-02-07T07:56:29Z</time>
      </trkpt>
      <trkpt lat="45.63208" lon="6.66907">
        <ele>2018.43</ele>
        <time>2018-02-07T07:56:30Z</time>
      </trkpt>
      <trkpt lat="45.63207" lon="6.66907">
        <ele>2022.27</ele>
        <time>2018-02-07T07:56:33Z</time>
      </trkpt>
      <trkpt lat="45.63207" lon="6.66907">
        <ele>2022.27</ele>
        <time>2018-02-07T07:56:34Z</time>
      </trkpt>
      <trkpt lat="45.63209" lon="6.6691">
        <ele>2021.79</ele>
        <time>2018-02-07T07:56:53Z</time>
      </trkpt>
      <trkpt lat="45.63209" lon="6.66897">
        <ele>2023.71</ele>
        <time>2018-02-07T07:57:06Z</time>
      </trkpt>
      <trkpt lat="45.6321" lon="6.66883">
        <ele>2024.19</ele>
        <time>2018-02-07T07:57:20Z</time>
      </trkpt>
      <trkpt lat="45.63213" lon="6.6687">
        <ele>2026.12</ele>
        <time>2018-02-07T07:57:35Z</time>
      </trkpt>
      <trkpt lat="45.63215" lon="6.66856">
        <ele>2027.08</ele>
        <time>2018-02-07T07:57:50Z</time>
      </trkpt>
      <trkpt lat="45.63216" lon="6.66852">
        <ele>2028.52</ele>
        <time>2018-02-07T07:58:05Z</time>
      </trkpt>
      <trkpt lat="45.63217" lon="6.66841">
        <ele>2029.48</ele>
        <time>2018-02-07T07:58:18Z</time>
      </trkpt>
      <trkpt lat="45.6322" lon="6.66824">
        <ele>2029.96</ele>
        <time>2018-02-07T07:58:35Z</time>
      </trkpt>
      <trkpt lat="45.63222" lon="6.66807">
        <ele>2031.4</ele>
        <time>2018-02-07T07:58:53Z</time>
      </trkpt>
      <trkpt lat="45.63223" lon="6.66791">
        <ele>2033.33</ele>
        <time>2018-02-07T07:59:10Z</time>
      </trkpt>
      <trkpt lat="45.63225" lon="6.66775">
        <ele>2034.77</ele>
        <time>2018-02-07T07:59:26Z</time>
      </trkpt>
      <trkpt lat="45.63227" lon="6.66759">
        <ele>2035.73</ele>
        <time>2018-02-07T07:59:42Z</time>
      </trkpt>
      <trkpt lat="45.63231" lon="6.66743">
        <ele>2036.69</ele>
        <time>2018-02-07T07:59:59Z</time>
      </trkpt>
      <trkpt lat="45.63233" lon="6.66727">
        <ele>2037.17</ele>
        <time>2018-02-07T08:00:15Z</time>
      </trkpt>
      <trkpt lat="45.63236" lon="6.66716">
        <ele>2039.09</ele>
        <time>2018-02-07T08:00:28Z</time>
      </trkpt>
      <trkpt lat="45.63242" lon="6.66701">
        <ele>2040.05</ele>
        <time>2018-02-07T08:00:45Z</time>
      </trkpt>
      <trkpt lat="45.63244" lon="6.66689">
        <ele>2041.5</ele>
        <time>2018-02-07T08:00:59Z</time>
      </trkpt>
      <trkpt lat="45.6324" lon="6.66675">
        <ele>2042.46</ele>
        <time>2018-02-07T08:01:17Z</time>
      </trkpt>
      <trkpt lat="45.63242" lon="6.66662">
        <ele>2044.86</ele>
        <time>2018-02-07T08:01:31Z</time>
      </trkpt>
      <trkpt lat="45.63243" lon="6.66651">
        <ele>2046.78</ele>
        <time>2018-02-07T08:01:44Z</time>
      </trkpt>
      <trkpt lat="45.63244" lon="6.66637">
        <ele>2048.23</ele>
        <time>2018-02-07T08:01:59Z</time>
      </trkpt>
      <trkpt lat="45.63245" lon="6.66636">
        <ele>2048.23</ele>
        <time>2018-02-07T08:02:00Z</time>
      </trkpt>
      <trkpt lat="45.63248" lon="6.66617">
        <ele>2048.23</ele>
        <time>2018-02-07T08:02:16Z</time>
      </trkpt>
      <trkpt lat="45.6325" lon="6.66601">
        <ele>2049.19</ele>
        <time>2018-02-07T08:02:31Z</time>
      </trkpt>
      <trkpt lat="45.63253" lon="6.66586">
        <ele>2050.15</ele>
        <time>2018-02-07T08:02:46Z</time>
      </trkpt>
      <trkpt lat="45.63255" lon="6.66573">
        <ele>2051.59</ele>
        <time>2018-02-07T08:03:01Z</time>
      </trkpt>
      <trkpt lat="45.63258" lon="6.66561">
        <ele>2053.51</ele>
        <time>2018-02-07T08:03:15Z</time>
      </trkpt>
      <trkpt lat="45.63258" lon="6.66551">
        <ele>2055.92</ele>
        <time>2018-02-07T08:03:31Z</time>
      </trkpt>
      <trkpt lat="45.63259" lon="6.66534">
        <ele>2059.28</ele>
        <time>2018-02-07T08:03:52Z</time>
      </trkpt>
      <trkpt lat="45.63257" lon="6.66521">
        <ele>2062.17</ele>
        <time>2018-02-07T08:04:12Z</time>
      </trkpt>
      <trkpt lat="45.63257" lon="6.66504">
        <ele>2064.57</ele>
        <time>2018-02-07T08:04:31Z</time>
      </trkpt>
      <trkpt lat="45.63256" lon="6.66485">
        <ele>2066.97</ele>
        <time>2018-02-07T08:04:51Z</time>
      </trkpt>
      <trkpt lat="45.63255" lon="6.66473">
        <ele>2069.38</ele>
        <time>2018-02-07T08:05:05Z</time>
      </trkpt>
      <trkpt lat="45.63253" lon="6.66467">
        <ele>2069.86</ele>
        <time>2018-02-07T08:05:12Z</time>
      </trkpt>
      <trkpt lat="45.63252" lon="6.66453">
        <ele>2071.78</ele>
        <time>2018-02-07T08:05:28Z</time>
      </trkpt>
      <trkpt lat="45.63251" lon="6.66443">
        <ele>2074.18</ele>
        <time>2018-02-07T08:05:43Z</time>
      </trkpt>
      <trkpt lat="45.63251" lon="6.66431">
        <ele>2077.07</ele>
        <time>2018-02-07T08:05:59Z</time>
      </trkpt>
      <trkpt lat="45.63253" lon="6.66422">
        <ele>2078.99</ele>
        <time>2018-02-07T08:06:11Z</time>
      </trkpt>
      <trkpt lat="45.63261" lon="6.66417">
        <ele>2080.43</ele>
        <time>2018-02-07T08:06:27Z</time>
      </trkpt>
      <trkpt lat="45.6327" lon="6.66412">
        <ele>2082.35</ele>
        <time>2018-02-07T08:06:40Z</time>
      </trkpt>
      <trkpt lat="45.63275" lon="6.66409">
        <ele>2083.79</ele>
        <time>2018-02-07T08:06:53Z</time>
      </trkpt>
      <trkpt lat="45.63282" lon="6.66406">
        <ele>2087.16</ele>
        <time>2018-02-07T08:07:08Z</time>
      </trkpt>
      <trkpt lat="45.63291" lon="6.66399">
        <ele>2088.12</ele>
        <time>2018-02-07T08:07:25Z</time>
      </trkpt>
      <trkpt lat="45.63297" lon="6.66397">
        <ele>2090.04</ele>
        <time>2018-02-07T08:07:37Z</time>
      </trkpt>
      <trkpt lat="45.63306" lon="6.66392">
        <ele>2092.93</ele>
        <time>2018-02-07T08:07:53Z</time>
      </trkpt>
      <trkpt lat="45.63314" lon="6.66387">
        <ele>2094.37</ele>
        <time>2018-02-07T08:08:07Z</time>
      </trkpt>
      <trkpt lat="45.63323" lon="6.66376">
        <ele>2096.29</ele>
        <time>2018-02-07T08:08:23Z</time>
      </trkpt>
      <trkpt lat="45.63329" lon="6.66368">
        <ele>2097.25</ele>
        <time>2018-02-07T08:08:38Z</time>
      </trkpt>
      <trkpt lat="45.63337" lon="6.66356">
        <ele>2099.66</ele>
        <time>2018-02-07T08:08:55Z</time>
      </trkpt>
      <trkpt lat="45.63344" lon="6.66345">
        <ele>2102.06</ele>
        <time>2018-02-07T08:09:11Z</time>
      </trkpt>
      <trkpt lat="45.63349" lon="6.66334">
        <ele>2104.94</ele>
        <time>2018-02-07T08:09:26Z</time>
      </trkpt>
      <trkpt lat="45.63355" lon="6.66324">
        <ele>2106.39</ele>
        <time>2018-02-07T08:09:41Z</time>
      </trkpt>
      <trkpt lat="45.6336" lon="6.66319">
        <ele>2107.35</ele>
        <time>2018-02-07T08:09:50Z</time>
      </trkpt>
      <trkpt lat="45.63367" lon="6.66308">
        <ele>2109.27</ele>
        <time>2018-02-07T08:10:07Z</time>
      </trkpt>
      <trkpt lat="45.63373" lon="6.66297">
        <ele>2111.19</ele>
        <time>2018-02-07T08:10:23Z</time>
      </trkpt>
      <trkpt lat="45.63378" lon="6.66291">
        <ele>2113.6</ele>
        <time>2018-02-07T08:10:33Z</time>
      </trkpt>
      <trkpt lat="45.63381" lon="6.66281">
        <ele>2115.04</ele>
        <time>2018-02-07T08:10:47Z</time>
      </trkpt>
      <trkpt lat="45.63384" lon="6.66276">
        <ele>2116.48</ele>
        <time>2018-02-07T08:11:00Z</time>
      </trkpt>
      <trkpt lat="45.6339" lon="6.66269">
        <ele>2119.36</ele>
        <time>2018-02-07T08:11:15Z</time>
      </trkpt>
      <trkpt lat="45.63394" lon="6.66262">
        <ele>2121.77</ele>
        <time>2018-02-07T08:11:27Z</time>
      </trkpt>
      <trkpt lat="45.634" lon="6.66257">
        <ele>2122.73</ele>
        <time>2018-02-07T08:11:40Z</time>
      </trkpt>
      <trkpt lat="45.63407" lon="6.66253">
        <ele>2125.13</ele>
        <time>2018-02-07T08:11:56Z</time>
      </trkpt>
      <trkpt lat="45.63412" lon="6.66249">
        <ele>2126.57</ele>
        <time>2018-02-07T08:12:09Z</time>
      </trkpt>
      <trkpt lat="45.63419" lon="6.66245">
        <ele>2128.98</ele>
        <time>2018-02-07T08:12:21Z</time>
      </trkpt>
      <trkpt lat="45.63424" lon="6.66249">
        <ele>2130.42</ele>
        <time>2018-02-07T08:12:35Z</time>
      </trkpt>
      <trkpt lat="45.63436" lon="6.66253">
        <ele>2131.86</ele>
        <time>2018-02-07T08:12:53Z</time>
      </trkpt>
      <trkpt lat="45.63447" lon="6.66256">
        <ele>2133.78</ele>
        <time>2018-02-07T08:13:10Z</time>
      </trkpt>
      <trkpt lat="45.63456" lon="6.66259">
        <ele>2134.74</ele>
        <time>2018-02-07T08:13:25Z</time>
      </trkpt>
      <trkpt lat="45.63463" lon="6.66262">
        <ele>2136.67</ele>
        <time>2018-02-07T08:13:40Z</time>
      </trkpt>
      <trkpt lat="45.63474" lon="6.66263">
        <ele>2139.07</ele>
        <time>2018-02-07T08:13:55Z</time>
      </trkpt>
      <trkpt lat="45.63482" lon="6.66257">
        <ele>2140.99</ele>
        <time>2018-02-07T08:14:11Z</time>
      </trkpt>
      <trkpt lat="45.63491" lon="6.66254">
        <ele>2142.92</ele>
        <time>2018-02-07T08:14:27Z</time>
      </trkpt>
      <trkpt lat="45.63498" lon="6.66248">
        <ele>2144.84</ele>
        <time>2018-02-07T08:14:40Z</time>
      </trkpt>
      <trkpt lat="45.63505" lon="6.66243">
        <ele>2145.8</ele>
        <time>2018-02-07T08:14:53Z</time>
      </trkpt>
      <trkpt lat="45.63509" lon="6.66236">
        <ele>2147.72</ele>
        <time>2018-02-07T08:15:07Z</time>
      </trkpt>
      <trkpt lat="45.63515" lon="6.6623">
        <ele>2149.65</ele>
        <time>2018-02-07T08:15:23Z</time>
      </trkpt>
      <trkpt lat="45.6352" lon="6.66222">
        <ele>2152.05</ele>
        <time>2018-02-07T08:15:39Z</time>
      </trkpt>
      <trkpt lat="45.63526" lon="6.66219">
        <ele>2153.97</ele>
        <time>2018-02-07T08:15:53Z</time>
      </trkpt>
      <trkpt lat="45.63533" lon="6.6621">
        <ele>2156.86</ele>
        <time>2018-02-07T08:16:08Z</time>
      </trkpt>
      <trkpt lat="45.63538" lon="6.66203">
        <ele>2159.26</ele>
        <time>2018-02-07T08:16:23Z</time>
      </trkpt>
      <trkpt lat="45.63544" lon="6.66201">
        <ele>2161.66</ele>
        <time>2018-02-07T08:16:38Z</time>
      </trkpt>
      <trkpt lat="45.63545" lon="6.66202">
        <ele>2161.18</ele>
        <time>2018-02-07T08:16:58Z</time>
      </trkpt>
      <trkpt lat="45.63548" lon="6.66204">
        <ele>2162.62</ele>
        <time>2018-02-07T08:17:18Z</time>
      </trkpt>
      <trkpt lat="45.63557" lon="6.66201">
        <ele>2163.58</ele>
        <time>2018-02-07T08:17:33Z</time>
      </trkpt>
      <trkpt lat="45.63568" lon="6.66197">
        <ele>2164.55</ele>
        <time>2018-02-07T08:17:49Z</time>
      </trkpt>
      <trkpt lat="45.63578" lon="6.66193">
        <ele>2165.03</ele>
        <time>2018-02-07T08:18:05Z</time>
      </trkpt>
      <trkpt lat="45.63587" lon="6.66194">
        <ele>2166.47</ele>
        <time>2018-02-07T08:18:22Z</time>
      </trkpt>
      <trkpt lat="45.636" lon="6.66195">
        <ele>2166.95</ele>
        <time>2018-02-07T08:18:39Z</time>
      </trkpt>
      <trkpt lat="45.63611" lon="6.66192">
        <ele>2166.47</ele>
        <time>2018-02-07T08:18:58Z</time>
      </trkpt>
      <trkpt lat="45.6362" lon="6.66189">
        <ele>2167.91</ele>
        <time>2018-02-07T08:19:12Z</time>
      </trkpt>
      <trkpt lat="45.63625" lon="6.66188">
        <ele>2168.87</ele>
        <time>2018-02-07T08:19:24Z</time>
      </trkpt>
      <trkpt lat="45.63632" lon="6.66185">
        <ele>2170.31</ele>
        <time>2018-02-07T08:19:40Z</time>
      </trkpt>
      <trkpt lat="45.63639" lon="6.66184">
        <ele>2171.76</ele>
        <time>2018-02-07T08:19:57Z</time>
      </trkpt>
      <trkpt lat="45.63648" lon="6.66184">
        <ele>2173.68</ele>
        <time>2018-02-07T08:20:12Z</time>
      </trkpt>
      <trkpt lat="45.63655" lon="6.66183">
        <ele>2175.12</ele>
        <time>2018-02-07T08:20:27Z</time>
      </trkpt>
      <trkpt lat="45.63664" lon="6.66186">
        <ele>2177.04</ele>
        <time>2018-02-07T08:20:46Z</time>
      </trkpt>
      <trkpt lat="45.6367" lon="6.66187">
        <ele>2178.48</ele>
        <time>2018-02-07T08:20:58Z</time>
      </trkpt>
      <trkpt lat="45.63678" lon="6.66191">
        <ele>2179.45</ele>
        <time>2018-02-07T08:21:14Z</time>
      </trkpt>
      <trkpt lat="45.63686" lon="6.66194">
        <ele>2181.85</ele>
        <time>2018-02-07T08:21:30Z</time>
      </trkpt>
      <trkpt lat="45.63696" lon="6.66201">
        <ele>2183.77</ele>
        <time>2018-02-07T08:21:48Z</time>
      </trkpt>
      <trkpt lat="45.63704" lon="6.66206">
        <ele>2184.73</ele>
        <time>2018-02-07T08:22:05Z</time>
      </trkpt>
      <trkpt lat="45.6371" lon="6.66209">
        <ele>2186.66</ele>
        <time>2018-02-07T08:22:20Z</time>
      </trkpt>
      <trkpt lat="45.63717" lon="6.66214">
        <ele>2188.58</ele>
        <time>2018-02-07T08:22:33Z</time>
      </trkpt>
      <trkpt lat="45.63724" lon="6.66219">
        <ele>2189.54</ele>
        <time>2018-02-07T08:22:44Z</time>
      </trkpt>
      <trkpt lat="45.63732" lon="6.66224">
        <ele>2191.46</ele>
        <time>2018-02-07T08:23:01Z</time>
      </trkpt>
      <trkpt lat="45.63737" lon="6.66227">
        <ele>2192.9</ele>
        <time>2018-02-07T08:23:16Z</time>
      </trkpt>
      <trkpt lat="45.63743" lon="6.6623">
        <ele>2195.31</ele>
        <time>2018-02-07T08:23:27Z</time>
      </trkpt>
      <trkpt lat="45.6375" lon="6.66234">
        <ele>2197.23</ele>
        <time>2018-02-07T08:23:43Z</time>
      </trkpt>
      <trkpt lat="45.63758" lon="6.66238">
        <ele>2198.19</ele>
        <time>2018-02-07T08:23:58Z</time>
      </trkpt>
      <trkpt lat="45.63765" lon="6.66241">
        <ele>2200.59</ele>
        <time>2018-02-07T08:24:13Z</time>
      </trkpt>
      <trkpt lat="45.63772" lon="6.66246">
        <ele>2202.52</ele>
        <time>2018-02-07T08:24:27Z</time>
      </trkpt>
      <trkpt lat="45.63779" lon="6.66248">
        <ele>2203.48</ele>
        <time>2018-02-07T08:24:41Z</time>
      </trkpt>
      <trkpt lat="45.63788" lon="6.66251">
        <ele>2205.88</ele>
        <time>2018-02-07T08:24:58Z</time>
      </trkpt>
      <trkpt lat="45.63795" lon="6.66253">
        <ele>2207.32</ele>
        <time>2018-02-07T08:25:14Z</time>
      </trkpt>
      <trkpt lat="45.63803" lon="6.66253">
        <ele>2208.77</ele>
        <time>2018-02-07T08:25:27Z</time>
      </trkpt>
      <trkpt lat="45.63813" lon="6.66256">
        <ele>2211.65</ele>
        <time>2018-02-07T08:25:46Z</time>
      </trkpt>
      <trkpt lat="45.63821" lon="6.66256">
        <ele>2214.05</ele>
        <time>2018-02-07T08:26:02Z</time>
      </trkpt>
      <trkpt lat="45.63829" lon="6.66255">
        <ele>2215.98</ele>
        <time>2018-02-07T08:26:16Z</time>
      </trkpt>
      <trkpt lat="45.63838" lon="6.66256">
        <ele>2217.42</ele>
        <time>2018-02-07T08:26:32Z</time>
      </trkpt>
      <trkpt lat="45.63845" lon="6.66257">
        <ele>2219.34</ele>
        <time>2018-02-07T08:26:48Z</time>
      </trkpt>
      <trkpt lat="45.63854" lon="6.66259">
        <ele>2220.78</ele>
        <time>2018-02-07T08:27:02Z</time>
      </trkpt>
      <trkpt lat="45.63863" lon="6.66259">
        <ele>2222.22</ele>
        <time>2018-02-07T08:27:16Z</time>
      </trkpt>
      <trkpt lat="45.63872" lon="6.66263">
        <ele>2224.63</ele>
        <time>2018-02-07T08:27:34Z</time>
      </trkpt>
      <trkpt lat="45.63881" lon="6.66265">
        <ele>2225.11</ele>
        <time>2018-02-07T08:27:47Z</time>
      </trkpt>
      <trkpt lat="45.63888" lon="6.66266">
        <ele>2226.07</ele>
        <time>2018-02-07T08:28:00Z</time>
      </trkpt>
      <trkpt lat="45.63898" lon="6.66267">
        <ele>2227.99</ele>
        <time>2018-02-07T08:28:17Z</time>
      </trkpt>
      <trkpt lat="45.63906" lon="6.66268">
        <ele>2228.95</ele>
        <time>2018-02-07T08:28:31Z</time>
      </trkpt>
      <trkpt lat="45.63916" lon="6.66268">
        <ele>2230.88</ele>
        <time>2018-02-07T08:28:49Z</time>
      </trkpt>
      <trkpt lat="45.63925" lon="6.6627">
        <ele>2232.8</ele>
        <time>2018-02-07T08:29:09Z</time>
      </trkpt>
      <trkpt lat="45.63935" lon="6.66272">
        <ele>2234.24</ele>
        <time>2018-02-07T08:29:26Z</time>
      </trkpt>
      <trkpt lat="45.63943" lon="6.66273">
        <ele>2236.16</ele>
        <time>2018-02-07T08:29:43Z</time>
      </trkpt>
      <trkpt lat="45.6395" lon="6.66276">
        <ele>2238.57</ele>
        <time>2018-02-07T08:29:58Z</time>
      </trkpt>
      <trkpt lat="45.63957" lon="6.66277">
        <ele>2240.01</ele>
        <time>2018-02-07T08:30:13Z</time>
      </trkpt>
      <trkpt lat="45.63965" lon="6.66276">
        <ele>2241.93</ele>
        <time>2018-02-07T08:30:29Z</time>
      </trkpt>
      <trkpt lat="45.63973" lon="6.66279">
        <ele>2243.85</ele>
        <time>2018-02-07T08:30:45Z</time>
      </trkpt>
      <trkpt lat="45.6398" lon="6.6628">
        <ele>2246.74</ele>
        <time>2018-02-07T08:31:00Z</time>
      </trkpt>
      <trkpt lat="45.63987" lon="6.66281">
        <ele>2247.7</ele>
        <time>2018-02-07T08:31:15Z</time>
      </trkpt>
      <trkpt lat="45.63993" lon="6.66283">
        <ele>2250.1</ele>
        <time>2018-02-07T08:31:29Z</time>
      </trkpt>
      <trkpt lat="45.64" lon="6.66283">
        <ele>2251.54</ele>
        <time>2018-02-07T08:31:45Z</time>
      </trkpt>
      <trkpt lat="45.64008" lon="6.66284">
        <ele>2253.47</ele>
        <time>2018-02-07T08:32:00Z</time>
      </trkpt>
      <trkpt lat="45.64016" lon="6.66285">
        <ele>2255.39</ele>
        <time>2018-02-07T08:32:15Z</time>
      </trkpt>
      <trkpt lat="45.64023" lon="6.66285">
        <ele>2257.31</ele>
        <time>2018-02-07T08:32:32Z</time>
      </trkpt>
      <trkpt lat="45.64032" lon="6.66286">
        <ele>2259.72</ele>
        <time>2018-02-07T08:32:47Z</time>
      </trkpt>
      <trkpt lat="45.6404" lon="6.66289">
        <ele>2261.64</ele>
        <time>2018-02-07T08:33:04Z</time>
      </trkpt>
      <trkpt lat="45.64047" lon="6.66292">
        <ele>2263.56</ele>
        <time>2018-02-07T08:33:18Z</time>
      </trkpt>
      <trkpt lat="45.64054" lon="6.66295">
        <ele>2265</ele>
        <time>2018-02-07T08:33:33Z</time>
      </trkpt>
      <trkpt lat="45.64062" lon="6.66296">
        <ele>2266.93</ele>
        <time>2018-02-07T08:33:48Z</time>
      </trkpt>
      <trkpt lat="45.6407" lon="6.66296">
        <ele>2268.85</ele>
        <time>2018-02-07T08:34:04Z</time>
      </trkpt>
      <trkpt lat="45.64077" lon="6.66295">
        <ele>2271.25</ele>
        <time>2018-02-07T08:34:18Z</time>
      </trkpt>
      <trkpt lat="45.64084" lon="6.66295">
        <ele>2273.17</ele>
        <time>2018-02-07T08:34:34Z</time>
      </trkpt>
      <trkpt lat="45.64091" lon="6.66294">
        <ele>2275.1</ele>
        <time>2018-02-07T08:34:49Z</time>
      </trkpt>
      <trkpt lat="45.64098" lon="6.66293">
        <ele>2276.54</ele>
        <time>2018-02-07T08:35:04Z</time>
      </trkpt>
      <trkpt lat="45.64105" lon="6.66293">
        <ele>2278.94</ele>
        <time>2018-02-07T08:35:20Z</time>
      </trkpt>
      <trkpt lat="45.64112" lon="6.66292">
        <ele>2280.38</ele>
        <time>2018-02-07T08:35:34Z</time>
      </trkpt>
      <trkpt lat="45.64118" lon="6.66292">
        <ele>2282.79</ele>
        <time>2018-02-07T08:35:49Z</time>
      </trkpt>
      <trkpt lat="45.64126" lon="6.66291">
        <ele>2284.23</ele>
        <time>2018-02-07T08:36:02Z</time>
      </trkpt>
      <trkpt lat="45.64127" lon="6.66284">
        <ele>2286.15</ele>
        <time>2018-02-07T08:36:17Z</time>
      </trkpt>
      <trkpt lat="45.64125" lon="6.66273">
        <ele>2288.08</ele>
        <time>2018-02-07T08:36:32Z</time>
      </trkpt>
      <trkpt lat="45.64124" lon="6.66264">
        <ele>2290</ele>
        <time>2018-02-07T08:36:46Z</time>
      </trkpt>
      <trkpt lat="45.64127" lon="6.66257">
        <ele>2291.44</ele>
        <time>2018-02-07T08:36:59Z</time>
      </trkpt>
      <trkpt lat="45.64134" lon="6.66263">
        <ele>2293.36</ele>
        <time>2018-02-07T08:37:14Z</time>
      </trkpt>
      <trkpt lat="45.64141" lon="6.66264">
        <ele>2294.8</ele>
        <time>2018-02-07T08:37:30Z</time>
      </trkpt>
      <trkpt lat="45.64149" lon="6.66268">
        <ele>2296.25</ele>
        <time>2018-02-07T08:37:47Z</time>
      </trkpt>
      <trkpt lat="45.64157" lon="6.6627">
        <ele>2297.69</ele>
        <time>2018-02-07T08:38:03Z</time>
      </trkpt>
      <trkpt lat="45.64164" lon="6.66272">
        <ele>2299.61</ele>
        <time>2018-02-07T08:38:18Z</time>
      </trkpt>
      <trkpt lat="45.64171" lon="6.66274">
        <ele>2302.01</ele>
        <time>2018-02-07T08:38:33Z</time>
      </trkpt>
      <trkpt lat="45.64178" lon="6.66276">
        <ele>2302.98</ele>
        <time>2018-02-07T08:38:47Z</time>
      </trkpt>
      <trkpt lat="45.64185" lon="6.66281">
        <ele>2304.9</ele>
        <time>2018-02-07T08:39:04Z</time>
      </trkpt>
      <trkpt lat="45.64191" lon="6.66285">
        <ele>2306.82</ele>
        <time>2018-02-07T08:39:19Z</time>
      </trkpt>
      <trkpt lat="45.64198" lon="6.66288">
        <ele>2308.26</ele>
        <time>2018-02-07T08:39:34Z</time>
      </trkpt>
      <trkpt lat="45.64205" lon="6.6629">
        <ele>2311.15</ele>
        <time>2018-02-07T08:39:49Z</time>
      </trkpt>
      <trkpt lat="45.64209" lon="6.66292">
        <ele>2312.59</ele>
        <time>2018-02-07T08:40:03Z</time>
      </trkpt>
      <trkpt lat="45.64215" lon="6.66294">
        <ele>2314.99</ele>
        <time>2018-02-07T08:40:16Z</time>
      </trkpt>
      <trkpt lat="45.64219" lon="6.66297">
        <ele>2316.43</ele>
        <time>2018-02-07T08:40:29Z</time>
      </trkpt>
      <trkpt lat="45.64225" lon="6.663">
        <ele>2318.84</ele>
        <time>2018-02-07T08:40:43Z</time>
      </trkpt>
      <trkpt lat="45.6423" lon="6.66302">
        <ele>2320.28</ele>
        <time>2018-02-07T08:40:56Z</time>
      </trkpt>
      <trkpt lat="45.64235" lon="6.66304">
        <ele>2322.68</ele>
        <time>2018-02-07T08:41:10Z</time>
      </trkpt>
      <trkpt lat="45.64241" lon="6.66308">
        <ele>2324.61</ele>
        <time>2018-02-07T08:41:25Z</time>
      </trkpt>
      <trkpt lat="45.64247" lon="6.66309">
        <ele>2327.01</ele>
        <time>2018-02-07T08:41:39Z</time>
      </trkpt>
      <trkpt lat="45.64253" lon="6.66309">
        <ele>2328.45</ele>
        <time>2018-02-07T08:41:53Z</time>
      </trkpt>
      <trkpt lat="45.6426" lon="6.66306">
        <ele>2330.85</ele>
        <time>2018-02-07T08:42:07Z</time>
      </trkpt>
      <trkpt lat="45.64265" lon="6.66301">
        <ele>2332.78</ele>
        <time>2018-02-07T08:42:21Z</time>
      </trkpt>
      <trkpt lat="45.64271" lon="6.66302">
        <ele>2334.22</ele>
        <time>2018-02-07T08:42:37Z</time>
      </trkpt>
      <trkpt lat="45.64279" lon="6.66303">
        <ele>2336.14</ele>
        <time>2018-02-07T08:42:52Z</time>
      </trkpt>
      <trkpt lat="45.64285" lon="6.66302">
        <ele>2338.06</ele>
        <time>2018-02-07T08:43:06Z</time>
      </trkpt>
      <trkpt lat="45.64292" lon="6.66301">
        <ele>2339.99</ele>
        <time>2018-02-07T08:43:21Z</time>
      </trkpt>
      <trkpt lat="45.64299" lon="6.66298">
        <ele>2341.43</ele>
        <time>2018-02-07T08:43:37Z</time>
      </trkpt>
      <trkpt lat="45.64307" lon="6.66294">
        <ele>2342.87</ele>
        <time>2018-02-07T08:43:50Z</time>
      </trkpt>
      <trkpt lat="45.64315" lon="6.6629">
        <ele>2344.79</ele>
        <time>2018-02-07T08:44:04Z</time>
      </trkpt>
      <trkpt lat="45.64323" lon="6.66286">
        <ele>2346.23</ele>
        <time>2018-02-07T08:44:23Z</time>
      </trkpt>
      <trkpt lat="45.6433" lon="6.6629">
        <ele>2347.68</ele>
        <time>2018-02-07T08:44:39Z</time>
      </trkpt>
      <trkpt lat="45.6434" lon="6.66292">
        <ele>2349.12</ele>
        <time>2018-02-07T08:44:57Z</time>
      </trkpt>
      <trkpt lat="45.64352" lon="6.66287">
        <ele>2350.56</ele>
        <time>2018-02-07T08:45:18Z</time>
      </trkpt>
      <trkpt lat="45.64361" lon="6.6628">
        <ele>2352</ele>
        <time>2018-02-07T08:45:33Z</time>
      </trkpt>
      <trkpt lat="45.64369" lon="6.66276">
        <ele>2352.96</ele>
        <time>2018-02-07T08:45:48Z</time>
      </trkpt>
      <trkpt lat="45.64376" lon="6.66274">
        <ele>2354.41</ele>
        <time>2018-02-07T08:46:03Z</time>
      </trkpt>
      <trkpt lat="45.64386" lon="6.66272">
        <ele>2355.85</ele>
        <time>2018-02-07T08:46:19Z</time>
      </trkpt>
      <trkpt lat="45.64398" lon="6.66272">
        <ele>2357.29</ele>
        <time>2018-02-07T08:46:38Z</time>
      </trkpt>
      <trkpt lat="45.64407" lon="6.6627">
        <ele>2358.25</ele>
        <time>2018-02-07T08:46:52Z</time>
      </trkpt>
      <trkpt lat="45.64417" lon="6.66269">
        <ele>2360.17</ele>
        <time>2018-02-07T08:47:12Z</time>
      </trkpt>
      <trkpt lat="45.64425" lon="6.66268">
        <ele>2361.62</ele>
        <time>2018-02-07T08:47:29Z</time>
      </trkpt>
      <trkpt lat="45.64434" lon="6.66271">
        <ele>2363.54</ele>
        <time>2018-02-07T08:47:43Z</time>
      </trkpt>
      <trkpt lat="45.64441" lon="6.66268">
        <ele>2364.5</ele>
        <time>2018-02-07T08:47:58Z</time>
      </trkpt>
      <trkpt lat="45.64449" lon="6.66271">
        <ele>2366.42</ele>
        <time>2018-02-07T08:48:14Z</time>
      </trkpt>
      <trkpt lat="45.64455" lon="6.66275">
        <ele>2367.86</ele>
        <time>2018-02-07T08:48:28Z</time>
      </trkpt>
      <trkpt lat="45.64461" lon="6.66278">
        <ele>2370.27</ele>
        <time>2018-02-07T08:48:43Z</time>
      </trkpt>
      <trkpt lat="45.64467" lon="6.66281">
        <ele>2372.67</ele>
        <time>2018-02-07T08:48:57Z</time>
      </trkpt>
      <trkpt lat="45.64472" lon="6.66283">
        <ele>2374.11</ele>
        <time>2018-02-07T08:49:11Z</time>
      </trkpt>
      <trkpt lat="45.64478" lon="6.66289">
        <ele>2376.52</ele>
        <time>2018-02-07T08:49:26Z</time>
      </trkpt>
      <trkpt lat="45.64483" lon="6.66288">
        <ele>2377.96</ele>
        <time>2018-02-07T08:49:41Z</time>
      </trkpt>
      <trkpt lat="45.64489" lon="6.66291">
        <ele>2380.36</ele>
        <time>2018-02-07T08:49:56Z</time>
      </trkpt>
      <trkpt lat="45.64495" lon="6.66291">
        <ele>2382.28</ele>
        <time>2018-02-07T08:50:12Z</time>
      </trkpt>
      <trkpt lat="45.64506" lon="6.66291">
        <ele>2383.73</ele>
        <time>2018-02-07T08:50:28Z</time>
      </trkpt>
      <trkpt lat="45.64511" lon="6.66295">
        <ele>2385.17</ele>
        <time>2018-02-07T08:50:44Z</time>
      </trkpt>
      <trkpt lat="45.64521" lon="6.66295">
        <ele>2387.57</ele>
        <time>2018-02-07T08:50:58Z</time>
      </trkpt>
      <trkpt lat="45.6452" lon="6.66298">
        <ele>2387.57</ele>
        <time>2018-02-07T08:51:12Z</time>
      </trkpt>
      <trkpt lat="45.64523" lon="6.66297">
        <ele>2387.57</ele>
        <time>2018-02-07T08:51:27Z</time>
      </trkpt>
      <trkpt lat="45.64523" lon="6.66296">
        <ele>2388.05</ele>
        <time>2018-02-07T08:51:42Z</time>
      </trkpt>
      <trkpt lat="45.64524" lon="6.66292">
        <ele>2388.05</ele>
        <time>2018-02-07T08:51:48Z</time>
      </trkpt>
      <trkpt lat="45.64522" lon="6.6629">
        <ele>2387.09</ele>
        <time>2018-02-07T08:51:59Z</time>
      </trkpt>
      <trkpt lat="45.64521" lon="6.66294">
        <ele>2387.09</ele>
        <time>2018-02-07T08:52:20Z</time>
      </trkpt>
      <trkpt lat="45.64516" lon="6.66305">
        <ele>2388.05</ele>
        <time>2018-02-07T08:52:46Z</time>
      </trkpt>
      <trkpt lat="45.6452" lon="6.66298">
        <ele>2388.53</ele>
        <time>2018-02-07T08:53:06Z</time>
      </trkpt>
      <trkpt lat="45.64523" lon="6.66294">
        <ele>2388.53</ele>
        <time>2018-02-07T08:53:25Z</time>
      </trkpt>
      <trkpt lat="45.64523" lon="6.66295">
        <ele>2388.05</ele>
        <time>2018-02-07T08:53:51Z</time>
      </trkpt>
      <trkpt lat="45.64521" lon="6.66301">
        <ele>2389.01</ele>
        <time>2018-02-07T08:54:03Z</time>
      </trkpt>
      <trkpt lat="45.64518" lon="6.66311">
        <ele>2391.42</ele>
        <time>2018-02-07T08:54:18Z</time>
      </trkpt>
      <trkpt lat="45.64525" lon="6.66316">
        <ele>2394.3</ele>
        <time>2018-02-07T08:54:34Z</time>
      </trkpt>
      <trkpt lat="45.6453" lon="6.66319">
        <ele>2395.74</ele>
        <time>2018-02-07T08:54:48Z</time>
      </trkpt>
      <trkpt lat="45.64537" lon="6.66323">
        <ele>2398.63</ele>
        <time>2018-02-07T08:55:03Z</time>
      </trkpt>
      <trkpt lat="45.64543" lon="6.66326">
        <ele>2401.03</ele>
        <time>2018-02-07T08:55:17Z</time>
      </trkpt>
      <trkpt lat="45.64549" lon="6.66328">
        <ele>2402.95</ele>
        <time>2018-02-07T08:55:31Z</time>
      </trkpt>
      <trkpt lat="45.64558" lon="6.66327">
        <ele>2403.91</ele>
        <time>2018-02-07T08:55:46Z</time>
      </trkpt>
      <trkpt lat="45.64565" lon="6.66326">
        <ele>2405.36</ele>
        <time>2018-02-07T08:55:59Z</time>
      </trkpt>
      <trkpt lat="45.64572" lon="6.66328">
        <ele>2406.8</ele>
        <time>2018-02-07T08:56:12Z</time>
      </trkpt>
      <trkpt lat="45.64582" lon="6.6633">
        <ele>2409.68</ele>
        <time>2018-02-07T08:56:30Z</time>
      </trkpt>
      <trkpt lat="45.6459" lon="6.66334">
        <ele>2411.12</ele>
        <time>2018-02-07T08:56:47Z</time>
      </trkpt>
      <trkpt lat="45.64596" lon="6.66341">
        <ele>2413.53</ele>
        <time>2018-02-07T08:57:05Z</time>
      </trkpt>
      <trkpt lat="45.64596" lon="6.66341">
        <ele>2413.05</ele>
        <time>2018-02-07T08:57:23Z</time>
      </trkpt>
      <trkpt lat="45.64598" lon="6.66342">
        <ele>2414.01</ele>
        <time>2018-02-07T08:57:45Z</time>
      </trkpt>
      <trkpt lat="45.64599" lon="6.66342">
        <ele>2413.53</ele>
        <time>2018-02-07T08:58:21Z</time>
      </trkpt>
      <trkpt lat="45.64597" lon="6.66341">
        <ele>2413.53</ele>
        <time>2018-02-07T08:58:49Z</time>
      </trkpt>
      <trkpt lat="45.64598" lon="6.66342">
        <ele>2414.01</ele>
        <time>2018-02-07T08:59:17Z</time>
      </trkpt>
      <trkpt lat="45.646" lon="6.66344">
        <ele>2414.01</ele>
        <time>2018-02-07T08:59:47Z</time>
      </trkpt>
      <trkpt lat="45.64598" lon="6.66341">
        <ele>2414.01</ele>
        <time>2018-02-07T09:00:12Z</time>
      </trkpt>
      <trkpt lat="45.64598" lon="6.6634">
        <ele>2414.01</ele>
        <time>2018-02-07T09:00:44Z</time>
      </trkpt>
      <trkpt lat="45.646" lon="6.66343">
        <ele>2414.01</ele>
        <time>2018-02-07T09:01:09Z</time>
      </trkpt>
      <trkpt lat="45.64599" lon="6.66339">
        <ele>2414.49</ele>
        <time>2018-02-07T09:01:37Z</time>
      </trkpt>
      <trkpt lat="45.64603" lon="6.66344">
        <ele>2414.49</ele>
        <time>2018-02-07T09:01:53Z</time>
      </trkpt>
      <trkpt lat="45.64608" lon="6.6635">
        <ele>2416.41</ele>
        <time>2018-02-07T09:02:06Z</time>
      </trkpt>
      <trkpt lat="45.64615" lon="6.66353">
        <ele>2418.33</ele>
        <time>2018-02-07T09:02:20Z</time>
      </trkpt>
      <trkpt lat="45.64622" lon="6.66353">
        <ele>2420.26</ele>
        <time>2018-02-07T09:02:35Z</time>
      </trkpt>
      <trkpt lat="45.64628" lon="6.66355">
        <ele>2421.7</ele>
        <time>2018-02-07T09:02:49Z</time>
      </trkpt>
      <trkpt lat="45.64635" lon="6.66354">
        <ele>2423.14</ele>
        <time>2018-02-07T09:03:04Z</time>
      </trkpt>
      <trkpt lat="45.64637" lon="6.66354">
        <ele>2424.1</ele>
        <time>2018-02-07T09:03:11Z</time>
      </trkpt>
      <trkpt lat="45.64636" lon="6.66362">
        <ele>2424.1</ele>
        <time>2018-02-07T09:03:23Z</time>
      </trkpt>
      <trkpt lat="45.64631" lon="6.66369">
        <ele>2425.54</ele>
        <time>2018-02-07T09:03:36Z</time>
      </trkpt>
      <trkpt lat="45.64636" lon="6.66368">
        <ele>2426.5</ele>
        <time>2018-02-07T09:03:49Z</time>
      </trkpt>
      <trkpt lat="45.64643" lon="6.66365">
        <ele>2428.43</ele>
        <time>2018-02-07T09:04:05Z</time>
      </trkpt>
      <trkpt lat="45.64649" lon="6.66367">
        <ele>2429.39</ele>
        <time>2018-02-07T09:04:20Z</time>
      </trkpt>
      <trkpt lat="45.64646" lon="6.66373">
        <ele>2430.83</ele>
        <time>2018-02-07T09:04:32Z</time>
      </trkpt>
      <trkpt lat="45.64646" lon="6.66375">
        <ele>2431.31</ele>
        <time>2018-02-07T09:04:45Z</time>
      </trkpt>
      <trkpt lat="45.6465" lon="6.66377">
        <ele>2433.23</ele>
        <time>2018-02-07T09:05:01Z</time>
      </trkpt>
      <trkpt lat="45.64656" lon="6.66374">
        <ele>2434.2</ele>
        <time>2018-02-07T09:05:19Z</time>
      </trkpt>
      <trkpt lat="45.64659" lon="6.66365">
        <ele>2434.68</ele>
        <time>2018-02-07T09:05:35Z</time>
      </trkpt>
      <trkpt lat="45.64663" lon="6.66372">
        <ele>2435.16</ele>
        <time>2018-02-07T09:05:48Z</time>
      </trkpt>
      <trkpt lat="45.64657" lon="6.66381">
        <ele>2436.12</ele>
        <time>2018-02-07T09:06:03Z</time>
      </trkpt>
      <trkpt lat="45.64654" lon="6.66386">
        <ele>2436.6</ele>
        <time>2018-02-07T09:06:19Z</time>
      </trkpt>
      <trkpt lat="45.64659" lon="6.66381">
        <ele>2438.52</ele>
        <time>2018-02-07T09:06:32Z</time>
      </trkpt>
      <trkpt lat="45.64666" lon="6.66374">
        <ele>2439.48</ele>
        <time>2018-02-07T09:06:46Z</time>
      </trkpt>
      <trkpt lat="45.64668" lon="6.6638">
        <ele>2439</ele>
        <time>2018-02-07T09:06:59Z</time>
      </trkpt>
      <trkpt lat="45.64665" lon="6.66385">
        <ele>2440.44</ele>
        <time>2018-02-07T09:07:14Z</time>
      </trkpt>
      <trkpt lat="45.64659" lon="6.66391">
        <ele>2441.41</ele>
        <time>2018-02-07T09:07:29Z</time>
      </trkpt>
      <trkpt lat="45.64664" lon="6.66389">
        <ele>2442.85</ele>
        <time>2018-02-07T09:07:42Z</time>
      </trkpt>
      <trkpt lat="45.64672" lon="6.66387">
        <ele>2443.33</ele>
        <time>2018-02-07T09:08:02Z</time>
      </trkpt>
      <trkpt lat="45.64673" lon="6.6639">
        <ele>2444.29</ele>
        <time>2018-02-07T09:08:17Z</time>
      </trkpt>
      <trkpt lat="45.64668" lon="6.66397">
        <ele>2445.73</ele>
        <time>2018-02-07T09:08:31Z</time>
      </trkpt>
      <trkpt lat="45.64666" lon="6.664">
        <ele>2446.21</ele>
        <time>2018-02-07T09:08:47Z</time>
      </trkpt>
      <trkpt lat="45.64673" lon="6.66397">
        <ele>2447.65</ele>
        <time>2018-02-07T09:09:03Z</time>
      </trkpt>
      <trkpt lat="45.64679" lon="6.66393">
        <ele>2448.62</ele>
        <time>2018-02-07T09:09:18Z</time>
      </trkpt>
      <trkpt lat="45.64678" lon="6.66401">
        <ele>2449.1</ele>
        <time>2018-02-07T09:09:31Z</time>
      </trkpt>
      <trkpt lat="45.64673" lon="6.66405">
        <ele>2450.54</ele>
        <time>2018-02-07T09:09:42Z</time>
      </trkpt>
      <trkpt lat="45.64676" lon="6.66406">
        <ele>2451.02</ele>
        <time>2018-02-07T09:09:55Z</time>
      </trkpt>
      <trkpt lat="45.64684" lon="6.66403">
        <ele>2452.46</ele>
        <time>2018-02-07T09:10:09Z</time>
      </trkpt>
      <trkpt lat="45.64687" lon="6.66402">
        <ele>2453.42</ele>
        <time>2018-02-07T09:10:24Z</time>
      </trkpt>
      <trkpt lat="45.6469" lon="6.66409">
        <ele>2454.86</ele>
        <time>2018-02-07T09:10:35Z</time>
      </trkpt>
      <trkpt lat="45.64693" lon="6.66408">
        <ele>2457.27</ele>
        <time>2018-02-07T09:10:49Z</time>
      </trkpt>
      <trkpt lat="45.64693" lon="6.66418">
        <ele>2458.23</ele>
        <time>2018-02-07T09:11:03Z</time>
      </trkpt>
      <trkpt lat="45.64696" lon="6.6642">
        <ele>2460.15</ele>
        <time>2018-02-07T09:11:18Z</time>
      </trkpt>
      <trkpt lat="45.64704" lon="6.6641">
        <ele>2462.07</ele>
        <time>2018-02-07T09:11:35Z</time>
      </trkpt>
      <trkpt lat="45.64707" lon="6.66403">
        <ele>2463.52</ele>
        <time>2018-02-07T09:11:47Z</time>
      </trkpt>
      <trkpt lat="45.64711" lon="6.66399">
        <ele>2464.96</ele>
        <time>2018-02-07T09:12:02Z</time>
      </trkpt>
      <trkpt lat="45.64711" lon="6.66401">
        <ele>2465.44</ele>
        <time>2018-02-07T09:12:16Z</time>
      </trkpt>
      <trkpt lat="45.64715" lon="6.66409">
        <ele>2465.92</ele>
        <time>2018-02-07T09:12:28Z</time>
      </trkpt>
      <trkpt lat="45.6472" lon="6.66415">
        <ele>2467.36</ele>
        <time>2018-02-07T09:12:43Z</time>
      </trkpt>
      <trkpt lat="45.64725" lon="6.66425">
        <ele>2469.28</ele>
        <time>2018-02-07T09:12:57Z</time>
      </trkpt>
      <trkpt lat="45.64723" lon="6.66438">
        <ele>2470.24</ele>
        <time>2018-02-07T09:13:12Z</time>
      </trkpt>
      <trkpt lat="45.64718" lon="6.66444">
        <ele>2471.21</ele>
        <time>2018-02-07T09:13:25Z</time>
      </trkpt>
      <trkpt lat="45.64715" lon="6.66454">
        <ele>2472.65</ele>
        <time>2018-02-07T09:13:38Z</time>
      </trkpt>
      <trkpt lat="45.64717" lon="6.66465">
        <ele>2474.09</ele>
        <time>2018-02-07T09:13:55Z</time>
      </trkpt>
      <trkpt lat="45.64718" lon="6.66475">
        <ele>2475.53</ele>
        <time>2018-02-07T09:14:09Z</time>
      </trkpt>
      <trkpt lat="45.6472" lon="6.66482">
        <ele>2477.45</ele>
        <time>2018-02-07T09:14:21Z</time>
      </trkpt>
      <trkpt lat="45.64724" lon="6.66488">
        <ele>2479.38</ele>
        <time>2018-02-07T09:14:37Z</time>
      </trkpt>
      <trkpt lat="45.64729" lon="6.66497">
        <ele>2481.3</ele>
        <time>2018-02-07T09:14:52Z</time>
      </trkpt>
      <trkpt lat="45.6473" lon="6.66506">
        <ele>2482.74</ele>
        <time>2018-02-07T09:15:07Z</time>
      </trkpt>
      <trkpt lat="45.64736" lon="6.66512">
        <ele>2484.18</ele>
        <time>2018-02-07T09:15:22Z</time>
      </trkpt>
      <trkpt lat="45.6474" lon="6.66519">
        <ele>2486.11</ele>
        <time>2018-02-07T09:15:37Z</time>
      </trkpt>
      <trkpt lat="45.64743" lon="6.66527">
        <ele>2488.03</ele>
        <time>2018-02-07T09:15:52Z</time>
      </trkpt>
      <trkpt lat="45.64748" lon="6.66535">
        <ele>2489.47</ele>
        <time>2018-02-07T09:16:07Z</time>
      </trkpt>
      <trkpt lat="45.64749" lon="6.66536">
        <ele>2489.47</ele>
        <time>2018-02-07T09:16:28Z</time>
      </trkpt>
      <trkpt lat="45.64755" lon="6.66545">
        <ele>2491.87</ele>
        <time>2018-02-07T09:16:43Z</time>
      </trkpt>
      <trkpt lat="45.64761" lon="6.66553">
        <ele>2493.8</ele>
        <time>2018-02-07T09:17:02Z</time>
      </trkpt>
      <trkpt lat="45.64768" lon="6.6656">
        <ele>2495.72</ele>
        <time>2018-02-07T09:17:19Z</time>
      </trkpt>
      <trkpt lat="45.64774" lon="6.66566">
        <ele>2496.68</ele>
        <time>2018-02-07T09:17:34Z</time>
      </trkpt>
      <trkpt lat="45.64782" lon="6.66573">
        <ele>2498.12</ele>
        <time>2018-02-07T09:17:51Z</time>
      </trkpt>
      <trkpt lat="45.64788" lon="6.66579">
        <ele>2499.57</ele>
        <time>2018-02-07T09:18:09Z</time>
      </trkpt>
      <trkpt lat="45.64797" lon="6.66586">
        <ele>2501.49</ele>
        <time>2018-02-07T09:18:26Z</time>
      </trkpt>
      <trkpt lat="45.64804" lon="6.66592">
        <ele>2503.41</ele>
        <time>2018-02-07T09:18:42Z</time>
      </trkpt>
      <trkpt lat="45.6481" lon="6.66595">
        <ele>2504.85</ele>
        <time>2018-02-07T09:18:55Z</time>
      </trkpt>
      <trkpt lat="45.64818" lon="6.66602">
        <ele>2507.26</ele>
        <time>2018-02-07T09:19:12Z</time>
      </trkpt>
      <trkpt lat="45.64824" lon="6.6661">
        <ele>2509.66</ele>
        <time>2018-02-07T09:19:29Z</time>
      </trkpt>
      <trkpt lat="45.64827" lon="6.66617">
        <ele>2510.14</ele>
        <time>2018-02-07T09:19:41Z</time>
      </trkpt>
      <trkpt lat="45.64833" lon="6.66626">
        <ele>2512.06</ele>
        <time>2018-02-07T09:19:57Z</time>
      </trkpt>
      <trkpt lat="45.64839" lon="6.66634">
        <ele>2513.98</ele>
        <time>2018-02-07T09:20:13Z</time>
      </trkpt>
      <trkpt lat="45.64849" lon="6.66642">
        <ele>2515.91</ele>
        <time>2018-02-07T09:20:33Z</time>
      </trkpt>
      <trkpt lat="45.64858" lon="6.66643">
        <ele>2516.87</ele>
        <time>2018-02-07T09:20:47Z</time>
      </trkpt>
      <trkpt lat="45.64868" lon="6.66645">
        <ele>2518.31</ele>
        <time>2018-02-07T09:21:03Z</time>
      </trkpt>
      <trkpt lat="45.64876" lon="6.66644">
        <ele>2520.23</ele>
        <time>2018-02-07T09:21:18Z</time>
      </trkpt>
      <trkpt lat="45.64885" lon="6.66643">
        <ele>2523.12</ele>
        <time>2018-02-07T09:21:39Z</time>
      </trkpt>
      <trkpt lat="45.64893" lon="6.66644">
        <ele>2525.04</ele>
        <time>2018-02-07T09:21:52Z</time>
      </trkpt>
      <trkpt lat="45.64901" lon="6.66642">
        <ele>2526</ele>
        <time>2018-02-07T09:22:04Z</time>
      </trkpt>
      <trkpt lat="45.64908" lon="6.6664">
        <ele>2527.44</ele>
        <time>2018-02-07T09:22:16Z</time>
      </trkpt>
      <trkpt lat="45.64916" lon="6.66639">
        <ele>2529.85</ele>
        <time>2018-02-07T09:22:33Z</time>
      </trkpt>
      <trkpt lat="45.64922" lon="6.66634">
        <ele>2531.77</ele>
        <time>2018-02-07T09:22:47Z</time>
      </trkpt>
      <trkpt lat="45.6493" lon="6.66629">
        <ele>2534.17</ele>
        <time>2018-02-07T09:23:05Z</time>
      </trkpt>
      <trkpt lat="45.64935" lon="6.66628">
        <ele>2535.61</ele>
        <time>2018-02-07T09:23:19Z</time>
      </trkpt>
      <trkpt lat="45.64936" lon="6.66629">
        <ele>2535.13</ele>
        <time>2018-02-07T09:23:40Z</time>
      </trkpt>
      <trkpt lat="45.64936" lon="6.66628">
        <ele>2535.61</ele>
        <time>2018-02-07T09:24:02Z</time>
      </trkpt>
      <trkpt lat="45.64935" lon="6.66628">
        <ele>2535.61</ele>
        <time>2018-02-07T09:24:18Z</time>
      </trkpt>
      <trkpt lat="45.64936" lon="6.66629">
        <ele>2535.61</ele>
        <time>2018-02-07T09:24:32Z</time>
      </trkpt>
      <trkpt lat="45.64935" lon="6.66629">
        <ele>2535.13</ele>
        <time>2018-02-07T09:24:38Z</time>
      </trkpt>
      <trkpt lat="45.64934" lon="6.66628">
        <ele>2534.65</ele>
        <time>2018-02-07T09:24:50Z</time>
      </trkpt>
      <trkpt lat="45.64934" lon="6.66626">
        <ele>2534.17</ele>
        <time>2018-02-07T09:25:24Z</time>
      </trkpt>
      <trkpt lat="45.64934" lon="6.66622">
        <ele>2534.17</ele>
        <time>2018-02-07T09:25:52Z</time>
      </trkpt>
      <trkpt lat="45.64931" lon="6.66626">
        <ele>2534.17</ele>
        <time>2018-02-07T09:26:15Z</time>
      </trkpt>
      <trkpt lat="45.6493" lon="6.66629">
        <ele>2534.17</ele>
        <time>2018-02-07T09:26:48Z</time>
      </trkpt>
      <trkpt lat="45.64929" lon="6.6663">
        <ele>2534.17</ele>
        <time>2018-02-07T09:27:14Z</time>
      </trkpt>
      <trkpt lat="45.64931" lon="6.66622">
        <ele>2533.69</ele>
        <time>2018-02-07T09:27:43Z</time>
      </trkpt>
      <trkpt lat="45.6493" lon="6.6662">
        <ele>2533.69</ele>
        <time>2018-02-07T09:28:05Z</time>
      </trkpt>
      <trkpt lat="45.64929" lon="6.66622">
        <ele>2533.69</ele>
        <time>2018-02-07T09:28:33Z</time>
      </trkpt>
      <trkpt lat="45.64928" lon="6.66619">
        <ele>2534.17</ele>
        <time>2018-02-07T09:29:08Z</time>
      </trkpt>
      <trkpt lat="45.64933" lon="6.6662">
        <ele>2534.17</ele>
        <time>2018-02-07T09:29:36Z</time>
      </trkpt>
      <trkpt lat="45.6493" lon="6.6662">
        <ele>2534.17</ele>
        <time>2018-02-07T09:30:00Z</time>
      </trkpt>
      <trkpt lat="45.64932" lon="6.66622">
        <ele>2534.17</ele>
        <time>2018-02-07T09:30:23Z</time>
      </trkpt>
      <trkpt lat="45.64932" lon="6.66625">
        <ele>2534.17</ele>
        <time>2018-02-07T09:30:45Z</time>
      </trkpt>
      <trkpt lat="45.64935" lon="6.66627">
        <ele>2535.61</ele>
        <time>2018-02-07T09:31:04Z</time>
      </trkpt>
      <trkpt lat="45.64935" lon="6.66631">
        <ele>2535.61</ele>
        <time>2018-02-07T09:31:24Z</time>
      </trkpt>
      <trkpt lat="45.64936" lon="6.66633">
        <ele>2535.61</ele>
        <time>2018-02-07T09:31:48Z</time>
      </trkpt>
      <trkpt lat="45.64935" lon="6.66633">
        <ele>2535.61</ele>
        <time>2018-02-07T09:32:15Z</time>
      </trkpt>
      <trkpt lat="45.64934" lon="6.66632">
        <ele>2535.61</ele>
        <time>2018-02-07T09:32:35Z</time>
      </trkpt>
      <trkpt lat="45.64935" lon="6.66634">
        <ele>2535.61</ele>
        <time>2018-02-07T09:32:56Z</time>
      </trkpt>
      <trkpt lat="45.64934" lon="6.66633">
        <ele>2535.13</ele>
        <time>2018-02-07T09:33:25Z</time>
      </trkpt>
      <trkpt lat="45.64936" lon="6.66631">
        <ele>2535.13</ele>
        <time>2018-02-07T09:33:43Z</time>
      </trkpt>
      <trkpt lat="45.64939" lon="6.6663">
        <ele>2535.61</ele>
        <time>2018-02-07T09:34:06Z</time>
      </trkpt>
      <trkpt lat="45.64944" lon="6.6663">
        <ele>2536.58</ele>
        <time>2018-02-07T09:34:18Z</time>
      </trkpt>
      <trkpt lat="45.64951" lon="6.66635">
        <ele>2537.06</ele>
        <time>2018-02-07T09:34:29Z</time>
      </trkpt>
      <trkpt lat="45.6496" lon="6.66638">
        <ele>2538.98</ele>
        <time>2018-02-07T09:34:43Z</time>
      </trkpt>
      <trkpt lat="45.64968" lon="6.66644">
        <ele>2540.9</ele>
        <time>2018-02-07T09:35:01Z</time>
      </trkpt>
      <trkpt lat="45.64979" lon="6.66645">
        <ele>2542.82</ele>
        <time>2018-02-07T09:35:18Z</time>
      </trkpt>
      <trkpt lat="45.6499" lon="6.66644">
        <ele>2543.79</ele>
        <time>2018-02-07T09:35:33Z</time>
      </trkpt>
      <trkpt lat="45.65001" lon="6.66645">
        <ele>2545.71</ele>
        <time>2018-02-07T09:35:51Z</time>
      </trkpt>
      <trkpt lat="45.65012" lon="6.66642">
        <ele>2546.67</ele>
        <time>2018-02-07T09:36:05Z</time>
      </trkpt>
      <trkpt lat="45.65023" lon="6.66638">
        <ele>2547.63</ele>
        <time>2018-02-07T09:36:22Z</time>
      </trkpt>
      <trkpt lat="45.65034" lon="6.66634">
        <ele>2548.59</ele>
        <time>2018-02-07T09:36:39Z</time>
      </trkpt>
      <trkpt lat="45.65044" lon="6.66629">
        <ele>2551</ele>
        <time>2018-02-07T09:36:56Z</time>
      </trkpt>
      <trkpt lat="45.6505" lon="6.66627">
        <ele>2552.44</ele>
        <time>2018-02-07T09:37:08Z</time>
      </trkpt>
      <trkpt lat="45.6506" lon="6.66628">
        <ele>2553.88</ele>
        <time>2018-02-07T09:37:24Z</time>
      </trkpt>
      <trkpt lat="45.65066" lon="6.66622">
        <ele>2556.28</ele>
        <time>2018-02-07T09:37:39Z</time>
      </trkpt>
      <trkpt lat="45.65072" lon="6.66622">
        <ele>2558.21</ele>
        <time>2018-02-07T09:37:54Z</time>
      </trkpt>
      <trkpt lat="45.65077" lon="6.66631">
        <ele>2559.65</ele>
        <time>2018-02-07T09:38:09Z</time>
      </trkpt>
      <trkpt lat="45.6508" lon="6.66638">
        <ele>2561.57</ele>
        <time>2018-02-07T09:38:24Z</time>
      </trkpt>
      <trkpt lat="45.65082" lon="6.66641">
        <ele>2563.01</ele>
        <time>2018-02-07T09:38:30Z</time>
      </trkpt>
      <trkpt lat="45.65087" lon="6.66643">
        <ele>2564.45</ele>
        <time>2018-02-07T09:38:43Z</time>
      </trkpt>
      <trkpt lat="45.65093" lon="6.66637">
        <ele>2566.38</ele>
        <time>2018-02-07T09:38:57Z</time>
      </trkpt>
      <trkpt lat="45.65099" lon="6.66631">
        <ele>2568.78</ele>
        <time>2018-02-07T09:39:13Z</time>
      </trkpt>
      <trkpt lat="45.65103" lon="6.66624">
        <ele>2570.22</ele>
        <time>2018-02-07T09:39:28Z</time>
      </trkpt>
      <trkpt lat="45.65108" lon="6.66631">
        <ele>2571.66</ele>
        <time>2018-02-07T09:39:41Z</time>
      </trkpt>
      <trkpt lat="45.65112" lon="6.6664">
        <ele>2573.11</ele>
        <time>2018-02-07T09:39:54Z</time>
      </trkpt>
      <trkpt lat="45.65115" lon="6.66647">
        <ele>2574.55</ele>
        <time>2018-02-07T09:40:08Z</time>
      </trkpt>
      <trkpt lat="45.65119" lon="6.66654">
        <ele>2576.47</ele>
        <time>2018-02-07T09:40:22Z</time>
      </trkpt>
      <trkpt lat="45.65123" lon="6.66658">
        <ele>2577.91</ele>
        <time>2018-02-07T09:40:36Z</time>
      </trkpt>
      <trkpt lat="45.65129" lon="6.66657">
        <ele>2579.84</ele>
        <time>2018-02-07T09:40:49Z</time>
      </trkpt>
      <trkpt lat="45.65135" lon="6.66657">
        <ele>2581.28</ele>
        <time>2018-02-07T09:41:02Z</time>
      </trkpt>
      <trkpt lat="45.65141" lon="6.66657">
        <ele>2583.2</ele>
        <time>2018-02-07T09:41:17Z</time>
      </trkpt>
      <trkpt lat="45.65149" lon="6.66655">
        <ele>2585.12</ele>
        <time>2018-02-07T09:41:34Z</time>
      </trkpt>
      <trkpt lat="45.65157" lon="6.66654">
        <ele>2587.04</ele>
        <time>2018-02-07T09:41:49Z</time>
      </trkpt>
      <trkpt lat="45.65166" lon="6.66654">
        <ele>2588.97</ele>
        <time>2018-02-07T09:42:07Z</time>
      </trkpt>
      <trkpt lat="45.65174" lon="6.66654">
        <ele>2590.41</ele>
        <time>2018-02-07T09:42:24Z</time>
      </trkpt>
      <trkpt lat="45.65181" lon="6.66656">
        <ele>2592.33</ele>
        <time>2018-02-07T09:42:40Z</time>
      </trkpt>
      <trkpt lat="45.6519" lon="6.66657">
        <ele>2594.74</ele>
        <time>2018-02-07T09:42:56Z</time>
      </trkpt>
      <trkpt lat="45.65195" lon="6.66657">
        <ele>2595.7</ele>
        <time>2018-02-07T09:43:10Z</time>
      </trkpt>
      <trkpt lat="45.65202" lon="6.66657">
        <ele>2597.62</ele>
        <time>2018-02-07T09:43:25Z</time>
      </trkpt>
      <trkpt lat="45.65208" lon="6.66656">
        <ele>2599.54</ele>
        <time>2018-02-07T09:43:40Z</time>
      </trkpt>
      <trkpt lat="45.65214" lon="6.66659">
        <ele>2601.46</ele>
        <time>2018-02-07T09:43:55Z</time>
      </trkpt>
      <trkpt lat="45.65219" lon="6.66659">
        <ele>2602.91</ele>
        <time>2018-02-07T09:44:08Z</time>
      </trkpt>
      <trkpt lat="45.65225" lon="6.6666">
        <ele>2604.35</ele>
        <time>2018-02-07T09:44:22Z</time>
      </trkpt>
      <trkpt lat="45.65231" lon="6.66663">
        <ele>2605.79</ele>
        <time>2018-02-07T09:44:37Z</time>
      </trkpt>
      <trkpt lat="45.65237" lon="6.66664">
        <ele>2607.71</ele>
        <time>2018-02-07T09:44:51Z</time>
      </trkpt>
      <trkpt lat="45.65244" lon="6.66663">
        <ele>2609.16</ele>
        <time>2018-02-07T09:45:05Z</time>
      </trkpt>
      <trkpt lat="45.65249" lon="6.66665">
        <ele>2610.6</ele>
        <time>2018-02-07T09:45:18Z</time>
      </trkpt>
      <trkpt lat="45.65255" lon="6.66667">
        <ele>2612.52</ele>
        <time>2018-02-07T09:45:33Z</time>
      </trkpt>
      <trkpt lat="45.65262" lon="6.66668">
        <ele>2613.48</ele>
        <time>2018-02-07T09:45:47Z</time>
      </trkpt>
      <trkpt lat="45.65269" lon="6.66669">
        <ele>2615.4</ele>
        <time>2018-02-07T09:46:03Z</time>
      </trkpt>
      <trkpt lat="45.65274" lon="6.66672">
        <ele>2616.85</ele>
        <time>2018-02-07T09:46:17Z</time>
      </trkpt>
      <trkpt lat="45.65281" lon="6.66674">
        <ele>2618.77</ele>
        <time>2018-02-07T09:46:31Z</time>
      </trkpt>
      <trkpt lat="45.65289" lon="6.66676">
        <ele>2620.69</ele>
        <time>2018-02-07T09:46:48Z</time>
      </trkpt>
      <trkpt lat="45.65296" lon="6.66677">
        <ele>2622.13</ele>
        <time>2018-02-07T09:47:04Z</time>
      </trkpt>
      <trkpt lat="45.65294" lon="6.66685">
        <ele>2623.09</ele>
        <time>2018-02-07T09:47:17Z</time>
      </trkpt>
      <trkpt lat="45.6529" lon="6.66695">
        <ele>2625.5</ele>
        <time>2018-02-07T09:47:33Z</time>
      </trkpt>
      <trkpt lat="45.6529" lon="6.66697">
        <ele>2626.46</ele>
        <time>2018-02-07T09:47:46Z</time>
      </trkpt>
      <trkpt lat="45.65296" lon="6.66697">
        <ele>2627.9</ele>
        <time>2018-02-07T09:47:59Z</time>
      </trkpt>
      <trkpt lat="45.65302" lon="6.66697">
        <ele>2628.86</ele>
        <time>2018-02-07T09:48:13Z</time>
      </trkpt>
      <trkpt lat="45.65308" lon="6.66697">
        <ele>2630.3</ele>
        <time>2018-02-07T09:48:27Z</time>
      </trkpt>
      <trkpt lat="45.65312" lon="6.66698">
        <ele>2632.23</ele>
        <time>2018-02-07T09:48:39Z</time>
      </trkpt>
      <trkpt lat="45.65317" lon="6.66696">
        <ele>2633.67</ele>
        <time>2018-02-07T09:48:52Z</time>
      </trkpt>
      <trkpt lat="45.65322" lon="6.66695">
        <ele>2635.59</ele>
        <time>2018-02-07T09:49:06Z</time>
      </trkpt>
      <trkpt lat="45.65327" lon="6.66694">
        <ele>2636.55</ele>
        <time>2018-02-07T09:49:19Z</time>
      </trkpt>
      <trkpt lat="45.65329" lon="6.66698">
        <ele>2638.48</ele>
        <time>2018-02-07T09:49:33Z</time>
      </trkpt>
      <trkpt lat="45.65326" lon="6.66705">
        <ele>2640.4</ele>
        <time>2018-02-07T09:49:48Z</time>
      </trkpt>
      <trkpt lat="45.65325" lon="6.66714">
        <ele>2642.32</ele>
        <time>2018-02-07T09:50:03Z</time>
      </trkpt>
      <trkpt lat="45.65323" lon="6.6672">
        <ele>2644.24</ele>
        <time>2018-02-07T09:50:17Z</time>
      </trkpt>
      <trkpt lat="45.65322" lon="6.66723">
        <ele>2645.21</ele>
        <time>2018-02-07T09:50:33Z</time>
      </trkpt>
      <trkpt lat="45.65327" lon="6.6672">
        <ele>2646.65</ele>
        <time>2018-02-07T09:50:47Z</time>
      </trkpt>
      <trkpt lat="45.65334" lon="6.66717">
        <ele>2648.09</ele>
        <time>2018-02-07T09:51:01Z</time>
      </trkpt>
      <trkpt lat="45.65339" lon="6.66716">
        <ele>2649.53</ele>
        <time>2018-02-07T09:51:15Z</time>
      </trkpt>
      <trkpt lat="45.65344" lon="6.66714">
        <ele>2651.45</ele>
        <time>2018-02-07T09:51:28Z</time>
      </trkpt>
      <trkpt lat="45.65349" lon="6.6671">
        <ele>2652.9</ele>
        <time>2018-02-07T09:51:43Z</time>
      </trkpt>
      <trkpt lat="45.65353" lon="6.66708">
        <ele>2654.34</ele>
        <time>2018-02-07T09:51:57Z</time>
      </trkpt>
      <trkpt lat="45.65359" lon="6.66705">
        <ele>2655.78</ele>
        <time>2018-02-07T09:52:12Z</time>
      </trkpt>
      <trkpt lat="45.65364" lon="6.66703">
        <ele>2657.7</ele>
        <time>2018-02-07T09:52:29Z</time>
      </trkpt>
      <trkpt lat="45.65368" lon="6.66701">
        <ele>2659.14</ele>
        <time>2018-02-07T09:52:42Z</time>
      </trkpt>
      <trkpt lat="45.65368" lon="6.66704">
        <ele>2660.11</ele>
        <time>2018-02-07T09:52:55Z</time>
      </trkpt>
      <trkpt lat="45.65367" lon="6.66712">
        <ele>2661.07</ele>
        <time>2018-02-07T09:53:10Z</time>
      </trkpt>
      <trkpt lat="45.65366" lon="6.6672">
        <ele>2662.51</ele>
        <time>2018-02-07T09:53:26Z</time>
      </trkpt>
      <trkpt lat="45.65364" lon="6.66726">
        <ele>2664.43</ele>
        <time>2018-02-07T09:53:40Z</time>
      </trkpt>
      <trkpt lat="45.65361" lon="6.66734">
        <ele>2666.35</ele>
        <time>2018-02-07T09:53:54Z</time>
      </trkpt>
      <trkpt lat="45.65361" lon="6.66735">
        <ele>2667.31</ele>
        <time>2018-02-07T09:54:08Z</time>
      </trkpt>
      <trkpt lat="45.65365" lon="6.66731">
        <ele>2667.31</ele>
        <time>2018-02-07T09:54:26Z</time>
      </trkpt>
      <trkpt lat="45.65369" lon="6.66729">
        <ele>2669.24</ele>
        <time>2018-02-07T09:54:41Z</time>
      </trkpt>
      <trkpt lat="45.65374" lon="6.66726">
        <ele>2671.64</ele>
        <time>2018-02-07T09:54:54Z</time>
      </trkpt>
      <trkpt lat="45.65378" lon="6.66723">
        <ele>2673.08</ele>
        <time>2018-02-07T09:55:07Z</time>
      </trkpt>
      <trkpt lat="45.65382" lon="6.66721">
        <ele>2674.04</ele>
        <time>2018-02-07T09:55:19Z</time>
      </trkpt>
      <trkpt lat="45.65385" lon="6.66718">
        <ele>2675.49</ele>
        <time>2018-02-07T09:55:30Z</time>
      </trkpt>
      <trkpt lat="45.65388" lon="6.66717">
        <ele>2676.93</ele>
        <time>2018-02-07T09:55:41Z</time>
      </trkpt>
      <trkpt lat="45.65392" lon="6.66714">
        <ele>2678.37</ele>
        <time>2018-02-07T09:55:57Z</time>
      </trkpt>
      <trkpt lat="45.65397" lon="6.66711">
        <ele>2679.81</ele>
        <time>2018-02-07T09:56:12Z</time>
      </trkpt>
      <trkpt lat="45.654" lon="6.66708">
        <ele>2680.29</ele>
        <time>2018-02-07T09:56:23Z</time>
      </trkpt>
      <trkpt lat="45.65404" lon="6.66703">
        <ele>2681.25</ele>
        <time>2018-02-07T09:56:37Z</time>
      </trkpt>
      <trkpt lat="45.65407" lon="6.66697">
        <ele>2682.7</ele>
        <time>2018-02-07T09:56:52Z</time>
      </trkpt>
      <trkpt lat="45.65411" lon="6.66695">
        <ele>2684.14</ele>
        <time>2018-02-07T09:57:06Z</time>
      </trkpt>
      <trkpt lat="45.6541" lon="6.66703">
        <ele>2684.62</ele>
        <time>2018-02-07T09:57:25Z</time>
      </trkpt>
      <trkpt lat="45.65411" lon="6.66711">
        <ele>2686.54</ele>
        <time>2018-02-07T09:57:41Z</time>
      </trkpt>
      <trkpt lat="45.65411" lon="6.66712">
        <ele>2687.02</ele>
        <time>2018-02-07T09:57:55Z</time>
      </trkpt>
      <trkpt lat="45.65414" lon="6.66705">
        <ele>2687.98</ele>
        <time>2018-02-07T09:58:18Z</time>
      </trkpt>
      <trkpt lat="45.65419" lon="6.667">
        <ele>2689.43</ele>
        <time>2018-02-07T09:58:31Z</time>
      </trkpt>
      <trkpt lat="45.65423" lon="6.66707">
        <ele>2691.35</ele>
        <time>2018-02-07T09:58:44Z</time>
      </trkpt>
      <trkpt lat="45.65425" lon="6.66711">
        <ele>2692.31</ele>
        <time>2018-02-07T09:58:55Z</time>
      </trkpt>
      <trkpt lat="45.65425" lon="6.66712">
        <ele>2692.79</ele>
        <time>2018-02-07T09:59:11Z</time>
      </trkpt>
      <trkpt lat="45.6542" lon="6.66721">
        <ele>2693.27</ele>
        <time>2018-02-07T09:59:24Z</time>
      </trkpt>
      <trkpt lat="45.65422" lon="6.66721">
        <ele>2693.75</ele>
        <time>2018-02-07T09:59:36Z</time>
      </trkpt>
      <trkpt lat="45.65418" lon="6.66723">
        <ele>2693.27</ele>
        <time>2018-02-07T09:59:53Z</time>
      </trkpt>
      <trkpt lat="45.65418" lon="6.66723">
        <ele>2693.27</ele>
        <time>2018-02-07T10:00:12Z</time>
      </trkpt>
      <trkpt lat="45.65417" lon="6.66722">
        <ele>2693.27</ele>
        <time>2018-02-07T10:00:28Z</time>
      </trkpt>
      <trkpt lat="45.65416" lon="6.66723">
        <ele>2692.79</ele>
        <time>2018-02-07T10:00:42Z</time>
      </trkpt>
      <trkpt lat="45.65419" lon="6.66722">
        <ele>2692.31</ele>
        <time>2018-02-07T10:01:02Z</time>
      </trkpt>
      <trkpt lat="45.6542" lon="6.6672">
        <ele>2692.31</ele>
        <time>2018-02-07T10:01:15Z</time>
      </trkpt>
      <trkpt lat="45.65422" lon="6.66724">
        <ele>2691.83</ele>
        <time>2018-02-07T10:01:31Z</time>
      </trkpt>
      <trkpt lat="45.65421" lon="6.66727">
        <ele>2691.83</ele>
        <time>2018-02-07T10:01:43Z</time>
      </trkpt>
      <trkpt lat="45.65422" lon="6.66726">
        <ele>2691.83</ele>
        <time>2018-02-07T10:01:54Z</time>
      </trkpt>
      <trkpt lat="45.65422" lon="6.66726">
        <ele>2691.83</ele>
        <time>2018-02-07T10:02:09Z</time>
      </trkpt>
      <trkpt lat="45.65424" lon="6.66728">
        <ele>2692.31</ele>
        <time>2018-02-07T10:02:28Z</time>
      </trkpt>
      <trkpt lat="45.6542" lon="6.66722">
        <ele>2691.83</ele>
        <time>2018-02-07T10:02:40Z</time>
      </trkpt>
      <trkpt lat="45.65419" lon="6.6672">
        <ele>2691.83</ele>
        <time>2018-02-07T10:02:54Z</time>
      </trkpt>
      <trkpt lat="45.6542" lon="6.66723">
        <ele>2692.31</ele>
        <time>2018-02-07T10:03:14Z</time>
      </trkpt>
      <trkpt lat="45.65419" lon="6.66723">
        <ele>2691.83</ele>
        <time>2018-02-07T10:03:32Z</time>
      </trkpt>
      <trkpt lat="45.65417" lon="6.66721">
        <ele>2690.39</ele>
        <time>2018-02-07T10:03:47Z</time>
      </trkpt>
      <trkpt lat="45.65415" lon="6.66721">
        <ele>2690.39</ele>
        <time>2018-02-07T10:04:21Z</time>
      </trkpt>
      <trkpt lat="45.65416" lon="6.66718">
        <ele>2689.91</ele>
        <time>2018-02-07T10:04:54Z</time>
      </trkpt>
      <trkpt lat="45.65415" lon="6.66719">
        <ele>2689.91</ele>
        <time>2018-02-07T10:05:25Z</time>
      </trkpt>
      <trkpt lat="45.65414" lon="6.66719">
        <ele>2689.43</ele>
        <time>2018-02-07T10:05:56Z</time>
      </trkpt>
      <trkpt lat="45.65414" lon="6.66718">
        <ele>2689.91</ele>
        <time>2018-02-07T10:06:37Z</time>
      </trkpt>
      <trkpt lat="45.65417" lon="6.66715">
        <ele>2689.91</ele>
        <time>2018-02-07T10:07:14Z</time>
      </trkpt>
      <trkpt lat="45.65414" lon="6.66714">
        <ele>2689.43</ele>
        <time>2018-02-07T10:07:43Z</time>
      </trkpt>
      <trkpt lat="45.65413" lon="6.66714">
        <ele>2689.43</ele>
        <time>2018-02-07T10:08:17Z</time>
      </trkpt>
      <trkpt lat="45.65414" lon="6.66716">
        <ele>2689.43</ele>
        <time>2018-02-07T10:08:52Z</time>
      </trkpt>
      <trkpt lat="45.65414" lon="6.66718">
        <ele>2689.43</ele>
        <time>2018-02-07T10:09:27Z</time>
      </trkpt>
      <trkpt lat="45.65416" lon="6.66717">
        <ele>2688.94</ele>
        <time>2018-02-07T10:10:03Z</time>
      </trkpt>
      <trkpt lat="45.65415" lon="6.66716">
        <ele>2689.43</ele>
        <time>2018-02-07T10:10:39Z</time>
      </trkpt>
      <trkpt lat="45.65416" lon="6.66719">
        <ele>2689.43</ele>
        <time>2018-02-07T10:11:11Z</time>
      </trkpt>
      <trkpt lat="45.65417" lon="6.66719">
        <ele>2689.43</ele>
        <time>2018-02-07T10:11:36Z</time>
      </trkpt>
      <trkpt lat="45.65417" lon="6.6672">
        <ele>2688.46</ele>
        <time>2018-02-07T10:12:06Z</time>
      </trkpt>
      <trkpt lat="45.65413" lon="6.6672">
        <ele>2688.46</ele>
        <time>2018-02-07T10:12:39Z</time>
      </trkpt>
      <trkpt lat="45.65411" lon="6.6672">
        <ele>2688.46</ele>
        <time>2018-02-07T10:13:01Z</time>
      </trkpt>
      <trkpt lat="45.65416" lon="6.66722">
        <ele>2688.46</ele>
        <time>2018-02-07T10:13:24Z</time>
      </trkpt>
      <trkpt lat="45.65419" lon="6.66725">
        <ele>2688.94</ele>
        <time>2018-02-07T10:14:02Z</time>
      </trkpt>
      <trkpt lat="45.65421" lon="6.66722">
        <ele>2688.94</ele>
        <time>2018-02-07T10:14:37Z</time>
      </trkpt>
      <trkpt lat="45.65418" lon="6.66722">
        <ele>2689.43</ele>
        <time>2018-02-07T10:14:55Z</time>
      </trkpt>
      <trkpt lat="45.65417" lon="6.66719">
        <ele>2688.94</ele>
        <time>2018-02-07T10:15:17Z</time>
      </trkpt>
      <trkpt lat="45.65416" lon="6.6672">
        <ele>2689.43</ele>
        <time>2018-02-07T10:15:40Z</time>
      </trkpt>
      <trkpt lat="45.65417" lon="6.6672">
        <ele>2688.46</ele>
        <time>2018-02-07T10:16:09Z</time>
      </trkpt>
      <trkpt lat="45.65416" lon="6.66721">
        <ele>2688.94</ele>
        <time>2018-02-07T10:16:35Z</time>
      </trkpt>
      <trkpt lat="45.65418" lon="6.66719">
        <ele>2688.94</ele>
        <time>2018-02-07T10:17:01Z</time>
      </trkpt>
      <trkpt lat="45.65418" lon="6.66718">
        <ele>2688.46</ele>
        <time>2018-02-07T10:17:25Z</time>
      </trkpt>
      <trkpt lat="45.65417" lon="6.6672">
        <ele>2688.94</ele>
        <time>2018-02-07T10:17:43Z</time>
      </trkpt>
      <trkpt lat="45.6542" lon="6.66725">
        <ele>2688.94</ele>
        <time>2018-02-07T10:17:51Z</time>
      </trkpt>
      <trkpt lat="45.65421" lon="6.66733">
        <ele>2686.54</ele>
        <time>2018-02-07T10:17:55Z</time>
      </trkpt>
      <trkpt lat="45.6543" lon="6.66725">
        <ele>2683.18</ele>
        <time>2018-02-07T10:17:58Z</time>
      </trkpt>
      <trkpt lat="45.65432" lon="6.6672">
        <ele>2682.7</ele>
        <time>2018-02-07T10:17:59Z</time>
      </trkpt>
      <trkpt lat="45.65433" lon="6.66714">
        <ele>2682.22</ele>
        <time>2018-02-07T10:18:01Z</time>
      </trkpt>
      <trkpt lat="45.65436" lon="6.66705">
        <ele>2680.77</ele>
        <time>2018-02-07T10:18:05Z</time>
      </trkpt>
      <trkpt lat="45.65447" lon="6.66701">
        <ele>2676.93</ele>
        <time>2018-02-07T10:18:08Z</time>
      </trkpt>
      <trkpt lat="45.65453" lon="6.6671">
        <ele>2673.56</ele>
        <time>2018-02-07T10:18:10Z</time>
      </trkpt>
      <trkpt lat="45.65463" lon="6.66702">
        <ele>2668.28</ele>
        <time>2018-02-07T10:18:12Z</time>
      </trkpt>
      <trkpt lat="45.65467" lon="6.66698">
        <ele>2668.28</ele>
        <time>2018-02-07T10:18:13Z</time>
      </trkpt>
      <trkpt lat="45.65475" lon="6.66706">
        <ele>2663.95</ele>
        <time>2018-02-07T10:18:16Z</time>
      </trkpt>
      <trkpt lat="45.65483" lon="6.6672">
        <ele>2656.74</ele>
        <time>2018-02-07T10:18:20Z</time>
      </trkpt>
      <trkpt lat="45.65492" lon="6.66714">
        <ele>2653.38</ele>
        <time>2018-02-07T10:18:22Z</time>
      </trkpt>
      <trkpt lat="45.65498" lon="6.66721">
        <ele>2650.01</ele>
        <time>2018-02-07T10:18:24Z</time>
      </trkpt>
      <trkpt lat="45.65497" lon="6.66728">
        <ele>2648.57</ele>
        <time>2018-02-07T10:18:25Z</time>
      </trkpt>
      <trkpt lat="45.65495" lon="6.6674">
        <ele>2648.09</ele>
        <time>2018-02-07T10:18:27Z</time>
      </trkpt>
      <trkpt lat="45.65496" lon="6.66749">
        <ele>2648.09</ele>
        <time>2018-02-07T10:18:30Z</time>
      </trkpt>
      <trkpt lat="45.65505" lon="6.66746">
        <ele>2644.72</ele>
        <time>2018-02-07T10:18:33Z</time>
      </trkpt>
      <trkpt lat="45.65513" lon="6.66734">
        <ele>2641.36</ele>
        <time>2018-02-07T10:18:35Z</time>
      </trkpt>
      <trkpt lat="45.65531" lon="6.66733">
        <ele>2639.92</ele>
        <time>2018-02-07T10:18:40Z</time>
      </trkpt>
      <trkpt lat="45.65554" lon="6.6674">
        <ele>2636.07</ele>
        <time>2018-02-07T10:18:45Z</time>
      </trkpt>
      <trkpt lat="45.65558" lon="6.66742">
        <ele>2635.59</ele>
        <time>2018-02-07T10:18:46Z</time>
      </trkpt>
      <trkpt lat="45.65554" lon="6.66756">
        <ele>2630.79</ele>
        <time>2018-02-07T10:18:49Z</time>
      </trkpt>
      <trkpt lat="45.65548" lon="6.66759">
        <ele>2630.3</ele>
        <time>2018-02-07T10:18:50Z</time>
      </trkpt>
      <trkpt lat="45.65538" lon="6.66775">
        <ele>2626.94</ele>
        <time>2018-02-07T10:18:54Z</time>
      </trkpt>
      <trkpt lat="45.65543" lon="6.66776">
        <ele>2624.06</ele>
        <time>2018-02-07T10:18:55Z</time>
      </trkpt>
      <trkpt lat="45.65545" lon="6.668">
        <ele>2619.25</ele>
        <time>2018-02-07T10:18:58Z</time>
      </trkpt>
      <trkpt lat="45.65536" lon="6.6681">
        <ele>2614.44</ele>
        <time>2018-02-07T10:19:00Z</time>
      </trkpt>
      <trkpt lat="45.65533" lon="6.66813">
        <ele>2614.44</ele>
        <time>2018-02-07T10:19:01Z</time>
      </trkpt>
      <trkpt lat="45.65528" lon="6.66821">
        <ele>2613.48</ele>
        <time>2018-02-07T10:19:05Z</time>
      </trkpt>
      <trkpt lat="45.6552" lon="6.66848">
        <ele>2610.12</ele>
        <time>2018-02-07T10:19:12Z</time>
      </trkpt>
      <trkpt lat="45.65518" lon="6.66853">
        <ele>2608.67</ele>
        <time>2018-02-07T10:19:14Z</time>
      </trkpt>
      <trkpt lat="45.65523" lon="6.66862">
        <ele>2605.31</ele>
        <time>2018-02-07T10:19:17Z</time>
      </trkpt>
      <trkpt lat="45.6553" lon="6.66857">
        <ele>2600.5</ele>
        <time>2018-02-07T10:19:19Z</time>
      </trkpt>
      <trkpt lat="45.65536" lon="6.66852">
        <ele>2600.02</ele>
        <time>2018-02-07T10:19:22Z</time>
      </trkpt>
      <trkpt lat="45.65547" lon="6.66859">
        <ele>2595.7</ele>
        <time>2018-02-07T10:19:25Z</time>
      </trkpt>
      <trkpt lat="45.65546" lon="6.66873">
        <ele>2592.81</ele>
        <time>2018-02-07T10:19:27Z</time>
      </trkpt>
      <trkpt lat="45.6555" lon="6.66879">
        <ele>2590.41</ele>
        <time>2018-02-07T10:19:28Z</time>
      </trkpt>
      <trkpt lat="45.65558" lon="6.66884">
        <ele>2587.53</ele>
        <time>2018-02-07T10:19:29Z</time>
      </trkpt>
      <trkpt lat="45.65564" lon="6.66886">
        <ele>2584.64</ele>
        <time>2018-02-07T10:19:30Z</time>
      </trkpt>
      <trkpt lat="45.65576" lon="6.66883">
        <ele>2581.28</ele>
        <time>2018-02-07T10:19:32Z</time>
      </trkpt>
      <trkpt lat="45.65579" lon="6.66879">
        <ele>2580.32</ele>
        <time>2018-02-07T10:19:37Z</time>
      </trkpt>
      <trkpt lat="45.65578" lon="6.66878">
        <ele>2581.28</ele>
        <time>2018-02-07T10:20:01Z</time>
      </trkpt>
      <trkpt lat="45.65578" lon="6.66881">
        <ele>2580.8</ele>
        <time>2018-02-07T10:20:22Z</time>
      </trkpt>
      <trkpt lat="45.6558" lon="6.66877">
        <ele>2580.32</ele>
        <time>2018-02-07T10:20:52Z</time>
      </trkpt>
      <trkpt lat="45.65581" lon="6.66877">
        <ele>2580.32</ele>
        <time>2018-02-07T10:21:25Z</time>
      </trkpt>
      <trkpt lat="45.65581" lon="6.66876">
        <ele>2580.8</ele>
        <time>2018-02-07T10:21:48Z</time>
      </trkpt>
      <trkpt lat="45.65577" lon="6.66876">
        <ele>2580.8</ele>
        <time>2018-02-07T10:22:10Z</time>
      </trkpt>
      <trkpt lat="45.65577" lon="6.66875">
        <ele>2580.8</ele>
        <time>2018-02-07T10:22:26Z</time>
      </trkpt>
      <trkpt lat="45.65576" lon="6.66876">
        <ele>2580.32</ele>
        <time>2018-02-07T10:22:49Z</time>
      </trkpt>
      <trkpt lat="45.65577" lon="6.66879">
        <ele>2580.32</ele>
        <time>2018-02-07T10:23:11Z</time>
      </trkpt>
      <trkpt lat="45.65577" lon="6.66879">
        <ele>2580.32</ele>
        <time>2018-02-07T10:23:35Z</time>
      </trkpt>
      <trkpt lat="45.65578" lon="6.66879">
        <ele>2580.32</ele>
        <time>2018-02-07T10:24:09Z</time>
      </trkpt>
      <trkpt lat="45.65579" lon="6.6688">
        <ele>2579.84</ele>
        <time>2018-02-07T10:24:20Z</time>
      </trkpt>
      <trkpt lat="45.65579" lon="6.66891">
        <ele>2579.35</ele>
        <time>2018-02-07T10:24:23Z</time>
      </trkpt>
      <trkpt lat="45.65583" lon="6.66915">
        <ele>2573.59</ele>
        <time>2018-02-07T10:24:26Z</time>
      </trkpt>
      <trkpt lat="45.65587" lon="6.66934">
        <ele>2570.22</ele>
        <time>2018-02-07T10:24:28Z</time>
      </trkpt>
      <trkpt lat="45.65589" lon="6.66968">
        <ele>2563.97</ele>
        <time>2018-02-07T10:24:32Z</time>
      </trkpt>
      <trkpt lat="45.65599" lon="6.67007">
        <ele>2561.57</ele>
        <time>2018-02-07T10:24:44Z</time>
      </trkpt>
      <trkpt lat="45.656" lon="6.67007">
        <ele>2561.57</ele>
        <time>2018-02-07T10:25:06Z</time>
      </trkpt>
      <trkpt lat="45.656" lon="6.67006">
        <ele>2561.57</ele>
        <time>2018-02-07T10:25:31Z</time>
      </trkpt>
      <trkpt lat="45.65599" lon="6.67023">
        <ele>2559.65</ele>
        <time>2018-02-07T10:25:35Z</time>
      </trkpt>
      <trkpt lat="45.65607" lon="6.67052">
        <ele>2556.28</ele>
        <time>2018-02-07T10:25:39Z</time>
      </trkpt>
      <trkpt lat="45.65615" lon="6.67076">
        <ele>2553.88</ele>
        <time>2018-02-07T10:25:42Z</time>
      </trkpt>
      <trkpt lat="45.65604" lon="6.67092">
        <ele>2551</ele>
        <time>2018-02-07T10:25:46Z</time>
      </trkpt>
      <trkpt lat="45.65595" lon="6.67108">
        <ele>2545.71</ele>
        <time>2018-02-07T10:25:49Z</time>
      </trkpt>
      <trkpt lat="45.65598" lon="6.67127">
        <ele>2541.86</ele>
        <time>2018-02-07T10:25:51Z</time>
      </trkpt>
      <trkpt lat="45.656" lon="6.67159">
        <ele>2537.06</ele>
        <time>2018-02-07T10:25:54Z</time>
      </trkpt>
      <trkpt lat="45.65603" lon="6.67188">
        <ele>2534.65</ele>
        <time>2018-02-07T10:25:57Z</time>
      </trkpt>
      <trkpt lat="45.65614" lon="6.67224">
        <ele>2532.73</ele>
        <time>2018-02-07T10:26:06Z</time>
      </trkpt>
      <trkpt lat="45.65619" lon="6.67236">
        <ele>2531.77</ele>
        <time>2018-02-07T10:26:19Z</time>
      </trkpt>
      <trkpt lat="45.65623" lon="6.67245">
        <ele>2531.77</ele>
        <time>2018-02-07T10:26:32Z</time>
      </trkpt>
      <trkpt lat="45.65629" lon="6.67281">
        <ele>2527.92</ele>
        <time>2018-02-07T10:26:47Z</time>
      </trkpt>
      <trkpt lat="45.6563" lon="6.67293">
        <ele>2526.96</ele>
        <time>2018-02-07T10:26:49Z</time>
      </trkpt>
      <trkpt lat="45.65631" lon="6.67313">
        <ele>2524.08</ele>
        <time>2018-02-07T10:26:52Z</time>
      </trkpt>
      <trkpt lat="45.65633" lon="6.6734">
        <ele>2520.71</ele>
        <time>2018-02-07T10:26:57Z</time>
      </trkpt>
      <trkpt lat="45.65637" lon="6.67359">
        <ele>2518.79</ele>
        <time>2018-02-07T10:27:01Z</time>
      </trkpt>
      <trkpt lat="45.65638" lon="6.67376">
        <ele>2516.39</ele>
        <time>2018-02-07T10:27:04Z</time>
      </trkpt>
      <trkpt lat="45.65647" lon="6.67379">
        <ele>2511.1</ele>
        <time>2018-02-07T10:27:07Z</time>
      </trkpt>
      <trkpt lat="45.65653" lon="6.67381">
        <ele>2509.18</ele>
        <time>2018-02-07T10:27:09Z</time>
      </trkpt>
      <trkpt lat="45.65666" lon="6.67393">
        <ele>2501.49</ele>
        <time>2018-02-07T10:27:13Z</time>
      </trkpt>
      <trkpt lat="45.65662" lon="6.67413">
        <ele>2497.16</ele>
        <time>2018-02-07T10:27:17Z</time>
      </trkpt>
      <trkpt lat="45.65658" lon="6.67435">
        <ele>2493.8</ele>
        <time>2018-02-07T10:27:20Z</time>
      </trkpt>
      <trkpt lat="45.65663" lon="6.6746">
        <ele>2487.07</ele>
        <time>2018-02-07T10:27:25Z</time>
      </trkpt>
      <trkpt lat="45.65667" lon="6.67455">
        <ele>2483.7</ele>
        <time>2018-02-07T10:27:26Z</time>
      </trkpt>
      <trkpt lat="45.65682" lon="6.67456">
        <ele>2477.45</ele>
        <time>2018-02-07T10:27:31Z</time>
      </trkpt>
      <trkpt lat="45.65682" lon="6.67476">
        <ele>2474.57</ele>
        <time>2018-02-07T10:27:34Z</time>
      </trkpt>
      <trkpt lat="45.65683" lon="6.67502">
        <ele>2471.69</ele>
        <time>2018-02-07T10:27:38Z</time>
      </trkpt>
      <trkpt lat="45.65682" lon="6.67518">
        <ele>2468.8</ele>
        <time>2018-02-07T10:27:41Z</time>
      </trkpt>
      <trkpt lat="45.65688" lon="6.67524">
        <ele>2463.04</ele>
        <time>2018-02-07T10:27:44Z</time>
      </trkpt>
      <trkpt lat="45.65694" lon="6.67529">
        <ele>2459.67</ele>
        <time>2018-02-07T10:27:46Z</time>
      </trkpt>
      <trkpt lat="45.65704" lon="6.6753">
        <ele>2451.98</ele>
        <time>2018-02-07T10:27:50Z</time>
      </trkpt>
      <trkpt lat="45.65707" lon="6.67527">
        <ele>2451.02</ele>
        <time>2018-02-07T10:27:52Z</time>
      </trkpt>
      <trkpt lat="45.6571" lon="6.6754">
        <ele>2446.69</ele>
        <time>2018-02-07T10:27:55Z</time>
      </trkpt>
      <trkpt lat="45.65709" lon="6.67547">
        <ele>2444.77</ele>
        <time>2018-02-07T10:27:56Z</time>
      </trkpt>
      <trkpt lat="45.65701" lon="6.67574">
        <ele>2439.96</ele>
        <time>2018-02-07T10:28:00Z</time>
      </trkpt>
      <trkpt lat="45.657" lon="6.67582">
        <ele>2439</ele>
        <time>2018-02-07T10:28:02Z</time>
      </trkpt>
      <trkpt lat="45.65704" lon="6.6761">
        <ele>2435.16</ele>
        <time>2018-02-07T10:28:08Z</time>
      </trkpt>
      <trkpt lat="45.65714" lon="6.67627">
        <ele>2431.31</ele>
        <time>2018-02-07T10:28:11Z</time>
      </trkpt>
      <trkpt lat="45.65734" lon="6.6763">
        <ele>2428.43</ele>
        <time>2018-02-07T10:28:17Z</time>
      </trkpt>
      <trkpt lat="45.65737" lon="6.67629">
        <ele>2428.43</ele>
        <time>2018-02-07T10:28:18Z</time>
      </trkpt>
      <trkpt lat="45.6574" lon="6.67626">
        <ele>2427.47</ele>
        <time>2018-02-07T10:28:19Z</time>
      </trkpt>
      <trkpt lat="45.65751" lon="6.67612">
        <ele>2425.54</ele>
        <time>2018-02-07T10:28:29Z</time>
      </trkpt>
      <trkpt lat="45.65758" lon="6.67606">
        <ele>2426.02</ele>
        <time>2018-02-07T10:28:42Z</time>
      </trkpt>
      <trkpt lat="45.65765" lon="6.67604">
        <ele>2426.5</ele>
        <time>2018-02-07T10:28:56Z</time>
      </trkpt>
      <trkpt lat="45.65773" lon="6.67599">
        <ele>2426.99</ele>
        <time>2018-02-07T10:29:13Z</time>
      </trkpt>
      <trkpt lat="45.65781" lon="6.67593">
        <ele>2426.5</ele>
        <time>2018-02-07T10:29:25Z</time>
      </trkpt>
      <trkpt lat="45.65786" lon="6.67589">
        <ele>2426.5</ele>
        <time>2018-02-07T10:29:38Z</time>
      </trkpt>
      <trkpt lat="45.65792" lon="6.67583">
        <ele>2426.99</ele>
        <time>2018-02-07T10:29:53Z</time>
      </trkpt>
      <trkpt lat="45.65796" lon="6.67577">
        <ele>2426.99</ele>
        <time>2018-02-07T10:30:06Z</time>
      </trkpt>
      <trkpt lat="45.658" lon="6.67573">
        <ele>2426.99</ele>
        <time>2018-02-07T10:30:18Z</time>
      </trkpt>
      <trkpt lat="45.65802" lon="6.67568">
        <ele>2427.95</ele>
        <time>2018-02-07T10:30:31Z</time>
      </trkpt>
      <trkpt lat="45.65806" lon="6.67565">
        <ele>2428.91</ele>
        <time>2018-02-07T10:30:43Z</time>
      </trkpt>
      <trkpt lat="45.65812" lon="6.67565">
        <ele>2428.91</ele>
        <time>2018-02-07T10:30:54Z</time>
      </trkpt>
      <trkpt lat="45.65818" lon="6.67562">
        <ele>2429.39</ele>
        <time>2018-02-07T10:31:10Z</time>
      </trkpt>
      <trkpt lat="45.65818" lon="6.67562">
        <ele>2428.91</ele>
        <time>2018-02-07T10:31:29Z</time>
      </trkpt>
      <trkpt lat="45.65817" lon="6.67563">
        <ele>2428.91</ele>
        <time>2018-02-07T10:31:48Z</time>
      </trkpt>
      <trkpt lat="45.65817" lon="6.67566">
        <ele>2427.95</ele>
        <time>2018-02-07T10:31:58Z</time>
      </trkpt>
      <trkpt lat="45.65818" lon="6.67562">
        <ele>2428.43</ele>
        <time>2018-02-07T10:32:21Z</time>
      </trkpt>
      <trkpt lat="45.65819" lon="6.67563">
        <ele>2428.43</ele>
        <time>2018-02-07T10:32:42Z</time>
      </trkpt>
      <trkpt lat="45.65815" lon="6.67564">
        <ele>2428.43</ele>
        <time>2018-02-07T10:33:07Z</time>
      </trkpt>
      <trkpt lat="45.65814" lon="6.67563">
        <ele>2428.91</ele>
        <time>2018-02-07T10:33:32Z</time>
      </trkpt>
      <trkpt lat="45.65812" lon="6.67564">
        <ele>2428.91</ele>
        <time>2018-02-07T10:33:56Z</time>
      </trkpt>
      <trkpt lat="45.65817" lon="6.67563">
        <ele>2428.91</ele>
        <time>2018-02-07T10:34:27Z</time>
      </trkpt>
      <trkpt lat="45.65817" lon="6.67566">
        <ele>2429.39</ele>
        <time>2018-02-07T10:34:45Z</time>
      </trkpt>
      <trkpt lat="45.65819" lon="6.67558">
        <ele>2430.35</ele>
        <time>2018-02-07T10:35:13Z</time>
      </trkpt>
      <trkpt lat="45.65819" lon="6.67556">
        <ele>2430.35</ele>
        <time>2018-02-07T10:35:37Z</time>
      </trkpt>
      <trkpt lat="45.65818" lon="6.67561">
        <ele>2430.83</ele>
        <time>2018-02-07T10:35:54Z</time>
      </trkpt>
      <trkpt lat="45.65818" lon="6.67561">
        <ele>2430.35</ele>
        <time>2018-02-07T10:36:17Z</time>
      </trkpt>
      <trkpt lat="45.65819" lon="6.67559">
        <ele>2430.83</ele>
        <time>2018-02-07T10:36:45Z</time>
      </trkpt>
      <trkpt lat="45.65815" lon="6.67561">
        <ele>2430.83</ele>
        <time>2018-02-07T10:37:15Z</time>
      </trkpt>
      <trkpt lat="45.65817" lon="6.67558">
        <ele>2430.83</ele>
        <time>2018-02-07T10:37:41Z</time>
      </trkpt>
      <trkpt lat="45.65819" lon="6.67556">
        <ele>2431.31</ele>
        <time>2018-02-07T10:38:03Z</time>
      </trkpt>
      <trkpt lat="45.65818" lon="6.6756">
        <ele>2431.31</ele>
        <time>2018-02-07T10:38:32Z</time>
      </trkpt>
      <trkpt lat="45.65819" lon="6.6756">
        <ele>2430.35</ele>
        <time>2018-02-07T10:38:52Z</time>
      </trkpt>
      <trkpt lat="45.65811" lon="6.67563">
        <ele>2430.35</ele>
        <time>2018-02-07T10:39:13Z</time>
      </trkpt>
      <trkpt lat="45.65809" lon="6.67571">
        <ele>2430.83</ele>
        <time>2018-02-07T10:39:34Z</time>
      </trkpt>
      <trkpt lat="45.65808" lon="6.67571">
        <ele>2430.83</ele>
        <time>2018-02-07T10:39:58Z</time>
      </trkpt>
      <trkpt lat="45.6581" lon="6.67568">
        <ele>2430.35</ele>
        <time>2018-02-07T10:40:26Z</time>
      </trkpt>
      <trkpt lat="45.6581" lon="6.67568">
        <ele>2430.83</ele>
        <time>2018-02-07T10:40:48Z</time>
      </trkpt>
      <trkpt lat="45.6581" lon="6.6757">
        <ele>2431.31</ele>
        <time>2018-02-07T10:41:09Z</time>
      </trkpt>
      <trkpt lat="45.65815" lon="6.67571">
        <ele>2431.31</ele>
        <time>2018-02-07T10:41:33Z</time>
      </trkpt>
      <trkpt lat="45.65816" lon="6.67571">
        <ele>2431.79</ele>
        <time>2018-02-07T10:41:52Z</time>
      </trkpt>
      <trkpt lat="45.65818" lon="6.67571">
        <ele>2431.79</ele>
        <time>2018-02-07T10:42:17Z</time>
      </trkpt>
      <trkpt lat="45.65821" lon="6.67569">
        <ele>2432.27</ele>
        <time>2018-02-07T10:42:34Z</time>
      </trkpt>
      <trkpt lat="45.65827" lon="6.67566">
        <ele>2432.27</ele>
        <time>2018-02-07T10:43:09Z</time>
      </trkpt>
      <trkpt lat="45.65823" lon="6.67566">
        <ele>2432.27</ele>
        <time>2018-02-07T10:43:31Z</time>
      </trkpt>
      <trkpt lat="45.65818" lon="6.67564">
        <ele>2432.75</ele>
        <time>2018-02-07T10:43:51Z</time>
      </trkpt>
      <trkpt lat="45.65821" lon="6.67562">
        <ele>2432.75</ele>
        <time>2018-02-07T10:44:11Z</time>
      </trkpt>
      <trkpt lat="45.65817" lon="6.67561">
        <ele>2432.27</ele>
        <time>2018-02-07T10:44:33Z</time>
      </trkpt>
      <trkpt lat="45.65824" lon="6.67558">
        <ele>2432.75</ele>
        <time>2018-02-07T10:44:53Z</time>
      </trkpt>
      <trkpt lat="45.65821" lon="6.67564">
        <ele>2432.75</ele>
        <time>2018-02-07T10:45:16Z</time>
      </trkpt>
      <trkpt lat="45.65822" lon="6.67563">
        <ele>2432.75</ele>
        <time>2018-02-07T10:45:37Z</time>
      </trkpt>
      <trkpt lat="45.6582" lon="6.67563">
        <ele>2432.75</ele>
        <time>2018-02-07T10:46:00Z</time>
      </trkpt>
      <trkpt lat="45.65825" lon="6.67562">
        <ele>2432.75</ele>
        <time>2018-02-07T10:46:21Z</time>
      </trkpt>
      <trkpt lat="45.65829" lon="6.67557">
        <ele>2433.23</ele>
        <time>2018-02-07T10:46:44Z</time>
      </trkpt>
      <trkpt lat="45.65828" lon="6.67561">
        <ele>2433.23</ele>
        <time>2018-02-07T10:47:11Z</time>
      </trkpt>
      <trkpt lat="45.65824" lon="6.67563">
        <ele>2433.71</ele>
        <time>2018-02-07T10:47:34Z</time>
      </trkpt>
      <trkpt lat="45.65823" lon="6.67564">
        <ele>2434.68</ele>
        <time>2018-02-07T10:47:46Z</time>
      </trkpt>
      <trkpt lat="45.65826" lon="6.67562">
        <ele>2434.68</ele>
        <time>2018-02-07T10:48:03Z</time>
      </trkpt>
      <trkpt lat="45.65818" lon="6.67564">
        <ele>2434.68</ele>
        <time>2018-02-07T10:48:18Z</time>
      </trkpt>
      <trkpt lat="45.6582" lon="6.67563">
        <ele>2435.16</ele>
        <time>2018-02-07T10:48:33Z</time>
      </trkpt>
      <trkpt lat="45.6582" lon="6.67564">
        <ele>2434.68</ele>
        <time>2018-02-07T10:48:47Z</time>
      </trkpt>
      <trkpt lat="45.65819" lon="6.67561">
        <ele>2435.16</ele>
        <time>2018-02-07T10:49:01Z</time>
      </trkpt>
      <trkpt lat="45.6582" lon="6.67566">
        <ele>2433.71</ele>
        <time>2018-02-07T10:49:13Z</time>
      </trkpt>
      <trkpt lat="45.65832" lon="6.67567">
        <ele>2434.2</ele>
        <time>2018-02-07T10:49:37Z</time>
      </trkpt>
      <trkpt lat="45.65826" lon="6.67569">
        <ele>2433.71</ele>
        <time>2018-02-07T10:50:06Z</time>
      </trkpt>
      <trkpt lat="45.65823" lon="6.67564">
        <ele>2434.2</ele>
        <time>2018-02-07T10:50:26Z</time>
      </trkpt>
      <trkpt lat="45.65817" lon="6.67563">
        <ele>2433.71</ele>
        <time>2018-02-07T10:50:32Z</time>
      </trkpt>
      <trkpt lat="45.65817" lon="6.67562">
        <ele>2435.16</ele>
        <time>2018-02-07T10:50:36Z</time>
      </trkpt>
      <trkpt lat="45.65821" lon="6.67566">
        <ele>2435.16</ele>
        <time>2018-02-07T10:50:49Z</time>
      </trkpt>
      <trkpt lat="45.65824" lon="6.67566">
        <ele>2435.16</ele>
        <time>2018-02-07T10:51:06Z</time>
      </trkpt>
      <trkpt lat="45.65828" lon="6.67567">
        <ele>2434.68</ele>
        <time>2018-02-07T10:51:34Z</time>
      </trkpt>
      <trkpt lat="45.65825" lon="6.67563">
        <ele>2434.68</ele>
        <time>2018-02-07T10:51:48Z</time>
      </trkpt>
      <trkpt lat="45.65826" lon="6.67562">
        <ele>2435.16</ele>
        <time>2018-02-07T10:51:49Z</time>
      </trkpt>
      <trkpt lat="45.6583" lon="6.67551">
        <ele>2434.68</ele>
        <time>2018-02-07T10:51:59Z</time>
      </trkpt>
      <trkpt lat="45.6583" lon="6.67548">
        <ele>2435.16</ele>
        <time>2018-02-07T10:52:01Z</time>
      </trkpt>
      <trkpt lat="45.65838" lon="6.67545">
        <ele>2435.16</ele>
        <time>2018-02-07T10:52:17Z</time>
      </trkpt>
      <trkpt lat="45.65831" lon="6.67544">
        <ele>2435.16</ele>
        <time>2018-02-07T10:52:33Z</time>
      </trkpt>
      <trkpt lat="45.6583" lon="6.6754">
        <ele>2434.68</ele>
        <time>2018-02-07T10:52:35Z</time>
      </trkpt>
      <trkpt lat="45.65835" lon="6.6752">
        <ele>2435.64</ele>
        <time>2018-02-07T10:52:49Z</time>
      </trkpt>
      <trkpt lat="45.6583" lon="6.67511">
        <ele>2434.68</ele>
        <time>2018-02-07T10:53:03Z</time>
      </trkpt>
      <trkpt lat="45.65833" lon="6.67505">
        <ele>2435.64</ele>
        <time>2018-02-07T10:53:15Z</time>
      </trkpt>
      <trkpt lat="45.65835" lon="6.67502">
        <ele>2436.12</ele>
        <time>2018-02-07T10:53:18Z</time>
      </trkpt>
      <trkpt lat="45.65836" lon="6.67498">
        <ele>2436.6</ele>
        <time>2018-02-07T10:53:21Z</time>
      </trkpt>
      <trkpt lat="45.65835" lon="6.67488">
        <ele>2437.56</ele>
        <time>2018-02-07T10:53:33Z</time>
      </trkpt>
      <trkpt lat="45.65834" lon="6.67476">
        <ele>2439.48</ele>
        <time>2018-02-07T10:53:47Z</time>
      </trkpt>
      <trkpt lat="45.65839" lon="6.67468">
        <ele>2440.92</ele>
        <time>2018-02-07T10:54:00Z</time>
      </trkpt>
      <trkpt lat="45.6584" lon="6.67466">
        <ele>2442.37</ele>
        <time>2018-02-07T10:54:02Z</time>
      </trkpt>
      <trkpt lat="45.65843" lon="6.67455">
        <ele>2443.33</ele>
        <time>2018-02-07T10:54:13Z</time>
      </trkpt>
      <trkpt lat="45.65842" lon="6.67448">
        <ele>2444.77</ele>
        <time>2018-02-07T10:54:27Z</time>
      </trkpt>
      <trkpt lat="45.65844" lon="6.67431">
        <ele>2446.69</ele>
        <time>2018-02-07T10:54:45Z</time>
      </trkpt>
      <trkpt lat="45.65848" lon="6.67414">
        <ele>2449.1</ele>
        <time>2018-02-07T10:55:06Z</time>
      </trkpt>
      <trkpt lat="45.65849" lon="6.67402">
        <ele>2450.54</ele>
        <time>2018-02-07T10:55:20Z</time>
      </trkpt>
      <trkpt lat="45.65852" lon="6.67391">
        <ele>2452.46</ele>
        <time>2018-02-07T10:55:35Z</time>
      </trkpt>
      <trkpt lat="45.65854" lon="6.6738">
        <ele>2454.86</ele>
        <time>2018-02-07T10:55:50Z</time>
      </trkpt>
      <trkpt lat="45.65856" lon="6.67369">
        <ele>2456.31</ele>
        <time>2018-02-07T10:56:05Z</time>
      </trkpt>
      <trkpt lat="45.65857" lon="6.67352">
        <ele>2458.23</ele>
        <time>2018-02-07T10:56:23Z</time>
      </trkpt>
      <trkpt lat="45.65856" lon="6.67342">
        <ele>2460.63</ele>
        <time>2018-02-07T10:56:38Z</time>
      </trkpt>
      <trkpt lat="45.65857" lon="6.67333">
        <ele>2462.07</ele>
        <time>2018-02-07T10:56:52Z</time>
      </trkpt>
      <trkpt lat="45.65858" lon="6.67318">
        <ele>2463.52</ele>
        <time>2018-02-07T10:57:09Z</time>
      </trkpt>
      <trkpt lat="45.6586" lon="6.67309">
        <ele>2464.96</ele>
        <time>2018-02-07T10:57:21Z</time>
      </trkpt>
      <trkpt lat="45.6586" lon="6.67299">
        <ele>2467.36</ele>
        <time>2018-02-07T10:57:34Z</time>
      </trkpt>
      <trkpt lat="45.65861" lon="6.67291">
        <ele>2469.28</ele>
        <time>2018-02-07T10:57:47Z</time>
      </trkpt>
      <trkpt lat="45.65863" lon="6.67283">
        <ele>2470.73</ele>
        <time>2018-02-07T10:58:01Z</time>
      </trkpt>
      <trkpt lat="45.65865" lon="6.67273">
        <ele>2472.65</ele>
        <time>2018-02-07T10:58:16Z</time>
      </trkpt>
      <trkpt lat="45.65866" lon="6.67261">
        <ele>2474.57</ele>
        <time>2018-02-07T10:58:31Z</time>
      </trkpt>
      <trkpt lat="45.65867" lon="6.67253">
        <ele>2476.49</ele>
        <time>2018-02-07T10:58:45Z</time>
      </trkpt>
      <trkpt lat="45.65867" lon="6.67244">
        <ele>2478.42</ele>
        <time>2018-02-07T10:58:59Z</time>
      </trkpt>
      <trkpt lat="45.65866" lon="6.67236">
        <ele>2479.38</ele>
        <time>2018-02-07T10:59:11Z</time>
      </trkpt>
      <trkpt lat="45.65865" lon="6.67227">
        <ele>2481.78</ele>
        <time>2018-02-07T10:59:25Z</time>
      </trkpt>
      <trkpt lat="45.65865" lon="6.67217">
        <ele>2483.7</ele>
        <time>2018-02-07T10:59:38Z</time>
      </trkpt>
      <trkpt lat="45.65865" lon="6.67209">
        <ele>2485.15</ele>
        <time>2018-02-07T10:59:52Z</time>
      </trkpt>
      <trkpt lat="45.65863" lon="6.67198">
        <ele>2487.07</ele>
        <time>2018-02-07T11:00:05Z</time>
      </trkpt>
      <trkpt lat="45.65862" lon="6.67189">
        <ele>2488.51</ele>
        <time>2018-02-07T11:00:19Z</time>
      </trkpt>
      <trkpt lat="45.65861" lon="6.6718">
        <ele>2490.43</ele>
        <time>2018-02-07T11:00:32Z</time>
      </trkpt>
      <trkpt lat="45.6586" lon="6.67171">
        <ele>2492.36</ele>
        <time>2018-02-07T11:00:45Z</time>
      </trkpt>
      <trkpt lat="45.65864" lon="6.67163">
        <ele>2494.28</ele>
        <time>2018-02-07T11:01:00Z</time>
      </trkpt>
      <trkpt lat="45.65867" lon="6.67152">
        <ele>2496.2</ele>
        <time>2018-02-07T11:01:15Z</time>
      </trkpt>
      <trkpt lat="45.6587" lon="6.67143">
        <ele>2497.64</ele>
        <time>2018-02-07T11:01:30Z</time>
      </trkpt>
      <trkpt lat="45.65873" lon="6.67139">
        <ele>2499.08</ele>
        <time>2018-02-07T11:01:39Z</time>
      </trkpt>
      <trkpt lat="45.65878" lon="6.67134">
        <ele>2500.53</ele>
        <time>2018-02-07T11:01:52Z</time>
      </trkpt>
      <trkpt lat="45.65881" lon="6.67128">
        <ele>2502.45</ele>
        <time>2018-02-07T11:02:04Z</time>
      </trkpt>
      <trkpt lat="45.65881" lon="6.6712">
        <ele>2504.37</ele>
        <time>2018-02-07T11:02:17Z</time>
      </trkpt>
      <trkpt lat="45.65883" lon="6.67112">
        <ele>2506.77</ele>
        <time>2018-02-07T11:02:31Z</time>
      </trkpt>
      <trkpt lat="45.65879" lon="6.67109">
        <ele>2508.7</ele>
        <time>2018-02-07T11:02:46Z</time>
      </trkpt>
      <trkpt lat="45.65874" lon="6.6711">
        <ele>2509.66</ele>
        <time>2018-02-07T11:02:58Z</time>
      </trkpt>
      <trkpt lat="45.65868" lon="6.67107">
        <ele>2511.58</ele>
        <time>2018-02-07T11:03:11Z</time>
      </trkpt>
      <trkpt lat="45.65862" lon="6.67103">
        <ele>2513.5</ele>
        <time>2018-02-07T11:03:25Z</time>
      </trkpt>
      <trkpt lat="45.65856" lon="6.67101">
        <ele>2514.95</ele>
        <time>2018-02-07T11:03:38Z</time>
      </trkpt>
      <trkpt lat="45.6586" lon="6.67094">
        <ele>2515.43</ele>
        <time>2018-02-07T11:03:48Z</time>
      </trkpt>
      <trkpt lat="45.65861" lon="6.67084">
        <ele>2518.31</ele>
        <time>2018-02-07T11:04:03Z</time>
      </trkpt>
      <trkpt lat="45.65863" lon="6.67076">
        <ele>2519.27</ele>
        <time>2018-02-07T11:04:15Z</time>
      </trkpt>
      <trkpt lat="45.65868" lon="6.6707">
        <ele>2520.23</ele>
        <time>2018-02-07T11:04:28Z</time>
      </trkpt>
      <trkpt lat="45.65872" lon="6.67066">
        <ele>2522.16</ele>
        <time>2018-02-07T11:04:39Z</time>
      </trkpt>
      <trkpt lat="45.6587" lon="6.67064">
        <ele>2523.6</ele>
        <time>2018-02-07T11:04:51Z</time>
      </trkpt>
      <trkpt lat="45.65864" lon="6.67058">
        <ele>2524.56</ele>
        <time>2018-02-07T11:05:05Z</time>
      </trkpt>
      <trkpt lat="45.65858" lon="6.67054">
        <ele>2526.48</ele>
        <time>2018-02-07T11:05:19Z</time>
      </trkpt>
      <trkpt lat="45.65854" lon="6.6705">
        <ele>2528.4</ele>
        <time>2018-02-07T11:05:32Z</time>
      </trkpt>
      <trkpt lat="45.65847" lon="6.67048">
        <ele>2530.33</ele>
        <time>2018-02-07T11:05:47Z</time>
      </trkpt>
      <trkpt lat="45.65843" lon="6.67045">
        <ele>2530.81</ele>
        <time>2018-02-07T11:05:59Z</time>
      </trkpt>
      <trkpt lat="45.65838" lon="6.6704">
        <ele>2532.73</ele>
        <time>2018-02-07T11:06:13Z</time>
      </trkpt>
      <trkpt lat="45.65837" lon="6.6703">
        <ele>2534.65</ele>
        <time>2018-02-07T11:06:23Z</time>
      </trkpt>
      <trkpt lat="45.65839" lon="6.67025">
        <ele>2535.13</ele>
        <time>2018-02-07T11:06:29Z</time>
      </trkpt>
      <trkpt lat="45.65844" lon="6.67017">
        <ele>2536.58</ele>
        <time>2018-02-07T11:06:40Z</time>
      </trkpt>
      <trkpt lat="45.65848" lon="6.67012">
        <ele>2537.54</ele>
        <time>2018-02-07T11:06:49Z</time>
      </trkpt>
      <trkpt lat="45.65855" lon="6.67002">
        <ele>2538.98</ele>
        <time>2018-02-07T11:07:04Z</time>
      </trkpt>
      <trkpt lat="45.65861" lon="6.66995">
        <ele>2539.94</ele>
        <time>2018-02-07T11:07:18Z</time>
      </trkpt>
      <trkpt lat="45.65868" lon="6.66983">
        <ele>2540.42</ele>
        <time>2018-02-07T11:07:34Z</time>
      </trkpt>
      <trkpt lat="45.65874" lon="6.66968">
        <ele>2541.38</ele>
        <time>2018-02-07T11:07:51Z</time>
      </trkpt>
      <trkpt lat="45.65878" lon="6.66954">
        <ele>2541.86</ele>
        <time>2018-02-07T11:08:05Z</time>
      </trkpt>
      <trkpt lat="45.65879" lon="6.6694">
        <ele>2544.27</ele>
        <time>2018-02-07T11:08:20Z</time>
      </trkpt>
      <trkpt lat="45.65879" lon="6.66926">
        <ele>2546.67</ele>
        <time>2018-02-07T11:08:41Z</time>
      </trkpt>
      <trkpt lat="45.65881" lon="6.66912">
        <ele>2548.11</ele>
        <time>2018-02-07T11:08:54Z</time>
      </trkpt>
      <trkpt lat="45.65881" lon="6.66912">
        <ele>2548.59</ele>
        <time>2018-02-07T11:09:03Z</time>
      </trkpt>
      <trkpt lat="45.65886" lon="6.66911">
        <ele>2548.59</ele>
        <time>2018-02-07T11:09:18Z</time>
      </trkpt>
      <trkpt lat="45.6588" lon="6.66908">
        <ele>2548.59</ele>
        <time>2018-02-07T11:09:40Z</time>
      </trkpt>
      <trkpt lat="45.65879" lon="6.66908">
        <ele>2548.59</ele>
        <time>2018-02-07T11:10:00Z</time>
      </trkpt>
      <trkpt lat="45.65881" lon="6.66904">
        <ele>2549.07</ele>
        <time>2018-02-07T11:10:24Z</time>
      </trkpt>
      <trkpt lat="45.65884" lon="6.66905">
        <ele>2549.55</ele>
        <time>2018-02-07T11:10:42Z</time>
      </trkpt>
      <trkpt lat="45.65882" lon="6.66904">
        <ele>2548.59</ele>
        <time>2018-02-07T11:10:57Z</time>
      </trkpt>
      <trkpt lat="45.65883" lon="6.66903">
        <ele>2549.07</ele>
        <time>2018-02-07T11:11:16Z</time>
      </trkpt>
      <trkpt lat="45.65882" lon="6.669">
        <ele>2549.55</ele>
        <time>2018-02-07T11:11:34Z</time>
      </trkpt>
      <trkpt lat="45.65884" lon="6.66904">
        <ele>2549.55</ele>
        <time>2018-02-07T11:11:59Z</time>
      </trkpt>
      <trkpt lat="45.65885" lon="6.66903">
        <ele>2549.07</ele>
        <time>2018-02-07T11:12:13Z</time>
      </trkpt>
      <trkpt lat="45.65885" lon="6.66894">
        <ele>2550.51</ele>
        <time>2018-02-07T11:12:31Z</time>
      </trkpt>
      <trkpt lat="45.65886" lon="6.66885">
        <ele>2552.44</ele>
        <time>2018-02-07T11:12:44Z</time>
      </trkpt>
      <trkpt lat="45.65886" lon="6.66883">
        <ele>2554.36</ele>
        <time>2018-02-07T11:12:56Z</time>
      </trkpt>
      <trkpt lat="45.6588" lon="6.66881">
        <ele>2555.8</ele>
        <time>2018-02-07T11:13:10Z</time>
      </trkpt>
      <trkpt lat="45.65876" lon="6.66878">
        <ele>2557.24</ele>
        <time>2018-02-07T11:13:24Z</time>
      </trkpt>
      <trkpt lat="45.65872" lon="6.66875">
        <ele>2558.69</ele>
        <time>2018-02-07T11:13:36Z</time>
      </trkpt>
      <trkpt lat="45.65874" lon="6.66872">
        <ele>2559.17</ele>
        <time>2018-02-07T11:13:51Z</time>
      </trkpt>
      <trkpt lat="45.65876" lon="6.66869">
        <ele>2559.65</ele>
        <time>2018-02-07T11:14:06Z</time>
      </trkpt>
      <trkpt lat="45.65878" lon="6.66865">
        <ele>2560.13</ele>
        <time>2018-02-07T11:14:22Z</time>
      </trkpt>
      <trkpt lat="45.6588" lon="6.66859">
        <ele>2562.05</ele>
        <time>2018-02-07T11:14:34Z</time>
      </trkpt>
      <trkpt lat="45.65881" lon="6.66854">
        <ele>2563.01</ele>
        <time>2018-02-07T11:14:46Z</time>
      </trkpt>
      <trkpt lat="45.65883" lon="6.66852">
        <ele>2563.97</ele>
        <time>2018-02-07T11:14:56Z</time>
      </trkpt>
      <trkpt lat="45.65877" lon="6.66856">
        <ele>2564.93</ele>
        <time>2018-02-07T11:15:10Z</time>
      </trkpt>
      <trkpt lat="45.65871" lon="6.66855">
        <ele>2566.86</ele>
        <time>2018-02-07T11:15:24Z</time>
      </trkpt>
      <trkpt lat="45.65871" lon="6.66851">
        <ele>2567.34</ele>
        <time>2018-02-07T11:15:37Z</time>
      </trkpt>
      <trkpt lat="45.65873" lon="6.66847">
        <ele>2567.82</ele>
        <time>2018-02-07T11:15:54Z</time>
      </trkpt>
      <trkpt lat="45.65878" lon="6.66842">
        <ele>2569.26</ele>
        <time>2018-02-07T11:16:06Z</time>
      </trkpt>
      <trkpt lat="45.65882" lon="6.66837">
        <ele>2570.7</ele>
        <time>2018-02-07T11:16:19Z</time>
      </trkpt>
      <trkpt lat="45.65885" lon="6.66834">
        <ele>2571.18</ele>
        <time>2018-02-07T11:16:39Z</time>
      </trkpt>
      <trkpt lat="45.65886" lon="6.66831">
        <ele>2571.18</ele>
        <time>2018-02-07T11:16:56Z</time>
      </trkpt>
      <trkpt lat="45.65886" lon="6.66832">
        <ele>2571.18</ele>
        <time>2018-02-07T11:17:11Z</time>
      </trkpt>
      <trkpt lat="45.65885" lon="6.66834">
        <ele>2571.66</ele>
        <time>2018-02-07T11:17:28Z</time>
      </trkpt>
      <trkpt lat="45.65876" lon="6.66834">
        <ele>2573.59</ele>
        <time>2018-02-07T11:17:43Z</time>
      </trkpt>
      <trkpt lat="45.65871" lon="6.66832">
        <ele>2575.03</ele>
        <time>2018-02-07T11:17:59Z</time>
      </trkpt>
      <trkpt lat="45.65874" lon="6.66827">
        <ele>2576.47</ele>
        <time>2018-02-07T11:18:16Z</time>
      </trkpt>
      <trkpt lat="45.65878" lon="6.66822">
        <ele>2577.91</ele>
        <time>2018-02-07T11:18:28Z</time>
      </trkpt>
      <trkpt lat="45.65878" lon="6.66819">
        <ele>2578.87</ele>
        <time>2018-02-07T11:18:41Z</time>
      </trkpt>
      <trkpt lat="45.65874" lon="6.6682">
        <ele>2579.35</ele>
        <time>2018-02-07T11:18:55Z</time>
      </trkpt>
      <trkpt lat="45.65869" lon="6.6682">
        <ele>2580.32</ele>
        <time>2018-02-07T11:19:08Z</time>
      </trkpt>
      <trkpt lat="45.65864" lon="6.66822">
        <ele>2581.76</ele>
        <time>2018-02-07T11:19:20Z</time>
      </trkpt>
      <trkpt lat="45.65866" lon="6.66818">
        <ele>2581.76</ele>
        <time>2018-02-07T11:19:37Z</time>
      </trkpt>
      <trkpt lat="45.65868" lon="6.66813">
        <ele>2583.68</ele>
        <time>2018-02-07T11:19:50Z</time>
      </trkpt>
      <trkpt lat="45.65868" lon="6.66813">
        <ele>2583.2</ele>
        <time>2018-02-07T11:19:51Z</time>
      </trkpt>
      <trkpt lat="45.65872" lon="6.66807">
        <ele>2585.12</ele>
        <time>2018-02-07T11:20:04Z</time>
      </trkpt>
      <trkpt lat="45.65869" lon="6.66809">
        <ele>2585.6</ele>
        <time>2018-02-07T11:20:23Z</time>
      </trkpt>
      <trkpt lat="45.65866" lon="6.66809">
        <ele>2586.56</ele>
        <time>2018-02-07T11:20:41Z</time>
      </trkpt>
      <trkpt lat="45.65861" lon="6.66808">
        <ele>2588.01</ele>
        <time>2018-02-07T11:20:57Z</time>
      </trkpt>
      <trkpt lat="45.65863" lon="6.66801">
        <ele>2588.97</ele>
        <time>2018-02-07T11:21:13Z</time>
      </trkpt>
      <trkpt lat="45.65866" lon="6.66799">
        <ele>2590.41</ele>
        <time>2018-02-07T11:21:28Z</time>
      </trkpt>
      <trkpt lat="45.65861" lon="6.66803">
        <ele>2590.89</ele>
        <time>2018-02-07T11:21:47Z</time>
      </trkpt>
      <trkpt lat="45.65853" lon="6.66803">
        <ele>2592.81</ele>
        <time>2018-02-07T11:22:01Z</time>
      </trkpt>
      <trkpt lat="45.65854" lon="6.66797">
        <ele>2593.77</ele>
        <time>2018-02-07T11:22:16Z</time>
      </trkpt>
      <trkpt lat="45.65858" lon="6.66794">
        <ele>2593.77</ele>
        <time>2018-02-07T11:22:30Z</time>
      </trkpt>
      <trkpt lat="45.6586" lon="6.66789">
        <ele>2595.22</ele>
        <time>2018-02-07T11:22:41Z</time>
      </trkpt>
      <trkpt lat="45.65861" lon="6.66789">
        <ele>2595.7</ele>
        <time>2018-02-07T11:22:53Z</time>
      </trkpt>
      <trkpt lat="45.65858" lon="6.66791">
        <ele>2596.66</ele>
        <time>2018-02-07T11:23:12Z</time>
      </trkpt>
      <trkpt lat="45.65852" lon="6.66791">
        <ele>2598.1</ele>
        <time>2018-02-07T11:23:26Z</time>
      </trkpt>
      <trkpt lat="45.65852" lon="6.66786">
        <ele>2599.06</ele>
        <time>2018-02-07T11:23:41Z</time>
      </trkpt>
      <trkpt lat="45.65857" lon="6.66783">
        <ele>2600.02</ele>
        <time>2018-02-07T11:23:55Z</time>
      </trkpt>
      <trkpt lat="45.6586" lon="6.66777">
        <ele>2600.98</ele>
        <time>2018-02-07T11:24:09Z</time>
      </trkpt>
      <trkpt lat="45.65866" lon="6.66777">
        <ele>2602.43</ele>
        <time>2018-02-07T11:24:22Z</time>
      </trkpt>
      <trkpt lat="45.65869" lon="6.66773">
        <ele>2604.35</ele>
        <time>2018-02-07T11:24:34Z</time>
      </trkpt>
      <trkpt lat="45.65867" lon="6.66773">
        <ele>2604.35</ele>
        <time>2018-02-07T11:24:47Z</time>
      </trkpt>
      <trkpt lat="45.65866" lon="6.66773">
        <ele>2604.83</ele>
        <time>2018-02-07T11:25:03Z</time>
      </trkpt>
      <trkpt lat="45.65862" lon="6.66772">
        <ele>2605.79</ele>
        <time>2018-02-07T11:25:16Z</time>
      </trkpt>
      <trkpt lat="45.65858" lon="6.66771">
        <ele>2606.75</ele>
        <time>2018-02-07T11:25:34Z</time>
      </trkpt>
      <trkpt lat="45.65861" lon="6.66766">
        <ele>2607.71</ele>
        <time>2018-02-07T11:25:51Z</time>
      </trkpt>
      <trkpt lat="45.65867" lon="6.66765">
        <ele>2608.67</ele>
        <time>2018-02-07T11:26:04Z</time>
      </trkpt>
      <trkpt lat="45.65869" lon="6.66761">
        <ele>2609.64</ele>
        <time>2018-02-07T11:26:23Z</time>
      </trkpt>
      <trkpt lat="45.65874" lon="6.66759">
        <ele>2611.08</ele>
        <time>2018-02-07T11:26:35Z</time>
      </trkpt>
      <trkpt lat="45.65874" lon="6.66759">
        <ele>2612.04</ele>
        <time>2018-02-07T11:26:50Z</time>
      </trkpt>
      <trkpt lat="45.6587" lon="6.66759">
        <ele>2612.04</ele>
        <time>2018-02-07T11:27:12Z</time>
      </trkpt>
      <trkpt lat="45.65867" lon="6.66755">
        <ele>2613</ele>
        <time>2018-02-07T11:27:25Z</time>
      </trkpt>
      <trkpt lat="45.65871" lon="6.66757">
        <ele>2613.48</ele>
        <time>2018-02-07T11:27:45Z</time>
      </trkpt>
      <trkpt lat="45.65873" lon="6.66751">
        <ele>2614.92</ele>
        <time>2018-02-07T11:27:59Z</time>
      </trkpt>
      <trkpt lat="45.65876" lon="6.66748">
        <ele>2615.88</ele>
        <time>2018-02-07T11:28:21Z</time>
      </trkpt>
      <trkpt lat="45.65878" lon="6.66744">
        <ele>2617.33</ele>
        <time>2018-02-07T11:28:32Z</time>
      </trkpt>
      <trkpt lat="45.65878" lon="6.66741">
        <ele>2618.29</ele>
        <time>2018-02-07T11:28:47Z</time>
      </trkpt>
      <trkpt lat="45.65875" lon="6.66744">
        <ele>2619.25</ele>
        <time>2018-02-07T11:29:06Z</time>
      </trkpt>
      <trkpt lat="45.65874" lon="6.66741">
        <ele>2620.21</ele>
        <time>2018-02-07T11:29:20Z</time>
      </trkpt>
      <trkpt lat="45.65876" lon="6.66737">
        <ele>2620.69</ele>
        <time>2018-02-07T11:29:37Z</time>
      </trkpt>
      <trkpt lat="45.6588" lon="6.66735">
        <ele>2622.13</ele>
        <time>2018-02-07T11:29:49Z</time>
      </trkpt>
      <trkpt lat="45.65884" lon="6.66732">
        <ele>2623.58</ele>
        <time>2018-02-07T11:30:03Z</time>
      </trkpt>
      <trkpt lat="45.65881" lon="6.66732">
        <ele>2624.06</ele>
        <time>2018-02-07T11:30:24Z</time>
      </trkpt>
      <trkpt lat="45.65877" lon="6.66732">
        <ele>2625.5</ele>
        <time>2018-02-07T11:30:35Z</time>
      </trkpt>
      <trkpt lat="45.65872" lon="6.66734">
        <ele>2626.46</ele>
        <time>2018-02-07T11:30:48Z</time>
      </trkpt>
      <trkpt lat="45.65867" lon="6.66734">
        <ele>2628.38</ele>
        <time>2018-02-07T11:31:00Z</time>
      </trkpt>
      <trkpt lat="45.65867" lon="6.6673">
        <ele>2628.86</ele>
        <time>2018-02-07T11:31:17Z</time>
      </trkpt>
      <trkpt lat="45.65869" lon="6.66723">
        <ele>2629.82</ele>
        <time>2018-02-07T11:31:34Z</time>
      </trkpt>
      <trkpt lat="45.65873" lon="6.66722">
        <ele>2630.79</ele>
        <time>2018-02-07T11:31:48Z</time>
      </trkpt>
      <trkpt lat="45.65873" lon="6.66721">
        <ele>2631.27</ele>
        <time>2018-02-07T11:32:01Z</time>
      </trkpt>
      <trkpt lat="45.6587" lon="6.66724">
        <ele>2631.75</ele>
        <time>2018-02-07T11:32:19Z</time>
      </trkpt>
      <trkpt lat="45.65863" lon="6.66725">
        <ele>2633.67</ele>
        <time>2018-02-07T11:32:32Z</time>
      </trkpt>
      <trkpt lat="45.65855" lon="6.66724">
        <ele>2635.59</ele>
        <time>2018-02-07T11:32:48Z</time>
      </trkpt>
      <trkpt lat="45.65857" lon="6.6672">
        <ele>2636.07</ele>
        <time>2018-02-07T11:33:03Z</time>
      </trkpt>
      <trkpt lat="45.65858" lon="6.66719">
        <ele>2635.59</ele>
        <time>2018-02-07T11:33:34Z</time>
      </trkpt>
      <trkpt lat="45.6586" lon="6.66718">
        <ele>2636.07</ele>
        <time>2018-02-07T11:34:03Z</time>
      </trkpt>
      <trkpt lat="45.65858" lon="6.66716">
        <ele>2636.55</ele>
        <time>2018-02-07T11:34:25Z</time>
      </trkpt>
      <trkpt lat="45.65857" lon="6.66715">
        <ele>2636.07</ele>
        <time>2018-02-07T11:34:49Z</time>
      </trkpt>
      <trkpt lat="45.65857" lon="6.66718">
        <ele>2636.55</ele>
        <time>2018-02-07T11:35:13Z</time>
      </trkpt>
      <trkpt lat="45.65857" lon="6.66717">
        <ele>2636.07</ele>
        <time>2018-02-07T11:35:37Z</time>
      </trkpt>
      <trkpt lat="45.65857" lon="6.66717">
        <ele>2637.03</ele>
        <time>2018-02-07T11:36:03Z</time>
      </trkpt>
      <trkpt lat="45.65858" lon="6.66717">
        <ele>2636.55</ele>
        <time>2018-02-07T11:36:40Z</time>
      </trkpt>
      <trkpt lat="45.65861" lon="6.66711">
        <ele>2637.99</ele>
        <time>2018-02-07T11:36:54Z</time>
      </trkpt>
      <trkpt lat="45.65863" lon="6.66709">
        <ele>2638.48</ele>
        <time>2018-02-07T11:37:09Z</time>
      </trkpt>
      <trkpt lat="45.65865" lon="6.66708">
        <ele>2638.96</ele>
        <time>2018-02-07T11:37:31Z</time>
      </trkpt>
      <trkpt lat="45.65863" lon="6.6671">
        <ele>2639.44</ele>
        <time>2018-02-07T11:37:48Z</time>
      </trkpt>
      <trkpt lat="45.65862" lon="6.66712">
        <ele>2639.92</ele>
        <time>2018-02-07T11:38:04Z</time>
      </trkpt>
      <trkpt lat="45.65859" lon="6.66713">
        <ele>2640.4</ele>
        <time>2018-02-07T11:38:24Z</time>
      </trkpt>
      <trkpt lat="45.65854" lon="6.66712">
        <ele>2641.36</ele>
        <time>2018-02-07T11:38:48Z</time>
      </trkpt>
      <trkpt lat="45.65848" lon="6.6671">
        <ele>2643.28</ele>
        <time>2018-02-07T11:39:02Z</time>
      </trkpt>
      <trkpt lat="45.65849" lon="6.66708">
        <ele>2643.76</ele>
        <time>2018-02-07T11:39:18Z</time>
      </trkpt>
      <trkpt lat="45.65851" lon="6.66706">
        <ele>2643.76</ele>
        <time>2018-02-07T11:39:50Z</time>
      </trkpt>
      <trkpt lat="45.65854" lon="6.66704">
        <ele>2645.69</ele>
        <time>2018-02-07T11:40:06Z</time>
      </trkpt>
      <trkpt lat="45.65855" lon="6.66703">
        <ele>2645.69</ele>
        <time>2018-02-07T11:40:32Z</time>
      </trkpt>
      <trkpt lat="45.65856" lon="6.66702">
        <ele>2646.65</ele>
        <time>2018-02-07T11:40:47Z</time>
      </trkpt>
      <trkpt lat="45.65855" lon="6.66698">
        <ele>2647.13</ele>
        <time>2018-02-07T11:41:00Z</time>
      </trkpt>
      <trkpt lat="45.65854" lon="6.66701">
        <ele>2647.61</ele>
        <time>2018-02-07T11:41:20Z</time>
      </trkpt>
      <trkpt lat="45.65849" lon="6.66699">
        <ele>2648.09</ele>
        <time>2018-02-07T11:41:33Z</time>
      </trkpt>
      <trkpt lat="45.65847" lon="6.66699">
        <ele>2649.05</ele>
        <time>2018-02-07T11:41:52Z</time>
      </trkpt>
      <trkpt lat="45.65844" lon="6.66696">
        <ele>2650.01</ele>
        <time>2018-02-07T11:42:06Z</time>
      </trkpt>
      <trkpt lat="45.65848" lon="6.66694">
        <ele>2650.97</ele>
        <time>2018-02-07T11:42:29Z</time>
      </trkpt>
      <trkpt lat="45.65848" lon="6.66691">
        <ele>2652.42</ele>
        <time>2018-02-07T11:42:43Z</time>
      </trkpt>
      <trkpt lat="45.65853" lon="6.66691">
        <ele>2652.9</ele>
        <time>2018-02-07T11:43:03Z</time>
      </trkpt>
      <trkpt lat="45.65854" lon="6.66687">
        <ele>2653.38</ele>
        <time>2018-02-07T11:43:17Z</time>
      </trkpt>
      <trkpt lat="45.65852" lon="6.66688">
        <ele>2653.86</ele>
        <time>2018-02-07T11:43:32Z</time>
      </trkpt>
      <trkpt lat="45.65845" lon="6.66688">
        <ele>2655.78</ele>
        <time>2018-02-07T11:43:46Z</time>
      </trkpt>
      <trkpt lat="45.65843" lon="6.66683">
        <ele>2656.74</ele>
        <time>2018-02-07T11:44:04Z</time>
      </trkpt>
      <trkpt lat="45.65845" lon="6.66685">
        <ele>2656.74</ele>
        <time>2018-02-07T11:44:30Z</time>
      </trkpt>
      <trkpt lat="45.65849" lon="6.6668">
        <ele>2658.66</ele>
        <time>2018-02-07T11:44:45Z</time>
      </trkpt>
      <trkpt lat="45.65849" lon="6.66678">
        <ele>2659.14</ele>
        <time>2018-02-07T11:44:58Z</time>
      </trkpt>
      <trkpt lat="45.65844" lon="6.6668">
        <ele>2659.62</ele>
        <time>2018-02-07T11:45:18Z</time>
      </trkpt>
      <trkpt lat="45.6584" lon="6.6668">
        <ele>2661.07</ele>
        <time>2018-02-07T11:45:35Z</time>
      </trkpt>
      <trkpt lat="45.6584" lon="6.66677">
        <ele>2661.55</ele>
        <time>2018-02-07T11:45:47Z</time>
      </trkpt>
      <trkpt lat="45.65843" lon="6.66675">
        <ele>2662.99</ele>
        <time>2018-02-07T11:46:13Z</time>
      </trkpt>
      <trkpt lat="45.65849" lon="6.66669">
        <ele>2664.43</ele>
        <time>2018-02-07T11:46:28Z</time>
      </trkpt>
      <trkpt lat="45.65853" lon="6.66669">
        <ele>2664.91</ele>
        <time>2018-02-07T11:46:46Z</time>
      </trkpt>
      <trkpt lat="45.65856" lon="6.66662">
        <ele>2666.83</ele>
        <time>2018-02-07T11:47:04Z</time>
      </trkpt>
      <trkpt lat="45.65861" lon="6.66657">
        <ele>2668.76</ele>
        <time>2018-02-07T11:47:17Z</time>
      </trkpt>
      <trkpt lat="45.65864" lon="6.66651">
        <ele>2670.2</ele>
        <time>2018-02-07T11:47:37Z</time>
      </trkpt>
      <trkpt lat="45.65868" lon="6.6665">
        <ele>2671.64</ele>
        <time>2018-02-07T11:47:52Z</time>
      </trkpt>
      <trkpt lat="45.65873" lon="6.66645">
        <ele>2673.56</ele>
        <time>2018-02-07T11:48:07Z</time>
      </trkpt>
      <trkpt lat="45.65878" lon="6.66641">
        <ele>2674.52</ele>
        <time>2018-02-07T11:48:21Z</time>
      </trkpt>
      <trkpt lat="45.6588" lon="6.66637">
        <ele>2675.01</ele>
        <time>2018-02-07T11:48:38Z</time>
      </trkpt>
      <trkpt lat="45.6589" lon="6.66627">
        <ele>2677.41</ele>
        <time>2018-02-07T11:48:59Z</time>
      </trkpt>
      <trkpt lat="45.65892" lon="6.66629">
        <ele>2677.89</ele>
        <time>2018-02-07T11:49:16Z</time>
      </trkpt>
      <trkpt lat="45.65901" lon="6.66624">
        <ele>2678.37</ele>
        <time>2018-02-07T11:49:32Z</time>
      </trkpt>
      <trkpt lat="45.65906" lon="6.66623">
        <ele>2679.33</ele>
        <time>2018-02-07T11:49:47Z</time>
      </trkpt>
      <trkpt lat="45.65906" lon="6.66623">
        <ele>2678.85</ele>
        <time>2018-02-07T11:50:03Z</time>
      </trkpt>
      <trkpt lat="45.65907" lon="6.66626">
        <ele>2678.85</ele>
        <time>2018-02-07T11:50:22Z</time>
      </trkpt>
      <trkpt lat="45.65906" lon="6.66623">
        <ele>2679.33</ele>
        <time>2018-02-07T11:50:44Z</time>
      </trkpt>
      <trkpt lat="45.65907" lon="6.66623">
        <ele>2678.85</ele>
        <time>2018-02-07T11:51:07Z</time>
      </trkpt>
      <trkpt lat="45.65907" lon="6.66625">
        <ele>2678.85</ele>
        <time>2018-02-07T11:51:34Z</time>
      </trkpt>
      <trkpt lat="45.65908" lon="6.6662">
        <ele>2680.77</ele>
        <time>2018-02-07T11:51:46Z</time>
      </trkpt>
      <trkpt lat="45.65912" lon="6.66621">
        <ele>2683.18</ele>
        <time>2018-02-07T11:52:00Z</time>
      </trkpt>
      <trkpt lat="45.65915" lon="6.66618">
        <ele>2685.1</ele>
        <time>2018-02-07T11:52:21Z</time>
      </trkpt>
      <trkpt lat="45.65919" lon="6.66613">
        <ele>2686.06</ele>
        <time>2018-02-07T11:52:40Z</time>
      </trkpt>
      <trkpt lat="45.65925" lon="6.66613">
        <ele>2686.54</ele>
        <time>2018-02-07T11:52:52Z</time>
      </trkpt>
      <trkpt lat="45.65931" lon="6.66616">
        <ele>2684.62</ele>
        <time>2018-02-07T11:53:09Z</time>
      </trkpt>
      <trkpt lat="45.65936" lon="6.66618">
        <ele>2683.66</ele>
        <time>2018-02-07T11:53:23Z</time>
      </trkpt>
      <trkpt lat="45.65938" lon="6.6662">
        <ele>2683.66</ele>
        <time>2018-02-07T11:53:39Z</time>
      </trkpt>
      <trkpt lat="45.65941" lon="6.66619">
        <ele>2683.66</ele>
        <time>2018-02-07T11:53:54Z</time>
      </trkpt>
      <trkpt lat="45.65945" lon="6.66617">
        <ele>2684.62</ele>
        <time>2018-02-07T11:54:12Z</time>
      </trkpt>
      <trkpt lat="45.6595" lon="6.66616">
        <ele>2684.62</ele>
        <time>2018-02-07T11:54:31Z</time>
      </trkpt>
      <trkpt lat="45.6595" lon="6.66616">
        <ele>2684.62</ele>
        <time>2018-02-07T11:54:55Z</time>
      </trkpt>
      <trkpt lat="45.65952" lon="6.66616">
        <ele>2684.14</ele>
        <time>2018-02-07T11:55:16Z</time>
      </trkpt>
      <trkpt lat="45.65955" lon="6.66618">
        <ele>2684.62</ele>
        <time>2018-02-07T11:55:37Z</time>
      </trkpt>
      <trkpt lat="45.65953" lon="6.66619">
        <ele>2684.62</ele>
        <time>2018-02-07T11:55:57Z</time>
      </trkpt>
      <trkpt lat="45.65952" lon="6.66618">
        <ele>2684.14</ele>
        <time>2018-02-07T11:56:16Z</time>
      </trkpt>
      <trkpt lat="45.65955" lon="6.66618">
        <ele>2685.1</ele>
        <time>2018-02-07T11:56:26Z</time>
      </trkpt>
      <trkpt lat="45.65962" lon="6.6662">
        <ele>2686.06</ele>
        <time>2018-02-07T11:56:40Z</time>
      </trkpt>
      <trkpt lat="45.6597" lon="6.66623">
        <ele>2685.58</ele>
        <time>2018-02-07T11:56:53Z</time>
      </trkpt>
      <trkpt lat="45.65979" lon="6.66626">
        <ele>2685.58</ele>
        <time>2018-02-07T11:57:05Z</time>
      </trkpt>
      <trkpt lat="45.65986" lon="6.66629">
        <ele>2686.06</ele>
        <time>2018-02-07T11:57:17Z</time>
      </trkpt>
      <trkpt lat="45.65995" lon="6.66628">
        <ele>2685.1</ele>
        <time>2018-02-07T11:57:34Z</time>
      </trkpt>
      <trkpt lat="45.66003" lon="6.66627">
        <ele>2683.66</ele>
        <time>2018-02-07T11:57:45Z</time>
      </trkpt>
      <trkpt lat="45.6601" lon="6.6663">
        <ele>2681.25</ele>
        <time>2018-02-07T11:57:52Z</time>
      </trkpt>
      <trkpt lat="45.66015" lon="6.6663">
        <ele>2680.77</ele>
        <time>2018-02-07T11:58:02Z</time>
      </trkpt>
      <trkpt lat="45.66023" lon="6.66633">
        <ele>2678.37</ele>
        <time>2018-02-07T11:58:14Z</time>
      </trkpt>
      <trkpt lat="45.66033" lon="6.66637">
        <ele>2677.89</ele>
        <time>2018-02-07T11:58:27Z</time>
      </trkpt>
      <trkpt lat="45.66038" lon="6.66635">
        <ele>2677.89</ele>
        <time>2018-02-07T11:58:33Z</time>
      </trkpt>
      <trkpt lat="45.66045" lon="6.66631">
        <ele>2676.45</ele>
        <time>2018-02-07T11:58:50Z</time>
      </trkpt>
      <trkpt lat="45.66046" lon="6.66629">
        <ele>2675.97</ele>
        <time>2018-02-07T11:59:10Z</time>
      </trkpt>
      <trkpt lat="45.66047" lon="6.66632">
        <ele>2675.01</ele>
        <time>2018-02-07T11:59:26Z</time>
      </trkpt>
      <trkpt lat="45.66047" lon="6.66629">
        <ele>2675.01</ele>
        <time>2018-02-07T11:59:44Z</time>
      </trkpt>
      <trkpt lat="45.66047" lon="6.66627">
        <ele>2674.52</ele>
        <time>2018-02-07T12:00:08Z</time>
      </trkpt>
      <trkpt lat="45.6605" lon="6.66625">
        <ele>2675.01</ele>
        <time>2018-02-07T12:00:53Z</time>
      </trkpt>
      <trkpt lat="45.66046" lon="6.66636">
        <ele>2675.49</ele>
        <time>2018-02-07T12:01:16Z</time>
      </trkpt>
      <trkpt lat="45.66043" lon="6.66639">
        <ele>2675.01</ele>
        <time>2018-02-07T12:01:47Z</time>
      </trkpt>
      <trkpt lat="45.66044" lon="6.66634">
        <ele>2674.52</ele>
        <time>2018-02-07T12:02:21Z</time>
      </trkpt>
      <trkpt lat="45.66048" lon="6.6663">
        <ele>2675.01</ele>
        <time>2018-02-07T12:02:51Z</time>
      </trkpt>
      <trkpt lat="45.6605" lon="6.66629">
        <ele>2675.01</ele>
        <time>2018-02-07T12:03:11Z</time>
      </trkpt>
      <trkpt lat="45.6605" lon="6.66634">
        <ele>2675.49</ele>
        <time>2018-02-07T12:03:37Z</time>
      </trkpt>
      <trkpt lat="45.66047" lon="6.66633">
        <ele>2675.01</ele>
        <time>2018-02-07T12:04:06Z</time>
      </trkpt>
      <trkpt lat="45.66047" lon="6.66638">
        <ele>2675.49</ele>
        <time>2018-02-07T12:04:28Z</time>
      </trkpt>
      <trkpt lat="45.66045" lon="6.66635">
        <ele>2675.01</ele>
        <time>2018-02-07T12:04:45Z</time>
      </trkpt>
      <trkpt lat="45.66042" lon="6.66634">
        <ele>2675.49</ele>
        <time>2018-02-07T12:05:10Z</time>
      </trkpt>
      <trkpt lat="45.66043" lon="6.66633">
        <ele>2675.97</ele>
        <time>2018-02-07T12:05:40Z</time>
      </trkpt>
      <trkpt lat="45.66047" lon="6.66629">
        <ele>2675.49</ele>
        <time>2018-02-07T12:05:59Z</time>
      </trkpt>
      <trkpt lat="45.66048" lon="6.66632">
        <ele>2675.49</ele>
        <time>2018-02-07T12:06:24Z</time>
      </trkpt>
      <trkpt lat="45.66049" lon="6.66633">
        <ele>2675.49</ele>
        <time>2018-02-07T12:06:41Z</time>
      </trkpt>
      <trkpt lat="45.66047" lon="6.66636">
        <ele>2675.49</ele>
        <time>2018-02-07T12:07:03Z</time>
      </trkpt>
      <trkpt lat="45.66046" lon="6.66638">
        <ele>2675.49</ele>
        <time>2018-02-07T12:07:34Z</time>
      </trkpt>
      <trkpt lat="45.66048" lon="6.66641">
        <ele>2675.97</ele>
        <time>2018-02-07T12:08:06Z</time>
      </trkpt>
      <trkpt lat="45.66046" lon="6.66643">
        <ele>2675.97</ele>
        <time>2018-02-07T12:08:29Z</time>
      </trkpt>
      <trkpt lat="45.66046" lon="6.6664">
        <ele>2675.97</ele>
        <time>2018-02-07T12:08:58Z</time>
      </trkpt>
      <trkpt lat="45.6605" lon="6.66634">
        <ele>2675.97</ele>
        <time>2018-02-07T12:09:23Z</time>
      </trkpt>
      <trkpt lat="45.66049" lon="6.66635">
        <ele>2675.97</ele>
        <time>2018-02-07T12:09:47Z</time>
      </trkpt>
      <trkpt lat="45.66047" lon="6.66637">
        <ele>2675.97</ele>
        <time>2018-02-07T12:10:09Z</time>
      </trkpt>
      <trkpt lat="45.66047" lon="6.66635">
        <ele>2675.97</ele>
        <time>2018-02-07T12:10:31Z</time>
      </trkpt>
      <trkpt lat="45.66043" lon="6.66637">
        <ele>2675.97</ele>
        <time>2018-02-07T12:11:00Z</time>
      </trkpt>
      <trkpt lat="45.66042" lon="6.66641">
        <ele>2675.97</ele>
        <time>2018-02-07T12:11:29Z</time>
      </trkpt>
      <trkpt lat="45.6604" lon="6.6664">
        <ele>2676.45</ele>
        <time>2018-02-07T12:11:58Z</time>
      </trkpt>
      <trkpt lat="45.66041" lon="6.66639">
        <ele>2675.97</ele>
        <time>2018-02-07T12:12:26Z</time>
      </trkpt>
      <trkpt lat="45.66043" lon="6.66637">
        <ele>2676.45</ele>
        <time>2018-02-07T12:12:50Z</time>
      </trkpt>
      <trkpt lat="45.66049" lon="6.66633">
        <ele>2676.45</ele>
        <time>2018-02-07T12:13:24Z</time>
      </trkpt>
      <trkpt lat="45.6605" lon="6.66633">
        <ele>2676.45</ele>
        <time>2018-02-07T12:13:51Z</time>
      </trkpt>
      <trkpt lat="45.66051" lon="6.66638">
        <ele>2676.93</ele>
        <time>2018-02-07T12:14:26Z</time>
      </trkpt>
      <trkpt lat="45.66048" lon="6.6664">
        <ele>2676.93</ele>
        <time>2018-02-07T12:14:54Z</time>
      </trkpt>
      <trkpt lat="45.6605" lon="6.66637">
        <ele>2676.93</ele>
        <time>2018-02-07T12:15:17Z</time>
      </trkpt>
      <trkpt lat="45.66049" lon="6.66637">
        <ele>2677.41</ele>
        <time>2018-02-07T12:15:45Z</time>
      </trkpt>
      <trkpt lat="45.66047" lon="6.66634">
        <ele>2676.93</ele>
        <time>2018-02-07T12:16:19Z</time>
      </trkpt>
      <trkpt lat="45.66048" lon="6.66637">
        <ele>2677.41</ele>
        <time>2018-02-07T12:16:47Z</time>
      </trkpt>
      <trkpt lat="45.66048" lon="6.66642">
        <ele>2677.41</ele>
        <time>2018-02-07T12:17:12Z</time>
      </trkpt>
      <trkpt lat="45.66045" lon="6.66636">
        <ele>2677.89</ele>
        <time>2018-02-07T12:17:40Z</time>
      </trkpt>
      <trkpt lat="45.66049" lon="6.6663">
        <ele>2678.37</ele>
        <time>2018-02-07T12:18:09Z</time>
      </trkpt>
      <trkpt lat="45.66048" lon="6.66632">
        <ele>2678.37</ele>
        <time>2018-02-07T12:18:32Z</time>
      </trkpt>
      <trkpt lat="45.66047" lon="6.66633">
        <ele>2678.37</ele>
        <time>2018-02-07T12:19:00Z</time>
      </trkpt>
      <trkpt lat="45.6605" lon="6.6663">
        <ele>2679.33</ele>
        <time>2018-02-07T12:19:26Z</time>
      </trkpt>
      <trkpt lat="45.6605" lon="6.66634">
        <ele>2679.81</ele>
        <time>2018-02-07T12:19:57Z</time>
      </trkpt>
      <trkpt lat="45.66049" lon="6.66636">
        <ele>2680.29</ele>
        <time>2018-02-07T12:20:16Z</time>
      </trkpt>
      <trkpt lat="45.66048" lon="6.66634">
        <ele>2680.77</ele>
        <time>2018-02-07T12:20:34Z</time>
      </trkpt>
      <trkpt lat="45.66053" lon="6.66637">
        <ele>2680.77</ele>
        <time>2018-02-07T12:21:14Z</time>
      </trkpt>
      <trkpt lat="45.66054" lon="6.66635">
        <ele>2681.25</ele>
        <time>2018-02-07T12:21:40Z</time>
      </trkpt>
      <trkpt lat="45.6605" lon="6.66636">
        <ele>2681.25</ele>
        <time>2018-02-07T12:22:02Z</time>
      </trkpt>
      <trkpt lat="45.66052" lon="6.6663">
        <ele>2682.22</ele>
        <time>2018-02-07T12:22:27Z</time>
      </trkpt>
      <trkpt lat="45.66054" lon="6.66628">
        <ele>2681.73</ele>
        <time>2018-02-07T12:22:50Z</time>
      </trkpt>
      <trkpt lat="45.66054" lon="6.66626">
        <ele>2682.22</ele>
        <time>2018-02-07T12:23:16Z</time>
      </trkpt>
      <trkpt lat="45.6605" lon="6.66627">
        <ele>2682.7</ele>
        <time>2018-02-07T12:23:42Z</time>
      </trkpt>
      <trkpt lat="45.66054" lon="6.66626">
        <ele>2682.7</ele>
        <time>2018-02-07T12:24:17Z</time>
      </trkpt>
      <trkpt lat="45.66051" lon="6.66632">
        <ele>2683.18</ele>
        <time>2018-02-07T12:24:44Z</time>
      </trkpt>
      <trkpt lat="45.66051" lon="6.66635">
        <ele>2683.66</ele>
        <time>2018-02-07T12:25:09Z</time>
      </trkpt>
      <trkpt lat="45.66051" lon="6.66636">
        <ele>2684.62</ele>
        <time>2018-02-07T12:25:39Z</time>
      </trkpt>
      <trkpt lat="45.66056" lon="6.66638">
        <ele>2684.62</ele>
        <time>2018-02-07T12:26:18Z</time>
      </trkpt>
      <trkpt lat="45.66056" lon="6.6664">
        <ele>2684.62</ele>
        <time>2018-02-07T12:26:47Z</time>
      </trkpt>
      <trkpt lat="45.66053" lon="6.6664">
        <ele>2685.58</ele>
        <time>2018-02-07T12:27:13Z</time>
      </trkpt>
      <trkpt lat="45.66053" lon="6.66635">
        <ele>2685.58</ele>
        <time>2018-02-07T12:27:36Z</time>
      </trkpt>
      <trkpt lat="45.66054" lon="6.66632">
        <ele>2685.58</ele>
        <time>2018-02-07T12:28:00Z</time>
      </trkpt>
      <trkpt lat="45.66046" lon="6.66634">
        <ele>2686.06</ele>
        <time>2018-02-07T12:28:29Z</time>
      </trkpt>
      <trkpt lat="45.66043" lon="6.66636">
        <ele>2686.06</ele>
        <time>2018-02-07T12:28:59Z</time>
      </trkpt>
      <trkpt lat="45.66046" lon="6.66634">
        <ele>2686.06</ele>
        <time>2018-02-07T12:29:21Z</time>
      </trkpt>
      <trkpt lat="45.66048" lon="6.66635">
        <ele>2686.54</ele>
        <time>2018-02-07T12:29:51Z</time>
      </trkpt>
      <trkpt lat="45.66047" lon="6.66634">
        <ele>2686.06</ele>
        <time>2018-02-07T12:30:09Z</time>
      </trkpt>
      <trkpt lat="45.66047" lon="6.66634">
        <ele>2687.02</ele>
        <time>2018-02-07T12:30:31Z</time>
      </trkpt>
      <trkpt lat="45.66051" lon="6.66636">
        <ele>2686.54</ele>
        <time>2018-02-07T12:31:05Z</time>
      </trkpt>
      <trkpt lat="45.66048" lon="6.66638">
        <ele>2686.06</ele>
        <time>2018-02-07T12:31:30Z</time>
      </trkpt>
      <trkpt lat="45.66049" lon="6.66628">
        <ele>2686.06</ele>
        <time>2018-02-07T12:31:54Z</time>
      </trkpt>
      <trkpt lat="45.66049" lon="6.66629">
        <ele>2686.06</ele>
        <time>2018-02-07T12:32:29Z</time>
      </trkpt>
      <trkpt lat="45.66045" lon="6.6663">
        <ele>2685.58</ele>
        <time>2018-02-07T12:32:55Z</time>
      </trkpt>
      <trkpt lat="45.66049" lon="6.66625">
        <ele>2685.58</ele>
        <time>2018-02-07T12:33:27Z</time>
      </trkpt>
      <trkpt lat="45.66049" lon="6.66625">
        <ele>2685.1</ele>
        <time>2018-02-07T12:33:47Z</time>
      </trkpt>
      <trkpt lat="45.66048" lon="6.66626">
        <ele>2684.62</ele>
        <time>2018-02-07T12:34:23Z</time>
      </trkpt>
      <trkpt lat="45.66048" lon="6.6663">
        <ele>2684.14</ele>
        <time>2018-02-07T12:34:55Z</time>
      </trkpt>
      <trkpt lat="45.66048" lon="6.66629">
        <ele>2684.14</ele>
        <time>2018-02-07T12:35:28Z</time>
      </trkpt>
      <trkpt lat="45.66046" lon="6.66628">
        <ele>2684.14</ele>
        <time>2018-02-07T12:36:03Z</time>
      </trkpt>
      <trkpt lat="45.66047" lon="6.66629">
        <ele>2683.66</ele>
        <time>2018-02-07T12:36:33Z</time>
      </trkpt>
      <trkpt lat="45.66047" lon="6.6663">
        <ele>2683.18</ele>
        <time>2018-02-07T12:37:11Z</time>
      </trkpt>
      <trkpt lat="45.66045" lon="6.66631">
        <ele>2683.66</ele>
        <time>2018-02-07T12:37:27Z</time>
      </trkpt>
      <trkpt lat="45.66046" lon="6.66628">
        <ele>2683.18</ele>
        <time>2018-02-07T12:38:06Z</time>
      </trkpt>
      <trkpt lat="45.66045" lon="6.66629">
        <ele>2682.22</ele>
        <time>2018-02-07T12:38:35Z</time>
      </trkpt>
      <trkpt lat="45.66046" lon="6.66632">
        <ele>2682.22</ele>
        <time>2018-02-07T12:39:10Z</time>
      </trkpt>
      <trkpt lat="45.66045" lon="6.66631">
        <ele>2681.73</ele>
        <time>2018-02-07T12:39:52Z</time>
      </trkpt>
      <trkpt lat="45.66048" lon="6.66627">
        <ele>2682.7</ele>
        <time>2018-02-07T12:40:17Z</time>
      </trkpt>
      <trkpt lat="45.66047" lon="6.66629">
        <ele>2682.22</ele>
        <time>2018-02-07T12:40:37Z</time>
      </trkpt>
      <trkpt lat="45.66048" lon="6.66625">
        <ele>2682.22</ele>
        <time>2018-02-07T12:40:56Z</time>
      </trkpt>
      <trkpt lat="45.66049" lon="6.66625">
        <ele>2681.73</ele>
        <time>2018-02-07T12:41:17Z</time>
      </trkpt>
      <trkpt lat="45.66059" lon="6.66616">
        <ele>2679.33</ele>
        <time>2018-02-07T12:41:35Z</time>
      </trkpt>
      <trkpt lat="45.66066" lon="6.66612">
        <ele>2677.89</ele>
        <time>2018-02-07T12:41:53Z</time>
      </trkpt>
      <trkpt lat="45.66071" lon="6.66605">
        <ele>2676.45</ele>
        <time>2018-02-07T12:42:03Z</time>
      </trkpt>
      <trkpt lat="45.66075" lon="6.66597">
        <ele>2674.04</ele>
        <time>2018-02-07T12:42:16Z</time>
      </trkpt>
      <trkpt lat="45.66078" lon="6.66591">
        <ele>2671.16</ele>
        <time>2018-02-07T12:42:23Z</time>
      </trkpt>
      <trkpt lat="45.66075" lon="6.66592">
        <ele>2668.76</ele>
        <time>2018-02-07T12:42:25Z</time>
      </trkpt>
      <trkpt lat="45.66068" lon="6.6659">
        <ele>2666.35</ele>
        <time>2018-02-07T12:42:33Z</time>
      </trkpt>
      <trkpt lat="45.66072" lon="6.66579">
        <ele>2662.51</ele>
        <time>2018-02-07T12:42:37Z</time>
      </trkpt>
      <trkpt lat="45.66072" lon="6.66578">
        <ele>2662.99</ele>
        <time>2018-02-07T12:42:38Z</time>
      </trkpt>
      <trkpt lat="45.6607" lon="6.66576">
        <ele>2663.47</ele>
        <time>2018-02-07T12:42:50Z</time>
      </trkpt>
      <trkpt lat="45.66065" lon="6.66573">
        <ele>2658.66</ele>
        <time>2018-02-07T12:42:54Z</time>
      </trkpt>
      <trkpt lat="45.66064" lon="6.66573">
        <ele>2658.66</ele>
        <time>2018-02-07T12:42:55Z</time>
      </trkpt>
      <trkpt lat="45.66066" lon="6.66562">
        <ele>2653.86</ele>
        <time>2018-02-07T12:42:59Z</time>
      </trkpt>
      <trkpt lat="45.66057" lon="6.66561">
        <ele>2650.01</ele>
        <time>2018-02-07T12:43:03Z</time>
      </trkpt>
      <trkpt lat="45.66055" lon="6.66561">
        <ele>2649.05</ele>
        <time>2018-02-07T12:43:16Z</time>
      </trkpt>
      <trkpt lat="45.66046" lon="6.66559">
        <ele>2646.17</ele>
        <time>2018-02-07T12:43:25Z</time>
      </trkpt>
      <trkpt lat="45.66038" lon="6.66553">
        <ele>2643.28</ele>
        <time>2018-02-07T12:43:38Z</time>
      </trkpt>
      <trkpt lat="45.66038" lon="6.66554">
        <ele>2642.32</ele>
        <time>2018-02-07T12:43:40Z</time>
      </trkpt>
      <trkpt lat="45.66038" lon="6.66554">
        <ele>2642.32</ele>
        <time>2018-02-07T12:43:44Z</time>
      </trkpt>
      <trkpt lat="45.6603" lon="6.66548">
        <ele>2638.96</ele>
        <time>2018-02-07T12:43:49Z</time>
      </trkpt>
      <trkpt lat="45.66033" lon="6.66542">
        <ele>2634.63</ele>
        <time>2018-02-07T12:43:52Z</time>
      </trkpt>
      <trkpt lat="45.66028" lon="6.66532">
        <ele>2629.34</ele>
        <time>2018-02-07T12:43:56Z</time>
      </trkpt>
      <trkpt lat="45.66026" lon="6.66532">
        <ele>2629.34</ele>
        <time>2018-02-07T12:43:57Z</time>
      </trkpt>
      <trkpt lat="45.66024" lon="6.66521">
        <ele>2625.02</ele>
        <time>2018-02-07T12:44:00Z</time>
      </trkpt>
      <trkpt lat="45.66025" lon="6.66516">
        <ele>2621.17</ele>
        <time>2018-02-07T12:44:02Z</time>
      </trkpt>
      <trkpt lat="45.66019" lon="6.66514">
        <ele>2617.81</ele>
        <time>2018-02-07T12:44:04Z</time>
      </trkpt>
      <trkpt lat="45.66016" lon="6.66516">
        <ele>2617.33</ele>
        <time>2018-02-07T12:44:13Z</time>
      </trkpt>
      <trkpt lat="45.66008" lon="6.66511">
        <ele>2614.44</ele>
        <time>2018-02-07T12:44:23Z</time>
      </trkpt>
      <trkpt lat="45.66001" lon="6.66507">
        <ele>2611.56</ele>
        <time>2018-02-07T12:44:29Z</time>
      </trkpt>
      <trkpt lat="45.66005" lon="6.66497">
        <ele>2607.71</ele>
        <time>2018-02-07T12:44:32Z</time>
      </trkpt>
      <trkpt lat="45.66005" lon="6.66495">
        <ele>2606.27</ele>
        <time>2018-02-07T12:44:33Z</time>
      </trkpt>
      <trkpt lat="45.65997" lon="6.66493">
        <ele>2602.43</ele>
        <time>2018-02-07T12:44:37Z</time>
      </trkpt>
      <trkpt lat="45.65997" lon="6.66493">
        <ele>2602.91</ele>
        <time>2018-02-07T12:44:45Z</time>
      </trkpt>
      <trkpt lat="45.65994" lon="6.6649">
        <ele>2601.46</ele>
        <time>2018-02-07T12:44:48Z</time>
      </trkpt>
      <trkpt lat="45.65996" lon="6.6648">
        <ele>2597.14</ele>
        <time>2018-02-07T12:44:51Z</time>
      </trkpt>
      <trkpt lat="45.65998" lon="6.66478">
        <ele>2595.7</ele>
        <time>2018-02-07T12:44:52Z</time>
      </trkpt>
      <trkpt lat="45.65996" lon="6.6647">
        <ele>2591.85</ele>
        <time>2018-02-07T12:44:55Z</time>
      </trkpt>
      <trkpt lat="45.65997" lon="6.66471">
        <ele>2589.93</ele>
        <time>2018-02-07T12:44:57Z</time>
      </trkpt>
      <trkpt lat="45.65991" lon="6.66468">
        <ele>2588.97</ele>
        <time>2018-02-07T12:45:12Z</time>
      </trkpt>
      <trkpt lat="45.65983" lon="6.66461">
        <ele>2585.12</ele>
        <time>2018-02-07T12:45:16Z</time>
      </trkpt>
      <trkpt lat="45.65982" lon="6.66459">
        <ele>2584.64</ele>
        <time>2018-02-07T12:45:17Z</time>
      </trkpt>
      <trkpt lat="45.65987" lon="6.66448">
        <ele>2579.35</ele>
        <time>2018-02-07T12:45:20Z</time>
      </trkpt>
      <trkpt lat="45.65989" lon="6.66442">
        <ele>2576.47</ele>
        <time>2018-02-07T12:45:22Z</time>
      </trkpt>
      <trkpt lat="45.65987" lon="6.66439">
        <ele>2575.99</ele>
        <time>2018-02-07T12:45:23Z</time>
      </trkpt>
      <trkpt lat="45.65977" lon="6.66433">
        <ele>2570.7</ele>
        <time>2018-02-07T12:45:29Z</time>
      </trkpt>
      <trkpt lat="45.65968" lon="6.66425">
        <ele>2568.3</ele>
        <time>2018-02-07T12:45:35Z</time>
      </trkpt>
      <trkpt lat="45.65973" lon="6.66413">
        <ele>2563.49</ele>
        <time>2018-02-07T12:45:38Z</time>
      </trkpt>
      <trkpt lat="45.65976" lon="6.66411">
        <ele>2562.05</ele>
        <time>2018-02-07T12:45:39Z</time>
      </trkpt>
      <trkpt lat="45.65978" lon="6.66417">
        <ele>2561.09</ele>
        <time>2018-02-07T12:45:49Z</time>
      </trkpt>
      <trkpt lat="45.65978" lon="6.66416">
        <ele>2561.57</ele>
        <time>2018-02-07T12:45:55Z</time>
      </trkpt>
      <trkpt lat="45.65984" lon="6.66413">
        <ele>2559.65</ele>
        <time>2018-02-07T12:45:58Z</time>
      </trkpt>
      <trkpt lat="45.65982" lon="6.66405">
        <ele>2555.32</ele>
        <time>2018-02-07T12:46:01Z</time>
      </trkpt>
      <trkpt lat="45.65972" lon="6.66397">
        <ele>2551.48</ele>
        <time>2018-02-07T12:46:05Z</time>
      </trkpt>
      <trkpt lat="45.65971" lon="6.66396">
        <ele>2551.48</ele>
        <time>2018-02-07T12:46:06Z</time>
      </trkpt>
      <trkpt lat="45.6597" lon="6.66394">
        <ele>2551</ele>
        <time>2018-02-07T12:46:07Z</time>
      </trkpt>
      <trkpt lat="45.65972" lon="6.66385">
        <ele>2546.67</ele>
        <time>2018-02-07T12:46:10Z</time>
      </trkpt>
      <trkpt lat="45.65974" lon="6.66379">
        <ele>2542.34</ele>
        <time>2018-02-07T12:46:14Z</time>
      </trkpt>
      <trkpt lat="45.65969" lon="6.66376">
        <ele>2541.38</ele>
        <time>2018-02-07T12:46:25Z</time>
      </trkpt>
      <trkpt lat="45.65961" lon="6.66365">
        <ele>2537.54</ele>
        <time>2018-02-07T12:46:29Z</time>
      </trkpt>
      <trkpt lat="45.6596" lon="6.66364">
        <ele>2537.54</ele>
        <time>2018-02-07T12:46:30Z</time>
      </trkpt>
      <trkpt lat="45.65959" lon="6.66362">
        <ele>2537.06</ele>
        <time>2018-02-07T12:46:31Z</time>
      </trkpt>
      <trkpt lat="45.65963" lon="6.66354">
        <ele>2533.21</ele>
        <time>2018-02-07T12:46:34Z</time>
      </trkpt>
      <trkpt lat="45.65968" lon="6.66346">
        <ele>2529.37</ele>
        <time>2018-02-07T12:46:37Z</time>
      </trkpt>
      <trkpt lat="45.65964" lon="6.66336">
        <ele>2526.96</ele>
        <time>2018-02-07T12:46:39Z</time>
      </trkpt>
      <trkpt lat="45.6597" lon="6.6633">
        <ele>2522.64</ele>
        <time>2018-02-07T12:46:41Z</time>
      </trkpt>
      <trkpt lat="45.6597" lon="6.66323">
        <ele>2520.71</ele>
        <time>2018-02-07T12:46:42Z</time>
      </trkpt>
      <trkpt lat="45.65969" lon="6.66317">
        <ele>2518.31</ele>
        <time>2018-02-07T12:46:43Z</time>
      </trkpt>
      <trkpt lat="45.65967" lon="6.66314">
        <ele>2517.35</ele>
        <time>2018-02-07T12:46:44Z</time>
      </trkpt>
      <trkpt lat="45.65966" lon="6.6632">
        <ele>2517.35</ele>
        <time>2018-02-07T12:46:54Z</time>
      </trkpt>
      <trkpt lat="45.65967" lon="6.66323">
        <ele>2517.35</ele>
        <time>2018-02-07T12:47:03Z</time>
      </trkpt>
      <trkpt lat="45.65979" lon="6.66314">
        <ele>2513.02</ele>
        <time>2018-02-07T12:47:09Z</time>
      </trkpt>
      <trkpt lat="45.65976" lon="6.66307">
        <ele>2509.18</ele>
        <time>2018-02-07T12:47:11Z</time>
      </trkpt>
      <trkpt lat="45.65981" lon="6.66299">
        <ele>2504.85</ele>
        <time>2018-02-07T12:47:14Z</time>
      </trkpt>
      <trkpt lat="45.65985" lon="6.66297">
        <ele>2503.89</ele>
        <time>2018-02-07T12:47:16Z</time>
      </trkpt>
      <trkpt lat="45.65983" lon="6.66285">
        <ele>2499.08</ele>
        <time>2018-02-07T12:47:18Z</time>
      </trkpt>
      <trkpt lat="45.65979" lon="6.66274">
        <ele>2496.68</ele>
        <time>2018-02-07T12:47:20Z</time>
      </trkpt>
      <trkpt lat="45.65972" lon="6.66259">
        <ele>2492.84</ele>
        <time>2018-02-07T12:47:22Z</time>
      </trkpt>
      <trkpt lat="45.65979" lon="6.66254">
        <ele>2487.55</ele>
        <time>2018-02-07T12:47:24Z</time>
      </trkpt>
      <trkpt lat="45.65991" lon="6.66253">
        <ele>2483.22</ele>
        <time>2018-02-07T12:47:29Z</time>
      </trkpt>
      <trkpt lat="45.65987" lon="6.66247">
        <ele>2479.86</ele>
        <time>2018-02-07T12:47:31Z</time>
      </trkpt>
      <trkpt lat="45.65982" lon="6.66239">
        <ele>2478.9</ele>
        <time>2018-02-07T12:47:34Z</time>
      </trkpt>
      <trkpt lat="45.6599" lon="6.66227">
        <ele>2472.17</ele>
        <time>2018-02-07T12:47:38Z</time>
      </trkpt>
      <trkpt lat="45.66003" lon="6.6622">
        <ele>2468.8</ele>
        <time>2018-02-07T12:47:42Z</time>
      </trkpt>
      <trkpt lat="45.66002" lon="6.66214">
        <ele>2465.44</ele>
        <time>2018-02-07T12:47:43Z</time>
      </trkpt>
      <trkpt lat="45.65994" lon="6.662">
        <ele>2462.07</ele>
        <time>2018-02-07T12:47:46Z</time>
      </trkpt>
      <trkpt lat="45.66002" lon="6.66194">
        <ele>2457.27</ele>
        <time>2018-02-07T12:47:48Z</time>
      </trkpt>
      <trkpt lat="45.66007" lon="6.66198">
        <ele>2456.31</ele>
        <time>2018-02-07T12:47:50Z</time>
      </trkpt>
      <trkpt lat="45.66007" lon="6.66204">
        <ele>2456.79</ele>
        <time>2018-02-07T12:48:04Z</time>
      </trkpt>
      <trkpt lat="45.66009" lon="6.66205">
        <ele>2456.31</ele>
        <time>2018-02-07T12:48:25Z</time>
      </trkpt>
      <trkpt lat="45.66012" lon="6.6619">
        <ele>2451.02</ele>
        <time>2018-02-07T12:48:30Z</time>
      </trkpt>
      <trkpt lat="45.66017" lon="6.66181">
        <ele>2445.25</ele>
        <time>2018-02-07T12:48:33Z</time>
      </trkpt>
      <trkpt lat="45.66019" lon="6.66185">
        <ele>2444.77</ele>
        <time>2018-02-07T12:48:43Z</time>
      </trkpt>
      <trkpt lat="45.6602" lon="6.66187">
        <ele>2445.25</ele>
        <time>2018-02-07T12:49:05Z</time>
      </trkpt>
      <trkpt lat="45.6602" lon="6.66188">
        <ele>2444.29</ele>
        <time>2018-02-07T12:49:32Z</time>
      </trkpt>
      <trkpt lat="45.6602" lon="6.66189">
        <ele>2444.29</ele>
        <time>2018-02-07T12:50:02Z</time>
      </trkpt>
      <trkpt lat="45.6602" lon="6.66189">
        <ele>2444.29</ele>
        <time>2018-02-07T12:50:34Z</time>
      </trkpt>
      <trkpt lat="45.66021" lon="6.66189">
        <ele>2444.29</ele>
        <time>2018-02-07T12:50:55Z</time>
      </trkpt>
      <trkpt lat="45.66022" lon="6.66188">
        <ele>2443.81</ele>
        <time>2018-02-07T12:51:22Z</time>
      </trkpt>
      <trkpt lat="45.66031" lon="6.66188">
        <ele>2441.89</ele>
        <time>2018-02-07T12:51:27Z</time>
      </trkpt>
      <trkpt lat="45.66033" lon="6.66176">
        <ele>2440.44</ele>
        <time>2018-02-07T12:51:29Z</time>
      </trkpt>
      <trkpt lat="45.66029" lon="6.66169">
        <ele>2437.08</ele>
        <time>2018-02-07T12:51:30Z</time>
      </trkpt>
      <trkpt lat="45.66025" lon="6.66165">
        <ele>2434.68</ele>
        <time>2018-02-07T12:51:31Z</time>
      </trkpt>
      <trkpt lat="45.66019" lon="6.66161">
        <ele>2434.2</ele>
        <time>2018-02-07T12:51:33Z</time>
      </trkpt>
      <trkpt lat="45.66014" lon="6.66152">
        <ele>2432.75</ele>
        <time>2018-02-07T12:51:36Z</time>
      </trkpt>
      <trkpt lat="45.66023" lon="6.66143">
        <ele>2427.95</ele>
        <time>2018-02-07T12:51:39Z</time>
      </trkpt>
      <trkpt lat="45.6603" lon="6.66144">
        <ele>2426.5</ele>
        <time>2018-02-07T12:51:41Z</time>
      </trkpt>
      <trkpt lat="45.66033" lon="6.66135">
        <ele>2423.14</ele>
        <time>2018-02-07T12:51:43Z</time>
      </trkpt>
      <trkpt lat="45.66028" lon="6.66125">
        <ele>2419.78</ele>
        <time>2018-02-07T12:51:45Z</time>
      </trkpt>
      <trkpt lat="45.66025" lon="6.6611">
        <ele>2416.41</ele>
        <time>2018-02-07T12:51:48Z</time>
      </trkpt>
      <trkpt lat="45.66034" lon="6.66107">
        <ele>2413.53</ele>
        <time>2018-02-07T12:51:50Z</time>
      </trkpt>
      <trkpt lat="45.66039" lon="6.66095">
        <ele>2408.24</ele>
        <time>2018-02-07T12:51:52Z</time>
      </trkpt>
      <trkpt lat="45.66037" lon="6.66088">
        <ele>2405.36</ele>
        <time>2018-02-07T12:51:53Z</time>
      </trkpt>
      <trkpt lat="45.66029" lon="6.66082">
        <ele>2403.91</ele>
        <time>2018-02-07T12:51:55Z</time>
      </trkpt>
      <trkpt lat="45.66025" lon="6.66081">
        <ele>2404.88</ele>
        <time>2018-02-07T12:52:03Z</time>
      </trkpt>
      <trkpt lat="45.66024" lon="6.66078">
        <ele>2404.39</ele>
        <time>2018-02-07T12:52:08Z</time>
      </trkpt>
      <trkpt lat="45.66013" lon="6.66063">
        <ele>2401.03</ele>
        <time>2018-02-07T12:52:14Z</time>
      </trkpt>
      <trkpt lat="45.66001" lon="6.66048">
        <ele>2398.63</ele>
        <time>2018-02-07T12:52:19Z</time>
      </trkpt>
      <trkpt lat="45.65992" lon="6.6603">
        <ele>2395.74</ele>
        <time>2018-02-07T12:52:23Z</time>
      </trkpt>
      <trkpt lat="45.66002" lon="6.66021">
        <ele>2392.38</ele>
        <time>2018-02-07T12:52:27Z</time>
      </trkpt>
      <trkpt lat="45.66009" lon="6.66027">
        <ele>2390.94</ele>
        <time>2018-02-07T12:52:29Z</time>
      </trkpt>
      <trkpt lat="45.66015" lon="6.66018">
        <ele>2386.13</ele>
        <time>2018-02-07T12:52:34Z</time>
      </trkpt>
      <trkpt lat="45.66021" lon="6.65999">
        <ele>2381.32</ele>
        <time>2018-02-07T12:52:38Z</time>
      </trkpt>
      <trkpt lat="45.66029" lon="6.66004">
        <ele>2379.88</ele>
        <time>2018-02-07T12:52:40Z</time>
      </trkpt>
      <trkpt lat="45.66031" lon="6.66008">
        <ele>2379.4</ele>
        <time>2018-02-07T12:52:48Z</time>
      </trkpt>
      <trkpt lat="45.66034" lon="6.66007">
        <ele>2378.92</ele>
        <time>2018-02-07T12:53:00Z</time>
      </trkpt>
      <trkpt lat="45.66056" lon="6.66013">
        <ele>2376.04</ele>
        <time>2018-02-07T12:53:10Z</time>
      </trkpt>
      <trkpt lat="45.66058" lon="6.66012">
        <ele>2375.07</ele>
        <time>2018-02-07T12:53:11Z</time>
      </trkpt>
      <trkpt lat="45.66059" lon="6.66001">
        <ele>2371.23</ele>
        <time>2018-02-07T12:53:14Z</time>
      </trkpt>
      <trkpt lat="45.66057" lon="6.65997">
        <ele>2370.75</ele>
        <time>2018-02-07T12:53:15Z</time>
      </trkpt>
      <trkpt lat="45.66058" lon="6.65977">
        <ele>2366.9</ele>
        <time>2018-02-07T12:53:19Z</time>
      </trkpt>
      <trkpt lat="45.66061" lon="6.65964">
        <ele>2363.54</ele>
        <time>2018-02-07T12:53:21Z</time>
      </trkpt>
      <trkpt lat="45.66056" lon="6.65951">
        <ele>2359.21</ele>
        <time>2018-02-07T12:53:23Z</time>
      </trkpt>
      <trkpt lat="45.66065" lon="6.65934">
        <ele>2354.89</ele>
        <time>2018-02-07T12:53:26Z</time>
      </trkpt>
      <trkpt lat="45.66067" lon="6.65921">
        <ele>2350.08</ele>
        <time>2018-02-07T12:53:28Z</time>
      </trkpt>
      <trkpt lat="45.66061" lon="6.65902">
        <ele>2346.72</ele>
        <time>2018-02-07T12:53:31Z</time>
      </trkpt>
      <trkpt lat="45.66071" lon="6.65894">
        <ele>2342.39</ele>
        <time>2018-02-07T12:53:33Z</time>
      </trkpt>
      <trkpt lat="45.66092" lon="6.65891">
        <ele>2339.99</ele>
        <time>2018-02-07T12:53:37Z</time>
      </trkpt>
      <trkpt lat="45.66106" lon="6.65881">
        <ele>2336.62</ele>
        <time>2018-02-07T12:53:41Z</time>
      </trkpt>
      <trkpt lat="45.66098" lon="6.65864">
        <ele>2332.78</ele>
        <time>2018-02-07T12:53:44Z</time>
      </trkpt>
      <trkpt lat="45.66082" lon="6.65835">
        <ele>2327.49</ele>
        <time>2018-02-07T12:53:48Z</time>
      </trkpt>
      <trkpt lat="45.66078" lon="6.65828">
        <ele>2325.57</ele>
        <time>2018-02-07T12:53:49Z</time>
      </trkpt>
      <trkpt lat="45.66049" lon="6.6579">
        <ele>2323.16</ele>
        <time>2018-02-07T12:53:58Z</time>
      </trkpt>
      <trkpt lat="45.66056" lon="6.65769">
        <ele>2317.88</ele>
        <time>2018-02-07T12:54:02Z</time>
      </trkpt>
      <trkpt lat="45.66061" lon="6.65768">
        <ele>2317.4</ele>
        <time>2018-02-07T12:54:03Z</time>
      </trkpt>
      <trkpt lat="45.66077" lon="6.65763">
        <ele>2315.47</ele>
        <time>2018-02-07T12:54:06Z</time>
      </trkpt>
      <trkpt lat="45.66099" lon="6.65747">
        <ele>2313.07</ele>
        <time>2018-02-07T12:54:12Z</time>
      </trkpt>
      <trkpt lat="45.66111" lon="6.65736">
        <ele>2311.15</ele>
        <time>2018-02-07T12:54:15Z</time>
      </trkpt>
      <trkpt lat="45.66117" lon="6.65713">
        <ele>2307.3</ele>
        <time>2018-02-07T12:54:19Z</time>
      </trkpt>
      <trkpt lat="45.66106" lon="6.65704">
        <ele>2305.38</ele>
        <time>2018-02-07T12:54:22Z</time>
      </trkpt>
      <trkpt lat="45.66089" lon="6.65702">
        <ele>2302.98</ele>
        <time>2018-02-07T12:54:27Z</time>
      </trkpt>
      <trkpt lat="45.66077" lon="6.65695">
        <ele>2301.05</ele>
        <time>2018-02-07T12:54:33Z</time>
      </trkpt>
      <trkpt lat="45.66081" lon="6.65665">
        <ele>2296.73</ele>
        <time>2018-02-07T12:54:37Z</time>
      </trkpt>
      <trkpt lat="45.6609" lon="6.65642">
        <ele>2294.32</ele>
        <time>2018-02-07T12:54:43Z</time>
      </trkpt>
      <trkpt lat="45.66089" lon="6.65643">
        <ele>2294.32</ele>
        <time>2018-02-07T12:54:45Z</time>
      </trkpt>
      <trkpt lat="45.6608" lon="6.65633">
        <ele>2292.88</ele>
        <time>2018-02-07T12:54:49Z</time>
      </trkpt>
      <trkpt lat="45.66074" lon="6.65606">
        <ele>2290</ele>
        <time>2018-02-07T12:54:55Z</time>
      </trkpt>
      <trkpt lat="45.66075" lon="6.65597">
        <ele>2289.04</ele>
        <time>2018-02-07T12:54:59Z</time>
      </trkpt>
      <trkpt lat="45.66068" lon="6.6561">
        <ele>2287.11</ele>
        <time>2018-02-07T12:55:05Z</time>
      </trkpt>
      <trkpt lat="45.66067" lon="6.65613">
        <ele>2287.11</ele>
        <time>2018-02-07T12:55:07Z</time>
      </trkpt>
      <trkpt lat="45.66066" lon="6.65612">
        <ele>2287.11</ele>
        <time>2018-02-07T12:55:18Z</time>
      </trkpt>
      <trkpt lat="45.66065" lon="6.65612">
        <ele>2287.11</ele>
        <time>2018-02-07T12:55:34Z</time>
      </trkpt>
      <trkpt lat="45.66065" lon="6.65612">
        <ele>2287.11</ele>
        <time>2018-02-07T12:55:52Z</time>
      </trkpt>
      <trkpt lat="45.66066" lon="6.65613">
        <ele>2286.63</ele>
        <time>2018-02-07T12:56:14Z</time>
      </trkpt>
      <trkpt lat="45.66066" lon="6.65613">
        <ele>2287.11</ele>
        <time>2018-02-07T12:56:29Z</time>
      </trkpt>
      <trkpt lat="45.66066" lon="6.65613">
        <ele>2286.63</ele>
        <time>2018-02-07T12:56:52Z</time>
      </trkpt>
      <trkpt lat="45.66066" lon="6.65613">
        <ele>2286.63</ele>
        <time>2018-02-07T12:56:53Z</time>
      </trkpt>
      <trkpt lat="45.66066" lon="6.65614">
        <ele>2285.19</ele>
        <time>2018-02-07T12:57:07Z</time>
      </trkpt>
      <trkpt lat="45.66066" lon="6.65613">
        <ele>2285.19</ele>
        <time>2018-02-07T12:57:34Z</time>
      </trkpt>
      <trkpt lat="45.66066" lon="6.6561">
        <ele>2285.67</ele>
        <time>2018-02-07T12:58:06Z</time>
      </trkpt>
      <trkpt lat="45.66064" lon="6.65611">
        <ele>2285.19</ele>
        <time>2018-02-07T12:58:35Z</time>
      </trkpt>
      <trkpt lat="45.66064" lon="6.65619">
        <ele>2285.19</ele>
        <time>2018-02-07T12:59:15Z</time>
      </trkpt>
      <trkpt lat="45.66062" lon="6.65622">
        <ele>2285.67</ele>
        <time>2018-02-07T12:59:53Z</time>
      </trkpt>
      <trkpt lat="45.66058" lon="6.65621">
        <ele>2285.67</ele>
        <time>2018-02-07T13:00:19Z</time>
      </trkpt>
      <trkpt lat="45.6606" lon="6.65621">
        <ele>2285.67</ele>
        <time>2018-02-07T13:00:54Z</time>
      </trkpt>
      <trkpt lat="45.66059" lon="6.6562">
        <ele>2285.67</ele>
        <time>2018-02-07T13:01:24Z</time>
      </trkpt>
      <trkpt lat="45.6606" lon="6.65621">
        <ele>2286.15</ele>
        <time>2018-02-07T13:01:54Z</time>
      </trkpt>
      <trkpt lat="45.66063" lon="6.65621">
        <ele>2286.15</ele>
        <time>2018-02-07T13:02:21Z</time>
      </trkpt>
      <trkpt lat="45.66062" lon="6.65617">
        <ele>2286.63</ele>
        <time>2018-02-07T13:02:53Z</time>
      </trkpt>
      <trkpt lat="45.6606" lon="6.65613">
        <ele>2286.63</ele>
        <time>2018-02-07T13:03:28Z</time>
      </trkpt>
      <trkpt lat="45.6606" lon="6.65614">
        <ele>2287.11</ele>
        <time>2018-02-07T13:04:03Z</time>
      </trkpt>
      <trkpt lat="45.66058" lon="6.65615">
        <ele>2287.11</ele>
        <time>2018-02-07T13:04:38Z</time>
      </trkpt>
      <trkpt lat="45.66058" lon="6.65616">
        <ele>2287.11</ele>
        <time>2018-02-07T13:05:19Z</time>
      </trkpt>
      <trkpt lat="45.66059" lon="6.65613">
        <ele>2287.59</ele>
        <time>2018-02-07T13:05:41Z</time>
      </trkpt>
      <trkpt lat="45.66059" lon="6.65613">
        <ele>2287.11</ele>
        <time>2018-02-07T13:06:17Z</time>
      </trkpt>
      <trkpt lat="45.66055" lon="6.65603">
        <ele>2288.08</ele>
        <time>2018-02-07T13:06:51Z</time>
      </trkpt>
      <trkpt lat="45.66053" lon="6.65612">
        <ele>2287.59</ele>
        <time>2018-02-07T13:07:21Z</time>
      </trkpt>
      <trkpt lat="45.66059" lon="6.65617">
        <ele>2288.08</ele>
        <time>2018-02-07T13:07:45Z</time>
      </trkpt>
      <trkpt lat="45.66059" lon="6.65613">
        <ele>2287.59</ele>
        <time>2018-02-07T13:08:08Z</time>
      </trkpt>
      <trkpt lat="45.66064" lon="6.6561">
        <ele>2287.59</ele>
        <time>2018-02-07T13:08:46Z</time>
      </trkpt>
      <trkpt lat="45.66063" lon="6.65607">
        <ele>2287.11</ele>
        <time>2018-02-07T13:09:06Z</time>
      </trkpt>
      <trkpt lat="45.66066" lon="6.65613">
        <ele>2287.11</ele>
        <time>2018-02-07T13:09:22Z</time>
      </trkpt>
      <trkpt lat="45.66064" lon="6.65617">
        <ele>2286.63</ele>
        <time>2018-02-07T13:09:55Z</time>
      </trkpt>
      <trkpt lat="45.66058" lon="6.65617">
        <ele>2286.63</ele>
        <time>2018-02-07T13:10:24Z</time>
      </trkpt>
      <trkpt lat="45.66058" lon="6.65615">
        <ele>2286.15</ele>
        <time>2018-02-07T13:10:50Z</time>
      </trkpt>
      <trkpt lat="45.66063" lon="6.65615">
        <ele>2286.63</ele>
        <time>2018-02-07T13:11:23Z</time>
      </trkpt>
      <trkpt lat="45.66065" lon="6.65614">
        <ele>2287.11</ele>
        <time>2018-02-07T13:11:53Z</time>
      </trkpt>
      <trkpt lat="45.66067" lon="6.65615">
        <ele>2287.11</ele>
        <time>2018-02-07T13:12:25Z</time>
      </trkpt>
      <trkpt lat="45.66066" lon="6.65616">
        <ele>2287.11</ele>
        <time>2018-02-07T13:12:50Z</time>
      </trkpt>
      <trkpt lat="45.66065" lon="6.65613">
        <ele>2288.08</ele>
        <time>2018-02-07T13:13:03Z</time>
      </trkpt>
      <trkpt lat="45.66064" lon="6.65611">
        <ele>2288.08</ele>
        <time>2018-02-07T13:13:27Z</time>
      </trkpt>
      <trkpt lat="45.66064" lon="6.65611">
        <ele>2288.08</ele>
        <time>2018-02-07T13:13:54Z</time>
      </trkpt>
      <trkpt lat="45.66063" lon="6.65612">
        <ele>2288.08</ele>
        <time>2018-02-07T13:14:13Z</time>
      </trkpt>
      <trkpt lat="45.66064" lon="6.65611">
        <ele>2288.08</ele>
        <time>2018-02-07T13:14:34Z</time>
      </trkpt>
      <trkpt lat="45.66064" lon="6.6561">
        <ele>2288.08</ele>
        <time>2018-02-07T13:14:56Z</time>
      </trkpt>
      <trkpt lat="45.66065" lon="6.65612">
        <ele>2288.08</ele>
        <time>2018-02-07T13:15:18Z</time>
      </trkpt>
      <trkpt lat="45.66065" lon="6.65611">
        <ele>2288.08</ele>
        <time>2018-02-07T13:15:41Z</time>
      </trkpt>
      <trkpt lat="45.66066" lon="6.65608">
        <ele>2288.56</ele>
        <time>2018-02-07T13:15:56Z</time>
      </trkpt>
      <trkpt lat="45.66068" lon="6.65609">
        <ele>2288.56</ele>
        <time>2018-02-07T13:16:22Z</time>
      </trkpt>
      <trkpt lat="45.66067" lon="6.65612">
        <ele>2288.56</ele>
        <time>2018-02-07T13:16:44Z</time>
      </trkpt>
      <trkpt lat="45.66065" lon="6.65612">
        <ele>2288.56</ele>
        <time>2018-02-07T13:16:59Z</time>
      </trkpt>
      <trkpt lat="45.66067" lon="6.65613">
        <ele>2288.08</ele>
        <time>2018-02-07T13:17:15Z</time>
      </trkpt>
      <trkpt lat="45.66067" lon="6.65614">
        <ele>2288.08</ele>
        <time>2018-02-07T13:17:33Z</time>
      </trkpt>
      <trkpt lat="45.66065" lon="6.65609">
        <ele>2288.08</ele>
        <time>2018-02-07T13:17:56Z</time>
      </trkpt>
      <trkpt lat="45.66067" lon="6.65612">
        <ele>2288.08</ele>
        <time>2018-02-07T13:18:13Z</time>
      </trkpt>
      <trkpt lat="45.66067" lon="6.65613">
        <ele>2288.56</ele>
        <time>2018-02-07T13:18:30Z</time>
      </trkpt>
      <trkpt lat="45.66068" lon="6.65614">
        <ele>2288.56</ele>
        <time>2018-02-07T13:18:48Z</time>
      </trkpt>
      <trkpt lat="45.66067" lon="6.65615">
        <ele>2288.56</ele>
        <time>2018-02-07T13:19:09Z</time>
      </trkpt>
      <trkpt lat="45.66069" lon="6.65613">
        <ele>2289.04</ele>
        <time>2018-02-07T13:19:28Z</time>
      </trkpt>
      <trkpt lat="45.66066" lon="6.65614">
        <ele>2289.04</ele>
        <time>2018-02-07T13:19:51Z</time>
      </trkpt>
      <trkpt lat="45.66068" lon="6.65617">
        <ele>2289.52</ele>
        <time>2018-02-07T13:20:08Z</time>
      </trkpt>
      <trkpt lat="45.6607" lon="6.65617">
        <ele>2289.52</ele>
        <time>2018-02-07T13:20:22Z</time>
      </trkpt>
      <trkpt lat="45.66071" lon="6.65622">
        <ele>2290</ele>
        <time>2018-02-07T13:20:42Z</time>
      </trkpt>
      <trkpt lat="45.66073" lon="6.65625">
        <ele>2290</ele>
        <time>2018-02-07T13:20:57Z</time>
      </trkpt>
      <trkpt lat="45.66077" lon="6.65631">
        <ele>2291.44</ele>
        <time>2018-02-07T13:21:12Z</time>
      </trkpt>
      <trkpt lat="45.66079" lon="6.65636">
        <ele>2292.4</ele>
        <time>2018-02-07T13:21:24Z</time>
      </trkpt>
      <trkpt lat="45.66082" lon="6.65647">
        <ele>2293.36</ele>
        <time>2018-02-07T13:21:38Z</time>
      </trkpt>
      <trkpt lat="45.66083" lon="6.65661">
        <ele>2295.28</ele>
        <time>2018-02-07T13:21:53Z</time>
      </trkpt>
      <trkpt lat="45.66075" lon="6.65673">
        <ele>2296.73</ele>
        <time>2018-02-07T13:22:11Z</time>
      </trkpt>
      <trkpt lat="45.66067" lon="6.65682">
        <ele>2298.17</ele>
        <time>2018-02-07T13:22:29Z</time>
      </trkpt>
      <trkpt lat="45.66064" lon="6.65688">
        <ele>2299.13</ele>
        <time>2018-02-07T13:22:44Z</time>
      </trkpt>
      <trkpt lat="45.66069" lon="6.6569">
        <ele>2301.53</ele>
        <time>2018-02-07T13:23:00Z</time>
      </trkpt>
      <trkpt lat="45.66076" lon="6.65697">
        <ele>2303.46</ele>
        <time>2018-02-07T13:23:17Z</time>
      </trkpt>
      <trkpt lat="45.66082" lon="6.65702">
        <ele>2304.9</ele>
        <time>2018-02-07T13:23:29Z</time>
      </trkpt>
      <trkpt lat="45.66086" lon="6.65711">
        <ele>2306.82</ele>
        <time>2018-02-07T13:23:43Z</time>
      </trkpt>
      <trkpt lat="45.66088" lon="6.65719">
        <ele>2308.26</ele>
        <time>2018-02-07T13:23:55Z</time>
      </trkpt>
      <trkpt lat="45.66092" lon="6.65726">
        <ele>2310.67</ele>
        <time>2018-02-07T13:24:08Z</time>
      </trkpt>
      <trkpt lat="45.66094" lon="6.65733">
        <ele>2312.11</ele>
        <time>2018-02-07T13:24:21Z</time>
      </trkpt>
      <trkpt lat="45.66096" lon="6.65742">
        <ele>2314.03</ele>
        <time>2018-02-07T13:24:34Z</time>
      </trkpt>
      <trkpt lat="45.66093" lon="6.65751">
        <ele>2315.95</ele>
        <time>2018-02-07T13:24:49Z</time>
      </trkpt>
      <trkpt lat="45.6609" lon="6.65761">
        <ele>2317.88</ele>
        <time>2018-02-07T13:25:04Z</time>
      </trkpt>
      <trkpt lat="45.66092" lon="6.65774">
        <ele>2319.32</ele>
        <time>2018-02-07T13:25:20Z</time>
      </trkpt>
      <trkpt lat="45.66095" lon="6.65785">
        <ele>2321.24</ele>
        <time>2018-02-07T13:25:35Z</time>
      </trkpt>
      <trkpt lat="45.66097" lon="6.65796">
        <ele>2323.16</ele>
        <time>2018-02-07T13:25:51Z</time>
      </trkpt>
      <trkpt lat="45.66099" lon="6.65806">
        <ele>2324.61</ele>
        <time>2018-02-07T13:26:03Z</time>
      </trkpt>
      <trkpt lat="45.661" lon="6.65816">
        <ele>2326.05</ele>
        <time>2018-02-07T13:26:18Z</time>
      </trkpt>
      <trkpt lat="45.66103" lon="6.65825">
        <ele>2327.97</ele>
        <time>2018-02-07T13:26:32Z</time>
      </trkpt>
      <trkpt lat="45.66102" lon="6.65833">
        <ele>2329.41</ele>
        <time>2018-02-07T13:26:46Z</time>
      </trkpt>
      <trkpt lat="45.66105" lon="6.65845">
        <ele>2331.33</ele>
        <time>2018-02-07T13:27:01Z</time>
      </trkpt>
      <trkpt lat="45.66108" lon="6.65856">
        <ele>2332.78</ele>
        <time>2018-02-07T13:27:14Z</time>
      </trkpt>
      <trkpt lat="45.66106" lon="6.65867">
        <ele>2334.22</ele>
        <time>2018-02-07T13:27:27Z</time>
      </trkpt>
      <trkpt lat="45.66104" lon="6.65865">
        <ele>2334.7</ele>
        <time>2018-02-07T13:27:31Z</time>
      </trkpt>
      <trkpt lat="45.66097" lon="6.65869">
        <ele>2336.62</ele>
        <time>2018-02-07T13:27:45Z</time>
      </trkpt>
      <trkpt lat="45.66088" lon="6.65869">
        <ele>2337.58</ele>
        <time>2018-02-07T13:27:58Z</time>
      </trkpt>
      <trkpt lat="45.66079" lon="6.65871">
        <ele>2339.51</ele>
        <time>2018-02-07T13:28:14Z</time>
      </trkpt>
      <trkpt lat="45.6607" lon="6.65877">
        <ele>2341.43</ele>
        <time>2018-02-07T13:28:32Z</time>
      </trkpt>
      <trkpt lat="45.66069" lon="6.65884">
        <ele>2342.87</ele>
        <time>2018-02-07T13:28:45Z</time>
      </trkpt>
      <trkpt lat="45.66064" lon="6.65891">
        <ele>2345.27</ele>
        <time>2018-02-07T13:29:01Z</time>
      </trkpt>
      <trkpt lat="45.66055" lon="6.65891">
        <ele>2346.72</ele>
        <time>2018-02-07T13:29:17Z</time>
      </trkpt>
      <trkpt lat="45.66046" lon="6.65893">
        <ele>2349.12</ele>
        <time>2018-02-07T13:29:34Z</time>
      </trkpt>
      <trkpt lat="45.66043" lon="6.65894">
        <ele>2350.56</ele>
        <time>2018-02-07T13:29:47Z</time>
      </trkpt>
      <trkpt lat="45.66037" lon="6.65895">
        <ele>2352</ele>
        <time>2018-02-07T13:30:00Z</time>
      </trkpt>
      <trkpt lat="45.6603" lon="6.65895">
        <ele>2353.44</ele>
        <time>2018-02-07T13:30:12Z</time>
      </trkpt>
      <trkpt lat="45.66029" lon="6.65901">
        <ele>2355.37</ele>
        <time>2018-02-07T13:30:22Z</time>
      </trkpt>
      <trkpt lat="45.66026" lon="6.65898">
        <ele>2355.37</ele>
        <time>2018-02-07T13:30:41Z</time>
      </trkpt>
      <trkpt lat="45.66026" lon="6.65898">
        <ele>2353.93</ele>
        <time>2018-02-07T13:30:42Z</time>
      </trkpt>
      <trkpt lat="45.66028" lon="6.65894">
        <ele>2354.41</ele>
        <time>2018-02-07T13:31:05Z</time>
      </trkpt>
      <trkpt lat="45.66026" lon="6.65898">
        <ele>2353.93</ele>
        <time>2018-02-07T13:31:28Z</time>
      </trkpt>
      <trkpt lat="45.66018" lon="6.659">
        <ele>2354.41</ele>
        <time>2018-02-07T13:31:46Z</time>
      </trkpt>
      <trkpt lat="45.6602" lon="6.659">
        <ele>2355.85</ele>
        <time>2018-02-07T13:31:55Z</time>
      </trkpt>
      <trkpt lat="45.66027" lon="6.65898">
        <ele>2355.37</ele>
        <time>2018-02-07T13:32:15Z</time>
      </trkpt>
      <trkpt lat="45.66032" lon="6.65901">
        <ele>2355.85</ele>
        <time>2018-02-07T13:32:34Z</time>
      </trkpt>
      <trkpt lat="45.66036" lon="6.65918">
        <ele>2358.25</ele>
        <time>2018-02-07T13:32:50Z</time>
      </trkpt>
      <trkpt lat="45.6604" lon="6.65927">
        <ele>2360.65</ele>
        <time>2018-02-07T13:33:06Z</time>
      </trkpt>
      <trkpt lat="45.66043" lon="6.65934">
        <ele>2362.1</ele>
        <time>2018-02-07T13:33:19Z</time>
      </trkpt>
      <trkpt lat="45.66043" lon="6.65943">
        <ele>2363.54</ele>
        <time>2018-02-07T13:33:32Z</time>
      </trkpt>
      <trkpt lat="45.66044" lon="6.65948">
        <ele>2364.98</ele>
        <time>2018-02-07T13:33:43Z</time>
      </trkpt>
      <trkpt lat="45.66046" lon="6.65957">
        <ele>2366.42</ele>
        <time>2018-02-07T13:33:55Z</time>
      </trkpt>
      <trkpt lat="45.66049" lon="6.65964">
        <ele>2368.35</ele>
        <time>2018-02-07T13:34:08Z</time>
      </trkpt>
      <trkpt lat="45.66045" lon="6.65968">
        <ele>2370.27</ele>
        <time>2018-02-07T13:34:20Z</time>
      </trkpt>
      <trkpt lat="45.66038" lon="6.65968">
        <ele>2371.71</ele>
        <time>2018-02-07T13:34:33Z</time>
      </trkpt>
      <trkpt lat="45.66031" lon="6.65971">
        <ele>2372.67</ele>
        <time>2018-02-07T13:34:47Z</time>
      </trkpt>
      <trkpt lat="45.66028" lon="6.65973">
        <ele>2374.11</ele>
        <time>2018-02-07T13:35:00Z</time>
      </trkpt>
      <trkpt lat="45.66024" lon="6.65974">
        <ele>2376.04</ele>
        <time>2018-02-07T13:35:13Z</time>
      </trkpt>
      <trkpt lat="45.66017" lon="6.65972">
        <ele>2377.48</ele>
        <time>2018-02-07T13:35:26Z</time>
      </trkpt>
      <trkpt lat="45.66013" lon="6.65972">
        <ele>2378.44</ele>
        <time>2018-02-07T13:35:38Z</time>
      </trkpt>
      <trkpt lat="45.66006" lon="6.65973">
        <ele>2380.36</ele>
        <time>2018-02-07T13:35:51Z</time>
      </trkpt>
      <trkpt lat="45.66001" lon="6.65975">
        <ele>2382.76</ele>
        <time>2018-02-07T13:36:06Z</time>
      </trkpt>
      <trkpt lat="45.66003" lon="6.65981">
        <ele>2384.21</ele>
        <time>2018-02-07T13:36:17Z</time>
      </trkpt>
      <trkpt lat="45.66006" lon="6.65985">
        <ele>2386.13</ele>
        <time>2018-02-07T13:36:33Z</time>
      </trkpt>
      <trkpt lat="45.66006" lon="6.65996">
        <ele>2388.53</ele>
        <time>2018-02-07T13:36:49Z</time>
      </trkpt>
      <trkpt lat="45.66008" lon="6.66005">
        <ele>2389.97</ele>
        <time>2018-02-07T13:37:02Z</time>
      </trkpt>
      <trkpt lat="45.66009" lon="6.66015">
        <ele>2392.38</ele>
        <time>2018-02-07T13:37:17Z</time>
      </trkpt>
      <trkpt lat="45.66012" lon="6.66024">
        <ele>2393.82</ele>
        <time>2018-02-07T13:37:31Z</time>
      </trkpt>
      <trkpt lat="45.66016" lon="6.66032">
        <ele>2395.74</ele>
        <time>2018-02-07T13:37:44Z</time>
      </trkpt>
      <trkpt lat="45.66017" lon="6.6604">
        <ele>2397.67</ele>
        <time>2018-02-07T13:37:57Z</time>
      </trkpt>
      <trkpt lat="45.66021" lon="6.66045">
        <ele>2399.11</ele>
        <time>2018-02-07T13:38:11Z</time>
      </trkpt>
      <trkpt lat="45.66024" lon="6.6605">
        <ele>2401.03</ele>
        <time>2018-02-07T13:38:24Z</time>
      </trkpt>
      <trkpt lat="45.66028" lon="6.66057">
        <ele>2402.47</ele>
        <time>2018-02-07T13:38:36Z</time>
      </trkpt>
      <trkpt lat="45.66031" lon="6.66065">
        <ele>2404.39</ele>
        <time>2018-02-07T13:38:50Z</time>
      </trkpt>
      <trkpt lat="45.6603" lon="6.66073">
        <ele>2405.84</ele>
        <time>2018-02-07T13:39:04Z</time>
      </trkpt>
      <trkpt lat="45.66024" lon="6.66073">
        <ele>2407.28</ele>
        <time>2018-02-07T13:39:16Z</time>
      </trkpt>
      <trkpt lat="45.66017" lon="6.66072">
        <ele>2408.72</ele>
        <time>2018-02-07T13:39:31Z</time>
      </trkpt>
      <trkpt lat="45.6601" lon="6.66075">
        <ele>2410.64</ele>
        <time>2018-02-07T13:39:45Z</time>
      </trkpt>
      <trkpt lat="45.66005" lon="6.66077">
        <ele>2411.6</ele>
        <time>2018-02-07T13:39:57Z</time>
      </trkpt>
      <trkpt lat="45.66002" lon="6.6608">
        <ele>2413.05</ele>
        <time>2018-02-07T13:40:11Z</time>
      </trkpt>
      <trkpt lat="45.65997" lon="6.66077">
        <ele>2414.49</ele>
        <time>2018-02-07T13:40:20Z</time>
      </trkpt>
      <trkpt lat="45.65991" lon="6.66075">
        <ele>2416.41</ele>
        <time>2018-02-07T13:40:32Z</time>
      </trkpt>
      <trkpt lat="45.65985" lon="6.66073">
        <ele>2418.81</ele>
        <time>2018-02-07T13:40:47Z</time>
      </trkpt>
      <trkpt lat="45.65978" lon="6.66074">
        <ele>2419.78</ele>
        <time>2018-02-07T13:40:58Z</time>
      </trkpt>
      <trkpt lat="45.65972" lon="6.66074">
        <ele>2421.22</ele>
        <time>2018-02-07T13:41:11Z</time>
      </trkpt>
      <trkpt lat="45.65968" lon="6.66074">
        <ele>2422.66</ele>
        <time>2018-02-07T13:41:25Z</time>
      </trkpt>
      <trkpt lat="45.65962" lon="6.66074">
        <ele>2424.58</ele>
        <time>2018-02-07T13:41:39Z</time>
      </trkpt>
      <trkpt lat="45.6596" lon="6.66074">
        <ele>2425.54</ele>
        <time>2018-02-07T13:41:50Z</time>
      </trkpt>
      <trkpt lat="45.65963" lon="6.6608">
        <ele>2426.99</ele>
        <time>2018-02-07T13:42:06Z</time>
      </trkpt>
      <trkpt lat="45.65965" lon="6.66089">
        <ele>2429.39</ele>
        <time>2018-02-07T13:42:20Z</time>
      </trkpt>
      <trkpt lat="45.6597" lon="6.66096">
        <ele>2430.83</ele>
        <time>2018-02-07T13:42:35Z</time>
      </trkpt>
      <trkpt lat="45.65973" lon="6.66104">
        <ele>2431.79</ele>
        <time>2018-02-07T13:42:49Z</time>
      </trkpt>
      <trkpt lat="45.65976" lon="6.6611">
        <ele>2434.2</ele>
        <time>2018-02-07T13:43:02Z</time>
      </trkpt>
      <trkpt lat="45.65979" lon="6.66118">
        <ele>2435.64</ele>
        <time>2018-02-07T13:43:16Z</time>
      </trkpt>
      <trkpt lat="45.65982" lon="6.66125">
        <ele>2437.56</ele>
        <time>2018-02-07T13:43:32Z</time>
      </trkpt>
      <trkpt lat="45.65984" lon="6.66131">
        <ele>2439.48</ele>
        <time>2018-02-07T13:43:45Z</time>
      </trkpt>
      <trkpt lat="45.65986" lon="6.6614">
        <ele>2440.92</ele>
        <time>2018-02-07T13:43:58Z</time>
      </trkpt>
      <trkpt lat="45.65989" lon="6.66147">
        <ele>2442.37</ele>
        <time>2018-02-07T13:44:12Z</time>
      </trkpt>
      <trkpt lat="45.65992" lon="6.66154">
        <ele>2444.29</ele>
        <time>2018-02-07T13:44:27Z</time>
      </trkpt>
      <trkpt lat="45.65993" lon="6.6616">
        <ele>2446.21</ele>
        <time>2018-02-07T13:44:41Z</time>
      </trkpt>
      <trkpt lat="45.65995" lon="6.66165">
        <ele>2448.13</ele>
        <time>2018-02-07T13:44:55Z</time>
      </trkpt>
      <trkpt lat="45.65999" lon="6.6617">
        <ele>2449.1</ele>
        <time>2018-02-07T13:45:08Z</time>
      </trkpt>
      <trkpt lat="45.66001" lon="6.66176">
        <ele>2451.02</ele>
        <time>2018-02-07T13:45:21Z</time>
      </trkpt>
      <trkpt lat="45.66005" lon="6.66183">
        <ele>2452.46</ele>
        <time>2018-02-07T13:45:36Z</time>
      </trkpt>
      <trkpt lat="45.66009" lon="6.66189">
        <ele>2454.38</ele>
        <time>2018-02-07T13:45:51Z</time>
      </trkpt>
      <trkpt lat="45.66011" lon="6.66194">
        <ele>2455.82</ele>
        <time>2018-02-07T13:46:04Z</time>
      </trkpt>
      <trkpt lat="45.66015" lon="6.66202">
        <ele>2458.23</ele>
        <time>2018-02-07T13:46:19Z</time>
      </trkpt>
      <trkpt lat="45.66019" lon="6.66207">
        <ele>2460.15</ele>
        <time>2018-02-07T13:46:34Z</time>
      </trkpt>
      <trkpt lat="45.66019" lon="6.66212">
        <ele>2460.63</ele>
        <time>2018-02-07T13:46:48Z</time>
      </trkpt>
      <trkpt lat="45.66011" lon="6.66211">
        <ele>2462.55</ele>
        <time>2018-02-07T13:47:03Z</time>
      </trkpt>
      <trkpt lat="45.66007" lon="6.66211">
        <ele>2464</ele>
        <time>2018-02-07T13:47:16Z</time>
      </trkpt>
      <trkpt lat="45.66004" lon="6.66212">
        <ele>2464.96</ele>
        <time>2018-02-07T13:47:34Z</time>
      </trkpt>
      <trkpt lat="45.65997" lon="6.66212">
        <ele>2466.4</ele>
        <time>2018-02-07T13:47:47Z</time>
      </trkpt>
      <trkpt lat="45.65993" lon="6.66213">
        <ele>2468.32</ele>
        <time>2018-02-07T13:48:01Z</time>
      </trkpt>
      <trkpt lat="45.65992" lon="6.66215">
        <ele>2469.28</ele>
        <time>2018-02-07T13:48:17Z</time>
      </trkpt>
      <trkpt lat="45.65996" lon="6.66221">
        <ele>2470.73</ele>
        <time>2018-02-07T13:48:31Z</time>
      </trkpt>
      <trkpt lat="45.65997" lon="6.66227">
        <ele>2472.65</ele>
        <time>2018-02-07T13:48:44Z</time>
      </trkpt>
      <trkpt lat="45.66" lon="6.66233">
        <ele>2474.09</ele>
        <time>2018-02-07T13:48:57Z</time>
      </trkpt>
      <trkpt lat="45.66003" lon="6.6624">
        <ele>2476.01</ele>
        <time>2018-02-07T13:49:10Z</time>
      </trkpt>
      <trkpt lat="45.65993" lon="6.66245">
        <ele>2476.97</ele>
        <time>2018-02-07T13:49:30Z</time>
      </trkpt>
      <trkpt lat="45.65992" lon="6.66244">
        <ele>2478.42</ele>
        <time>2018-02-07T13:49:43Z</time>
      </trkpt>
      <trkpt lat="45.65991" lon="6.66243">
        <ele>2480.34</ele>
        <time>2018-02-07T13:49:57Z</time>
      </trkpt>
      <trkpt lat="45.65986" lon="6.66243">
        <ele>2481.78</ele>
        <time>2018-02-07T13:50:11Z</time>
      </trkpt>
      <trkpt lat="45.65984" lon="6.66243">
        <ele>2481.78</ele>
        <time>2018-02-07T13:50:25Z</time>
      </trkpt>
      <trkpt lat="45.6598" lon="6.66243">
        <ele>2484.18</ele>
        <time>2018-02-07T13:50:38Z</time>
      </trkpt>
      <trkpt lat="45.65983" lon="6.66242">
        <ele>2484.18</ele>
        <time>2018-02-07T13:50:58Z</time>
      </trkpt>
      <trkpt lat="45.6598" lon="6.66241">
        <ele>2485.15</ele>
        <time>2018-02-07T13:51:14Z</time>
      </trkpt>
      <trkpt lat="45.65978" lon="6.66241">
        <ele>2485.63</ele>
        <time>2018-02-07T13:51:28Z</time>
      </trkpt>
      <trkpt lat="45.65981" lon="6.66243">
        <ele>2486.11</ele>
        <time>2018-02-07T13:51:44Z</time>
      </trkpt>
      <trkpt lat="45.65982" lon="6.66251">
        <ele>2488.03</ele>
        <time>2018-02-07T13:51:57Z</time>
      </trkpt>
      <trkpt lat="45.65985" lon="6.66256">
        <ele>2489.47</ele>
        <time>2018-02-07T13:52:08Z</time>
      </trkpt>
      <trkpt lat="45.65985" lon="6.66261">
        <ele>2490.43</ele>
        <time>2018-02-07T13:52:21Z</time>
      </trkpt>
      <trkpt lat="45.65986" lon="6.66263">
        <ele>2491.87</ele>
        <time>2018-02-07T13:52:42Z</time>
      </trkpt>
      <trkpt lat="45.65984" lon="6.66265">
        <ele>2491.87</ele>
        <time>2018-02-07T13:52:56Z</time>
      </trkpt>
      <trkpt lat="45.65977" lon="6.66265">
        <ele>2493.32</ele>
        <time>2018-02-07T13:53:09Z</time>
      </trkpt>
      <trkpt lat="45.65975" lon="6.66266">
        <ele>2495.24</ele>
        <time>2018-02-07T13:53:22Z</time>
      </trkpt>
      <trkpt lat="45.65973" lon="6.66267">
        <ele>2495.72</ele>
        <time>2018-02-07T13:53:42Z</time>
      </trkpt>
      <trkpt lat="45.65975" lon="6.66267">
        <ele>2496.68</ele>
        <time>2018-02-07T13:53:54Z</time>
      </trkpt>
      <trkpt lat="45.65976" lon="6.66273">
        <ele>2498.12</ele>
        <time>2018-02-07T13:54:06Z</time>
      </trkpt>
      <trkpt lat="45.65978" lon="6.66279">
        <ele>2500.53</ele>
        <time>2018-02-07T13:54:20Z</time>
      </trkpt>
      <trkpt lat="45.65981" lon="6.66284">
        <ele>2501.49</ele>
        <time>2018-02-07T13:54:36Z</time>
      </trkpt>
      <trkpt lat="45.65983" lon="6.66289">
        <ele>2502.93</ele>
        <time>2018-02-07T13:54:48Z</time>
      </trkpt>
      <trkpt lat="45.65985" lon="6.66296">
        <ele>2504.85</ele>
        <time>2018-02-07T13:55:01Z</time>
      </trkpt>
      <trkpt lat="45.6599" lon="6.663">
        <ele>2505.81</ele>
        <time>2018-02-07T13:55:15Z</time>
      </trkpt>
      <trkpt lat="45.65989" lon="6.66301">
        <ele>2506.29</ele>
        <time>2018-02-07T13:55:36Z</time>
      </trkpt>
      <trkpt lat="45.65992" lon="6.66302">
        <ele>2506.77</ele>
        <time>2018-02-07T13:55:50Z</time>
      </trkpt>
      <trkpt lat="45.6599" lon="6.66304">
        <ele>2507.74</ele>
        <time>2018-02-07T13:56:02Z</time>
      </trkpt>
      <trkpt lat="45.65985" lon="6.66303">
        <ele>2508.7</ele>
        <time>2018-02-07T13:56:14Z</time>
      </trkpt>
      <trkpt lat="45.65979" lon="6.66302">
        <ele>2510.14</ele>
        <time>2018-02-07T13:56:25Z</time>
      </trkpt>
      <trkpt lat="45.65974" lon="6.66301">
        <ele>2511.1</ele>
        <time>2018-02-07T13:56:37Z</time>
      </trkpt>
      <trkpt lat="45.65975" lon="6.66305">
        <ele>2511.58</ele>
        <time>2018-02-07T13:56:56Z</time>
      </trkpt>
      <trkpt lat="45.65981" lon="6.66311">
        <ele>2513.02</ele>
        <time>2018-02-07T13:57:09Z</time>
      </trkpt>
      <trkpt lat="45.65987" lon="6.66318">
        <ele>2514.47</ele>
        <time>2018-02-07T13:57:25Z</time>
      </trkpt>
      <trkpt lat="45.65988" lon="6.66321">
        <ele>2515.43</ele>
        <time>2018-02-07T13:57:38Z</time>
      </trkpt>
      <trkpt lat="45.65984" lon="6.66322">
        <ele>2516.87</ele>
        <time>2018-02-07T13:57:52Z</time>
      </trkpt>
      <trkpt lat="45.65977" lon="6.66321">
        <ele>2517.83</ele>
        <time>2018-02-07T13:58:06Z</time>
      </trkpt>
      <trkpt lat="45.65973" lon="6.6632">
        <ele>2519.75</ele>
        <time>2018-02-07T13:58:20Z</time>
      </trkpt>
      <trkpt lat="45.65972" lon="6.66319">
        <ele>2520.23</ele>
        <time>2018-02-07T13:58:36Z</time>
      </trkpt>
      <trkpt lat="45.65977" lon="6.66327">
        <ele>2521.19</ele>
        <time>2018-02-07T13:58:51Z</time>
      </trkpt>
      <trkpt lat="45.65981" lon="6.66332">
        <ele>2522.64</ele>
        <time>2018-02-07T13:59:04Z</time>
      </trkpt>
      <trkpt lat="45.65985" lon="6.66335">
        <ele>2524.56</ele>
        <time>2018-02-07T13:59:17Z</time>
      </trkpt>
      <trkpt lat="45.6599" lon="6.6634">
        <ele>2526</ele>
        <time>2018-02-07T13:59:30Z</time>
      </trkpt>
      <trkpt lat="45.65994" lon="6.66343">
        <ele>2527.44</ele>
        <time>2018-02-07T13:59:42Z</time>
      </trkpt>
      <trkpt lat="45.65996" lon="6.66346">
        <ele>2528.4</ele>
        <time>2018-02-07T13:59:52Z</time>
      </trkpt>
      <trkpt lat="45.65997" lon="6.66348">
        <ele>2528.89</ele>
        <time>2018-02-07T14:00:17Z</time>
      </trkpt>
      <trkpt lat="45.66" lon="6.66352">
        <ele>2529.85</ele>
        <time>2018-02-07T14:00:30Z</time>
      </trkpt>
      <trkpt lat="45.65994" lon="6.66354">
        <ele>2530.81</ele>
        <time>2018-02-07T14:00:45Z</time>
      </trkpt>
      <trkpt lat="45.65988" lon="6.66356">
        <ele>2531.77</ele>
        <time>2018-02-07T14:00:59Z</time>
      </trkpt>
      <trkpt lat="45.65982" lon="6.66357">
        <ele>2533.69</ele>
        <time>2018-02-07T14:01:14Z</time>
      </trkpt>
      <trkpt lat="45.6598" lon="6.66357">
        <ele>2534.65</ele>
        <time>2018-02-07T14:01:27Z</time>
      </trkpt>
      <trkpt lat="45.65984" lon="6.66358">
        <ele>2535.13</ele>
        <time>2018-02-07T14:01:43Z</time>
      </trkpt>
      <trkpt lat="45.65989" lon="6.66364">
        <ele>2536.58</ele>
        <time>2018-02-07T14:01:56Z</time>
      </trkpt>
      <trkpt lat="45.65994" lon="6.66367">
        <ele>2537.54</ele>
        <time>2018-02-07T14:02:09Z</time>
      </trkpt>
      <trkpt lat="45.66" lon="6.66372">
        <ele>2538.98</ele>
        <time>2018-02-07T14:02:25Z</time>
      </trkpt>
      <trkpt lat="45.65999" lon="6.66377">
        <ele>2540.42</ele>
        <time>2018-02-07T14:02:38Z</time>
      </trkpt>
      <trkpt lat="45.6599" lon="6.66376">
        <ele>2541.86</ele>
        <time>2018-02-07T14:02:54Z</time>
      </trkpt>
      <trkpt lat="45.65985" lon="6.66376">
        <ele>2542.82</ele>
        <time>2018-02-07T14:03:07Z</time>
      </trkpt>
      <trkpt lat="45.65981" lon="6.66377">
        <ele>2543.79</ele>
        <time>2018-02-07T14:03:24Z</time>
      </trkpt>
      <trkpt lat="45.65986" lon="6.66381">
        <ele>2544.75</ele>
        <time>2018-02-07T14:03:37Z</time>
      </trkpt>
      <trkpt lat="45.65992" lon="6.66384">
        <ele>2546.19</ele>
        <time>2018-02-07T14:03:49Z</time>
      </trkpt>
      <trkpt lat="45.65996" lon="6.66388">
        <ele>2547.15</ele>
        <time>2018-02-07T14:04:02Z</time>
      </trkpt>
      <trkpt lat="45.66" lon="6.66392">
        <ele>2548.59</ele>
        <time>2018-02-07T14:04:13Z</time>
      </trkpt>
      <trkpt lat="45.66005" lon="6.66396">
        <ele>2550.03</ele>
        <time>2018-02-07T14:04:25Z</time>
      </trkpt>
      <trkpt lat="45.66002" lon="6.66396">
        <ele>2550.03</ele>
        <time>2018-02-07T14:04:42Z</time>
      </trkpt>
      <trkpt lat="45.66" lon="6.66399">
        <ele>2550.03</ele>
        <time>2018-02-07T14:05:06Z</time>
      </trkpt>
      <trkpt lat="45.65996" lon="6.66398">
        <ele>2550.03</ele>
        <time>2018-02-07T14:05:20Z</time>
      </trkpt>
      <trkpt lat="45.6599" lon="6.66398">
        <ele>2551</ele>
        <time>2018-02-07T14:05:33Z</time>
      </trkpt>
      <trkpt lat="45.65983" lon="6.66397">
        <ele>2552.92</ele>
        <time>2018-02-07T14:05:47Z</time>
      </trkpt>
      <trkpt lat="45.65977" lon="6.66398">
        <ele>2554.36</ele>
        <time>2018-02-07T14:06:01Z</time>
      </trkpt>
      <trkpt lat="45.65982" lon="6.66398">
        <ele>2554.84</ele>
        <time>2018-02-07T14:06:20Z</time>
      </trkpt>
      <trkpt lat="45.65988" lon="6.66403">
        <ele>2556.28</ele>
        <time>2018-02-07T14:06:34Z</time>
      </trkpt>
      <trkpt lat="45.65992" lon="6.66406">
        <ele>2557.24</ele>
        <time>2018-02-07T14:06:45Z</time>
      </trkpt>
      <trkpt lat="45.65996" lon="6.66411">
        <ele>2558.69</ele>
        <time>2018-02-07T14:06:58Z</time>
      </trkpt>
      <trkpt lat="45.66002" lon="6.66414">
        <ele>2560.13</ele>
        <time>2018-02-07T14:07:11Z</time>
      </trkpt>
      <trkpt lat="45.66002" lon="6.66413">
        <ele>2560.61</ele>
        <time>2018-02-07T14:07:29Z</time>
      </trkpt>
      <trkpt lat="45.66" lon="6.66418">
        <ele>2561.57</ele>
        <time>2018-02-07T14:07:42Z</time>
      </trkpt>
      <trkpt lat="45.65992" lon="6.6642">
        <ele>2562.53</ele>
        <time>2018-02-07T14:07:59Z</time>
      </trkpt>
      <trkpt lat="45.65989" lon="6.66421">
        <ele>2562.53</ele>
        <time>2018-02-07T14:08:15Z</time>
      </trkpt>
      <trkpt lat="45.65982" lon="6.66421">
        <ele>2563.97</ele>
        <time>2018-02-07T14:08:30Z</time>
      </trkpt>
      <trkpt lat="45.65983" lon="6.6642">
        <ele>2565.42</ele>
        <time>2018-02-07T14:08:43Z</time>
      </trkpt>
      <trkpt lat="45.65989" lon="6.66425">
        <ele>2566.38</ele>
        <time>2018-02-07T14:08:53Z</time>
      </trkpt>
      <trkpt lat="45.65996" lon="6.66427">
        <ele>2567.34</ele>
        <time>2018-02-07T14:09:06Z</time>
      </trkpt>
      <trkpt lat="45.66001" lon="6.66431">
        <ele>2569.26</ele>
        <time>2018-02-07T14:09:18Z</time>
      </trkpt>
      <trkpt lat="45.66004" lon="6.66433">
        <ele>2570.22</ele>
        <time>2018-02-07T14:09:30Z</time>
      </trkpt>
      <trkpt lat="45.66008" lon="6.66435">
        <ele>2571.18</ele>
        <time>2018-02-07T14:09:43Z</time>
      </trkpt>
      <trkpt lat="45.66006" lon="6.66441">
        <ele>2572.14</ele>
        <time>2018-02-07T14:09:56Z</time>
      </trkpt>
      <trkpt lat="45.65999" lon="6.66443">
        <ele>2572.63</ele>
        <time>2018-02-07T14:10:08Z</time>
      </trkpt>
      <trkpt lat="45.65992" lon="6.66444">
        <ele>2574.07</ele>
        <time>2018-02-07T14:10:22Z</time>
      </trkpt>
      <trkpt lat="45.65986" lon="6.66443">
        <ele>2575.03</ele>
        <time>2018-02-07T14:10:34Z</time>
      </trkpt>
      <trkpt lat="45.65983" lon="6.66442">
        <ele>2575.99</ele>
        <time>2018-02-07T14:10:46Z</time>
      </trkpt>
      <trkpt lat="45.65987" lon="6.66441">
        <ele>2576.47</ele>
        <time>2018-02-07T14:11:02Z</time>
      </trkpt>
      <trkpt lat="45.65992" lon="6.66446">
        <ele>2577.91</ele>
        <time>2018-02-07T14:11:15Z</time>
      </trkpt>
      <trkpt lat="45.65997" lon="6.66451">
        <ele>2579.84</ele>
        <time>2018-02-07T14:11:27Z</time>
      </trkpt>
      <trkpt lat="45.66" lon="6.66454">
        <ele>2581.28</ele>
        <time>2018-02-07T14:11:40Z</time>
      </trkpt>
      <trkpt lat="45.66001" lon="6.66456">
        <ele>2581.76</ele>
        <time>2018-02-07T14:11:51Z</time>
      </trkpt>
      <trkpt lat="45.65994" lon="6.66459">
        <ele>2582.72</ele>
        <time>2018-02-07T14:12:05Z</time>
      </trkpt>
      <trkpt lat="45.65986" lon="6.66458">
        <ele>2584.16</ele>
        <time>2018-02-07T14:12:19Z</time>
      </trkpt>
      <trkpt lat="45.65979" lon="6.66458">
        <ele>2585.6</ele>
        <time>2018-02-07T14:12:33Z</time>
      </trkpt>
      <trkpt lat="45.65983" lon="6.66459">
        <ele>2586.08</ele>
        <time>2018-02-07T14:12:48Z</time>
      </trkpt>
      <trkpt lat="45.65988" lon="6.66462">
        <ele>2587.04</ele>
        <time>2018-02-07T14:12:59Z</time>
      </trkpt>
      <trkpt lat="45.65993" lon="6.66465">
        <ele>2588.49</ele>
        <time>2018-02-07T14:13:10Z</time>
      </trkpt>
      <trkpt lat="45.65998" lon="6.66469">
        <ele>2589.93</ele>
        <time>2018-02-07T14:13:22Z</time>
      </trkpt>
      <trkpt lat="45.66002" lon="6.6647">
        <ele>2590.89</ele>
        <time>2018-02-07T14:13:33Z</time>
      </trkpt>
      <trkpt lat="45.66008" lon="6.66471">
        <ele>2592.33</ele>
        <time>2018-02-07T14:13:46Z</time>
      </trkpt>
      <trkpt lat="45.66013" lon="6.66472">
        <ele>2593.77</ele>
        <time>2018-02-07T14:13:57Z</time>
      </trkpt>
      <trkpt lat="45.66012" lon="6.66475">
        <ele>2594.25</ele>
        <time>2018-02-07T14:14:07Z</time>
      </trkpt>
      <trkpt lat="45.66001" lon="6.66479">
        <ele>2594.74</ele>
        <time>2018-02-07T14:14:23Z</time>
      </trkpt>
      <trkpt lat="45.65994" lon="6.66481">
        <ele>2595.7</ele>
        <time>2018-02-07T14:14:36Z</time>
      </trkpt>
      <trkpt lat="45.65988" lon="6.66483">
        <ele>2597.62</ele>
        <time>2018-02-07T14:14:49Z</time>
      </trkpt>
      <trkpt lat="45.65983" lon="6.66484">
        <ele>2599.06</ele>
        <time>2018-02-07T14:15:01Z</time>
      </trkpt>
      <trkpt lat="45.65983" lon="6.66485">
        <ele>2599.54</ele>
        <time>2018-02-07T14:15:13Z</time>
      </trkpt>
      <trkpt lat="45.65987" lon="6.66487">
        <ele>2600.5</ele>
        <time>2018-02-07T14:15:34Z</time>
      </trkpt>
      <trkpt lat="45.65991" lon="6.6649">
        <ele>2601.95</ele>
        <time>2018-02-07T14:15:47Z</time>
      </trkpt>
      <trkpt lat="45.65995" lon="6.66494">
        <ele>2603.39</ele>
        <time>2018-02-07T14:15:59Z</time>
      </trkpt>
      <trkpt lat="45.65999" lon="6.66495">
        <ele>2603.87</ele>
        <time>2018-02-07T14:16:10Z</time>
      </trkpt>
      <trkpt lat="45.66004" lon="6.66498">
        <ele>2606.27</ele>
        <time>2018-02-07T14:16:22Z</time>
      </trkpt>
      <trkpt lat="45.66008" lon="6.66501">
        <ele>2607.23</ele>
        <time>2018-02-07T14:16:34Z</time>
      </trkpt>
      <trkpt lat="45.66013" lon="6.66505">
        <ele>2608.19</ele>
        <time>2018-02-07T14:16:46Z</time>
      </trkpt>
      <trkpt lat="45.66018" lon="6.66502">
        <ele>2609.64</ele>
        <time>2018-02-07T14:17:00Z</time>
      </trkpt>
      <trkpt lat="45.66023" lon="6.66502">
        <ele>2611.08</ele>
        <time>2018-02-07T14:17:12Z</time>
      </trkpt>
      <trkpt lat="45.66025" lon="6.66496">
        <ele>2611.56</ele>
        <time>2018-02-07T14:17:33Z</time>
      </trkpt>
      <trkpt lat="45.6603" lon="6.66499">
        <ele>2613</ele>
        <time>2018-02-07T14:17:47Z</time>
      </trkpt>
      <trkpt lat="45.66031" lon="6.66503">
        <ele>2613.48</ele>
        <time>2018-02-07T14:18:03Z</time>
      </trkpt>
      <trkpt lat="45.66022" lon="6.66507">
        <ele>2614.44</ele>
        <time>2018-02-07T14:18:18Z</time>
      </trkpt>
      <trkpt lat="45.66019" lon="6.6651">
        <ele>2615.4</ele>
        <time>2018-02-07T14:18:30Z</time>
      </trkpt>
      <trkpt lat="45.66015" lon="6.66513">
        <ele>2616.37</ele>
        <time>2018-02-07T14:18:47Z</time>
      </trkpt>
      <trkpt lat="45.66023" lon="6.66513">
        <ele>2616.85</ele>
        <time>2018-02-07T14:19:01Z</time>
      </trkpt>
      <trkpt lat="45.66028" lon="6.66514">
        <ele>2617.81</ele>
        <time>2018-02-07T14:19:16Z</time>
      </trkpt>
      <trkpt lat="45.66027" lon="6.66516">
        <ele>2618.77</ele>
        <time>2018-02-07T14:19:30Z</time>
      </trkpt>
      <trkpt lat="45.66023" lon="6.66518">
        <ele>2619.25</ele>
        <time>2018-02-07T14:19:44Z</time>
      </trkpt>
      <trkpt lat="45.66019" lon="6.66522">
        <ele>2620.69</ele>
        <time>2018-02-07T14:20:06Z</time>
      </trkpt>
      <trkpt lat="45.66016" lon="6.66526">
        <ele>2622.13</ele>
        <time>2018-02-07T14:20:29Z</time>
      </trkpt>
      <trkpt lat="45.66021" lon="6.66522">
        <ele>2622.13</ele>
        <time>2018-02-07T14:20:45Z</time>
      </trkpt>
      <trkpt lat="45.66026" lon="6.66523">
        <ele>2623.09</ele>
        <time>2018-02-07T14:20:57Z</time>
      </trkpt>
      <trkpt lat="45.66034" lon="6.66522">
        <ele>2625.02</ele>
        <time>2018-02-07T14:21:10Z</time>
      </trkpt>
      <trkpt lat="45.66034" lon="6.66525">
        <ele>2625.02</ele>
        <time>2018-02-07T14:21:23Z</time>
      </trkpt>
      <trkpt lat="45.66032" lon="6.66529">
        <ele>2625.5</ele>
        <time>2018-02-07T14:21:39Z</time>
      </trkpt>
      <trkpt lat="45.66025" lon="6.6653">
        <ele>2626.94</ele>
        <time>2018-02-07T14:21:52Z</time>
      </trkpt>
      <trkpt lat="45.66028" lon="6.66531">
        <ele>2626.94</ele>
        <time>2018-02-07T14:22:05Z</time>
      </trkpt>
      <trkpt lat="45.66035" lon="6.66534">
        <ele>2628.86</ele>
        <time>2018-02-07T14:22:18Z</time>
      </trkpt>
      <trkpt lat="45.66041" lon="6.66536">
        <ele>2630.3</ele>
        <time>2018-02-07T14:22:30Z</time>
      </trkpt>
      <trkpt lat="45.66045" lon="6.66538">
        <ele>2631.27</ele>
        <time>2018-02-07T14:22:45Z</time>
      </trkpt>
      <trkpt lat="45.66048" lon="6.66539">
        <ele>2631.75</ele>
        <time>2018-02-07T14:23:03Z</time>
      </trkpt>
      <trkpt lat="45.66049" lon="6.66541">
        <ele>2632.71</ele>
        <time>2018-02-07T14:23:17Z</time>
      </trkpt>
      <trkpt lat="45.66043" lon="6.66545">
        <ele>2634.15</ele>
        <time>2018-02-07T14:23:31Z</time>
      </trkpt>
      <trkpt lat="45.6604" lon="6.66544">
        <ele>2635.11</ele>
        <time>2018-02-07T14:23:49Z</time>
      </trkpt>
      <trkpt lat="45.66038" lon="6.66547">
        <ele>2635.59</ele>
        <time>2018-02-07T14:24:07Z</time>
      </trkpt>
      <trkpt lat="45.66039" lon="6.66547">
        <ele>2636.55</ele>
        <time>2018-02-07T14:24:22Z</time>
      </trkpt>
      <trkpt lat="45.66044" lon="6.6655">
        <ele>2637.51</ele>
        <time>2018-02-07T14:24:34Z</time>
      </trkpt>
      <trkpt lat="45.66049" lon="6.66551">
        <ele>2638.96</ele>
        <time>2018-02-07T14:24:45Z</time>
      </trkpt>
      <trkpt lat="45.66054" lon="6.66553">
        <ele>2640.88</ele>
        <time>2018-02-07T14:24:58Z</time>
      </trkpt>
      <trkpt lat="45.66056" lon="6.66555">
        <ele>2641.36</ele>
        <time>2018-02-07T14:25:11Z</time>
      </trkpt>
      <trkpt lat="45.66059" lon="6.66554">
        <ele>2642.32</ele>
        <time>2018-02-07T14:25:23Z</time>
      </trkpt>
      <trkpt lat="45.66066" lon="6.66556">
        <ele>2644.72</ele>
        <time>2018-02-07T14:25:38Z</time>
      </trkpt>
      <trkpt lat="45.66069" lon="6.66555">
        <ele>2645.21</ele>
        <time>2018-02-07T14:25:51Z</time>
      </trkpt>
      <trkpt lat="45.66071" lon="6.66556">
        <ele>2645.21</ele>
        <time>2018-02-07T14:26:13Z</time>
      </trkpt>
      <trkpt lat="45.66071" lon="6.66556">
        <ele>2646.65</ele>
        <time>2018-02-07T14:26:26Z</time>
      </trkpt>
      <trkpt lat="45.66072" lon="6.66559">
        <ele>2646.65</ele>
        <time>2018-02-07T14:26:40Z</time>
      </trkpt>
      <trkpt lat="45.6607" lon="6.66564">
        <ele>2648.09</ele>
        <time>2018-02-07T14:26:54Z</time>
      </trkpt>
      <trkpt lat="45.66071" lon="6.6656">
        <ele>2648.09</ele>
        <time>2018-02-07T14:27:08Z</time>
      </trkpt>
      <trkpt lat="45.66076" lon="6.66559">
        <ele>2650.01</ele>
        <time>2018-02-07T14:27:22Z</time>
      </trkpt>
      <trkpt lat="45.66077" lon="6.66561">
        <ele>2650.97</ele>
        <time>2018-02-07T14:27:35Z</time>
      </trkpt>
      <trkpt lat="45.66077" lon="6.66563">
        <ele>2650.97</ele>
        <time>2018-02-07T14:27:51Z</time>
      </trkpt>
      <trkpt lat="45.66073" lon="6.6657">
        <ele>2652.42</ele>
        <time>2018-02-07T14:28:05Z</time>
      </trkpt>
      <trkpt lat="45.6607" lon="6.66576">
        <ele>2653.38</ele>
        <time>2018-02-07T14:28:19Z</time>
      </trkpt>
      <trkpt lat="45.66066" lon="6.66579">
        <ele>2654.34</ele>
        <time>2018-02-07T14:28:35Z</time>
      </trkpt>
      <trkpt lat="45.66069" lon="6.66577">
        <ele>2654.82</ele>
        <time>2018-02-07T14:28:47Z</time>
      </trkpt>
      <trkpt lat="45.66072" lon="6.66575">
        <ele>2655.78</ele>
        <time>2018-02-07T14:29:01Z</time>
      </trkpt>
      <trkpt lat="45.66074" lon="6.66575">
        <ele>2657.22</ele>
        <time>2018-02-07T14:29:12Z</time>
      </trkpt>
      <trkpt lat="45.66078" lon="6.66574">
        <ele>2658.66</ele>
        <time>2018-02-07T14:29:25Z</time>
      </trkpt>
      <trkpt lat="45.66083" lon="6.66573">
        <ele>2660.11</ele>
        <time>2018-02-07T14:29:38Z</time>
      </trkpt>
      <trkpt lat="45.66087" lon="6.66572">
        <ele>2660.59</ele>
        <time>2018-02-07T14:29:55Z</time>
      </trkpt>
      <trkpt lat="45.66089" lon="6.66575">
        <ele>2661.55</ele>
        <time>2018-02-07T14:30:08Z</time>
      </trkpt>
      <trkpt lat="45.66085" lon="6.66579">
        <ele>2662.03</ele>
        <time>2018-02-07T14:30:28Z</time>
      </trkpt>
      <trkpt lat="45.66082" lon="6.66587">
        <ele>2663.95</ele>
        <time>2018-02-07T14:30:41Z</time>
      </trkpt>
      <trkpt lat="45.6608" lon="6.66594">
        <ele>2664.91</ele>
        <time>2018-02-07T14:30:59Z</time>
      </trkpt>
      <trkpt lat="45.66078" lon="6.66598">
        <ele>2666.35</ele>
        <time>2018-02-07T14:31:15Z</time>
      </trkpt>
      <trkpt lat="45.66077" lon="6.66595">
        <ele>2666.83</ele>
        <time>2018-02-07T14:31:31Z</time>
      </trkpt>
      <trkpt lat="45.6608" lon="6.66593">
        <ele>2668.28</ele>
        <time>2018-02-07T14:31:43Z</time>
      </trkpt>
      <trkpt lat="45.66082" lon="6.66591">
        <ele>2669.24</ele>
        <time>2018-02-07T14:31:58Z</time>
      </trkpt>
      <trkpt lat="45.66085" lon="6.66594">
        <ele>2669.72</ele>
        <time>2018-02-07T14:32:10Z</time>
      </trkpt>
      <trkpt lat="45.66083" lon="6.66597">
        <ele>2669.72</ele>
        <time>2018-02-07T14:32:25Z</time>
      </trkpt>
      <trkpt lat="45.66084" lon="6.666">
        <ele>2670.68</ele>
        <time>2018-02-07T14:32:37Z</time>
      </trkpt>
      <trkpt lat="45.66084" lon="6.66602">
        <ele>2671.16</ele>
        <time>2018-02-07T14:32:58Z</time>
      </trkpt>
      <trkpt lat="45.66083" lon="6.66606">
        <ele>2672.12</ele>
        <time>2018-02-07T14:33:11Z</time>
      </trkpt>
      <trkpt lat="45.66077" lon="6.66603">
        <ele>2671.64</ele>
        <time>2018-02-07T14:33:24Z</time>
      </trkpt>
      <trkpt lat="45.66076" lon="6.66604">
        <ele>2671.64</ele>
        <time>2018-02-07T14:33:43Z</time>
      </trkpt>
      <trkpt lat="45.66077" lon="6.66605">
        <ele>2671.64</ele>
        <time>2018-02-07T14:34:01Z</time>
      </trkpt>
      <trkpt lat="45.66078" lon="6.66607">
        <ele>2671.16</ele>
        <time>2018-02-07T14:34:17Z</time>
      </trkpt>
      <trkpt lat="45.6608" lon="6.66607">
        <ele>2671.64</ele>
        <time>2018-02-07T14:34:38Z</time>
      </trkpt>
      <trkpt lat="45.66079" lon="6.66609">
        <ele>2671.16</ele>
        <time>2018-02-07T14:35:00Z</time>
      </trkpt>
      <trkpt lat="45.66079" lon="6.66613">
        <ele>2672.12</ele>
        <time>2018-02-07T14:35:14Z</time>
      </trkpt>
      <trkpt lat="45.66076" lon="6.66615">
        <ele>2673.56</ele>
        <time>2018-02-07T14:35:28Z</time>
      </trkpt>
      <trkpt lat="45.66073" lon="6.66619">
        <ele>2674.52</ele>
        <time>2018-02-07T14:35:40Z</time>
      </trkpt>
      <trkpt lat="45.6607" lon="6.66625">
        <ele>2675.97</ele>
        <time>2018-02-07T14:35:53Z</time>
      </trkpt>
      <trkpt lat="45.66062" lon="6.66624">
        <ele>2676.93</ele>
        <time>2018-02-07T14:36:08Z</time>
      </trkpt>
      <trkpt lat="45.66056" lon="6.66627">
        <ele>2677.89</ele>
        <time>2018-02-07T14:36:22Z</time>
      </trkpt>
      <trkpt lat="45.6605" lon="6.66634">
        <ele>2679.33</ele>
        <time>2018-02-07T14:36:35Z</time>
      </trkpt>
      <trkpt lat="45.66043" lon="6.66637">
        <ele>2679.81</ele>
        <time>2018-02-07T14:36:47Z</time>
      </trkpt>
      <trkpt lat="45.66041" lon="6.66634">
        <ele>2680.77</ele>
        <time>2018-02-07T14:36:58Z</time>
      </trkpt>
      <trkpt lat="45.66042" lon="6.66634">
        <ele>2680.77</ele>
        <time>2018-02-07T14:37:17Z</time>
      </trkpt>
      <trkpt lat="45.66039" lon="6.66634">
        <ele>2680.29</ele>
        <time>2018-02-07T14:37:38Z</time>
      </trkpt>
      <trkpt lat="45.66044" lon="6.66637">
        <ele>2679.33</ele>
        <time>2018-02-07T14:37:53Z</time>
      </trkpt>
      <trkpt lat="45.66044" lon="6.66633">
        <ele>2678.85</ele>
        <time>2018-02-07T14:38:20Z</time>
      </trkpt>
      <trkpt lat="45.66045" lon="6.66631">
        <ele>2678.85</ele>
        <time>2018-02-07T14:38:48Z</time>
      </trkpt>
      <trkpt lat="45.66038" lon="6.66635">
        <ele>2679.33</ele>
        <time>2018-02-07T14:39:28Z</time>
      </trkpt>
      <trkpt lat="45.66042" lon="6.66634">
        <ele>2678.85</ele>
        <time>2018-02-07T14:39:46Z</time>
      </trkpt>
      <trkpt lat="45.66044" lon="6.66634">
        <ele>2678.85</ele>
        <time>2018-02-07T14:40:17Z</time>
      </trkpt>
      <trkpt lat="45.66041" lon="6.66634">
        <ele>2678.85</ele>
        <time>2018-02-07T14:40:49Z</time>
      </trkpt>
      <trkpt lat="45.66041" lon="6.66635">
        <ele>2678.85</ele>
        <time>2018-02-07T14:41:16Z</time>
      </trkpt>
      <trkpt lat="45.66041" lon="6.66634">
        <ele>2678.85</ele>
        <time>2018-02-07T14:41:47Z</time>
      </trkpt>
      <trkpt lat="45.66042" lon="6.66634">
        <ele>2678.37</ele>
        <time>2018-02-07T14:42:17Z</time>
      </trkpt>
      <trkpt lat="45.66042" lon="6.66634">
        <ele>2678.37</ele>
        <time>2018-02-07T14:42:46Z</time>
      </trkpt>
      <trkpt lat="45.66044" lon="6.66635">
        <ele>2678.85</ele>
        <time>2018-02-07T14:43:11Z</time>
      </trkpt>
      <trkpt lat="45.66046" lon="6.66634">
        <ele>2678.85</ele>
        <time>2018-02-07T14:43:45Z</time>
      </trkpt>
      <trkpt lat="45.66047" lon="6.66633">
        <ele>2678.37</ele>
        <time>2018-02-07T14:44:28Z</time>
      </trkpt>
      <trkpt lat="45.66045" lon="6.66637">
        <ele>2678.37</ele>
        <time>2018-02-07T14:45:16Z</time>
      </trkpt>
      <trkpt lat="45.66047" lon="6.66637">
        <ele>2678.37</ele>
        <time>2018-02-07T14:45:50Z</time>
      </trkpt>
      <trkpt lat="45.66044" lon="6.66635">
        <ele>2679.33</ele>
        <time>2018-02-07T14:46:09Z</time>
      </trkpt>
      <trkpt lat="45.66044" lon="6.66634">
        <ele>2679.33</ele>
        <time>2018-02-07T14:46:32Z</time>
      </trkpt>
      <trkpt lat="45.66043" lon="6.66635">
        <ele>2679.33</ele>
        <time>2018-02-07T14:46:58Z</time>
      </trkpt>
      <trkpt lat="45.66042" lon="6.66636">
        <ele>2678.85</ele>
        <time>2018-02-07T14:47:28Z</time>
      </trkpt>
      <trkpt lat="45.66043" lon="6.66635">
        <ele>2678.85</ele>
        <time>2018-02-07T14:47:55Z</time>
      </trkpt>
      <trkpt lat="45.66042" lon="6.66636">
        <ele>2678.85</ele>
        <time>2018-02-07T14:48:19Z</time>
      </trkpt>
      <trkpt lat="45.66041" lon="6.66635">
        <ele>2678.85</ele>
        <time>2018-02-07T14:48:48Z</time>
      </trkpt>
      <trkpt lat="45.66041" lon="6.66636">
        <ele>2679.81</ele>
        <time>2018-02-07T14:49:13Z</time>
      </trkpt>
      <trkpt lat="45.66043" lon="6.66636">
        <ele>2679.33</ele>
        <time>2018-02-07T14:49:47Z</time>
      </trkpt>
      <trkpt lat="45.66042" lon="6.66635">
        <ele>2678.85</ele>
        <time>2018-02-07T14:50:16Z</time>
      </trkpt>
      <trkpt lat="45.66042" lon="6.66636">
        <ele>2678.85</ele>
        <time>2018-02-07T14:50:59Z</time>
      </trkpt>
      <trkpt lat="45.66041" lon="6.66635">
        <ele>2678.37</ele>
        <time>2018-02-07T14:51:28Z</time>
      </trkpt>
      <trkpt lat="45.66042" lon="6.66634">
        <ele>2678.85</ele>
        <time>2018-02-07T14:52:01Z</time>
      </trkpt>
      <trkpt lat="45.66045" lon="6.66633">
        <ele>2678.37</ele>
        <time>2018-02-07T14:52:20Z</time>
      </trkpt>
      <trkpt lat="45.66042" lon="6.66634">
        <ele>2678.37</ele>
        <time>2018-02-07T14:52:46Z</time>
      </trkpt>
      <trkpt lat="45.66042" lon="6.66635">
        <ele>2678.37</ele>
        <time>2018-02-07T14:53:06Z</time>
      </trkpt>
      <trkpt lat="45.66043" lon="6.66633">
        <ele>2678.37</ele>
        <time>2018-02-07T14:53:31Z</time>
      </trkpt>
      <trkpt lat="45.66043" lon="6.66634">
        <ele>2678.37</ele>
        <time>2018-02-07T14:53:57Z</time>
      </trkpt>
      <trkpt lat="45.66043" lon="6.66634">
        <ele>2677.89</ele>
        <time>2018-02-07T14:54:37Z</time>
      </trkpt>
      <trkpt lat="45.66045" lon="6.66632">
        <ele>2678.37</ele>
        <time>2018-02-07T14:55:11Z</time>
      </trkpt>
      <trkpt lat="45.66046" lon="6.66635">
        <ele>2677.89</ele>
        <time>2018-02-07T14:55:31Z</time>
      </trkpt>
      <trkpt lat="45.66044" lon="6.66634">
        <ele>2677.89</ele>
        <time>2018-02-07T14:55:53Z</time>
      </trkpt>
      <trkpt lat="45.66044" lon="6.66639">
        <ele>2677.89</ele>
        <time>2018-02-07T14:56:19Z</time>
      </trkpt>
      <trkpt lat="45.66045" lon="6.66641">
        <ele>2677.89</ele>
        <time>2018-02-07T14:56:33Z</time>
      </trkpt>
      <trkpt lat="45.66043" lon="6.66636">
        <ele>2677.89</ele>
        <time>2018-02-07T14:56:52Z</time>
      </trkpt>
      <trkpt lat="45.66042" lon="6.66633">
        <ele>2678.37</ele>
        <time>2018-02-07T14:57:05Z</time>
      </trkpt>
      <trkpt lat="45.66039" lon="6.66633">
        <ele>2678.37</ele>
        <time>2018-02-07T14:57:33Z</time>
      </trkpt>
      <trkpt lat="45.66027" lon="6.6663">
        <ele>2678.37</ele>
        <time>2018-02-07T14:57:48Z</time>
      </trkpt>
      <trkpt lat="45.66017" lon="6.66627">
        <ele>2679.33</ele>
        <time>2018-02-07T14:58:01Z</time>
      </trkpt>
      <trkpt lat="45.66012" lon="6.66626">
        <ele>2680.29</ele>
        <time>2018-02-07T14:58:16Z</time>
      </trkpt>
      <trkpt lat="45.66006" lon="6.66628">
        <ele>2681.25</ele>
        <time>2018-02-07T14:58:27Z</time>
      </trkpt>
      <trkpt lat="45.66002" lon="6.66626">
        <ele>2682.7</ele>
        <time>2018-02-07T14:58:41Z</time>
      </trkpt>
      <trkpt lat="45.65995" lon="6.66628">
        <ele>2684.14</ele>
        <time>2018-02-07T14:58:56Z</time>
      </trkpt>
      <trkpt lat="45.65981" lon="6.66625">
        <ele>2683.66</ele>
        <time>2018-02-07T14:59:13Z</time>
      </trkpt>
      <trkpt lat="45.65974" lon="6.66622">
        <ele>2684.62</ele>
        <time>2018-02-07T14:59:26Z</time>
      </trkpt>
      <trkpt lat="45.65964" lon="6.66619">
        <ele>2684.62</ele>
        <time>2018-02-07T14:59:38Z</time>
      </trkpt>
      <trkpt lat="45.65959" lon="6.66619">
        <ele>2684.62</ele>
        <time>2018-02-07T14:59:48Z</time>
      </trkpt>
      <trkpt lat="45.65954" lon="6.66617">
        <ele>2684.62</ele>
        <time>2018-02-07T15:00:02Z</time>
      </trkpt>
      <trkpt lat="45.65943" lon="6.66615">
        <ele>2684.14</ele>
        <time>2018-02-07T15:00:16Z</time>
      </trkpt>
      <trkpt lat="45.65937" lon="6.66612">
        <ele>2685.1</ele>
        <time>2018-02-07T15:00:28Z</time>
      </trkpt>
      <trkpt lat="45.65928" lon="6.66606">
        <ele>2686.54</ele>
        <time>2018-02-07T15:00:44Z</time>
      </trkpt>
      <trkpt lat="45.65925" lon="6.66606">
        <ele>2687.02</ele>
        <time>2018-02-07T15:00:57Z</time>
      </trkpt>
      <trkpt lat="45.65925" lon="6.66604">
        <ele>2686.54</ele>
        <time>2018-02-07T15:01:22Z</time>
      </trkpt>
      <trkpt lat="45.65923" lon="6.66603">
        <ele>2687.02</ele>
        <time>2018-02-07T15:01:40Z</time>
      </trkpt>
      <trkpt lat="45.65924" lon="6.66605">
        <ele>2686.54</ele>
        <time>2018-02-07T15:02:00Z</time>
      </trkpt>
      <trkpt lat="45.65924" lon="6.66604">
        <ele>2687.02</ele>
        <time>2018-02-07T15:02:18Z</time>
      </trkpt>
      <trkpt lat="45.65925" lon="6.66605">
        <ele>2687.98</ele>
        <time>2018-02-07T15:02:37Z</time>
      </trkpt>
      <trkpt lat="45.65925" lon="6.66603">
        <ele>2687.02</ele>
        <time>2018-02-07T15:02:57Z</time>
      </trkpt>
      <trkpt lat="45.65921" lon="6.66602">
        <ele>2687.5</ele>
        <time>2018-02-07T15:03:15Z</time>
      </trkpt>
      <trkpt lat="45.65914" lon="6.66603">
        <ele>2689.43</ele>
        <time>2018-02-07T15:03:32Z</time>
      </trkpt>
      <trkpt lat="45.65908" lon="6.66604">
        <ele>2690.39</ele>
        <time>2018-02-07T15:03:48Z</time>
      </trkpt>
      <trkpt lat="45.65902" lon="6.66604">
        <ele>2690.87</ele>
        <time>2018-02-07T15:04:00Z</time>
      </trkpt>
      <trkpt lat="45.65897" lon="6.66603">
        <ele>2690.87</ele>
        <time>2018-02-07T15:04:15Z</time>
      </trkpt>
      <trkpt lat="45.65892" lon="6.66601">
        <ele>2692.31</ele>
        <time>2018-02-07T15:04:29Z</time>
      </trkpt>
      <trkpt lat="45.65888" lon="6.66601">
        <ele>2692.31</ele>
        <time>2018-02-07T15:04:42Z</time>
      </trkpt>
      <trkpt lat="45.65885" lon="6.66601">
        <ele>2691.83</ele>
        <time>2018-02-07T15:04:54Z</time>
      </trkpt>
      <trkpt lat="45.65882" lon="6.66601">
        <ele>2691.35</ele>
        <time>2018-02-07T15:05:08Z</time>
      </trkpt>
      <trkpt lat="45.65878" lon="6.66602">
        <ele>2690.39</ele>
        <time>2018-02-07T15:05:28Z</time>
      </trkpt>
      <trkpt lat="45.65875" lon="6.66604">
        <ele>2689.91</ele>
        <time>2018-02-07T15:05:41Z</time>
      </trkpt>
      <trkpt lat="45.65873" lon="6.66606">
        <ele>2689.43</ele>
        <time>2018-02-07T15:05:55Z</time>
      </trkpt>
      <trkpt lat="45.65871" lon="6.66611">
        <ele>2688.46</ele>
        <time>2018-02-07T15:06:08Z</time>
      </trkpt>
      <trkpt lat="45.65867" lon="6.66615">
        <ele>2687.5</ele>
        <time>2018-02-07T15:06:20Z</time>
      </trkpt>
      <trkpt lat="45.65859" lon="6.66619">
        <ele>2687.98</ele>
        <time>2018-02-07T15:06:34Z</time>
      </trkpt>
      <trkpt lat="45.65853" lon="6.66619">
        <ele>2689.43</ele>
        <time>2018-02-07T15:06:49Z</time>
      </trkpt>
      <trkpt lat="45.65844" lon="6.6662">
        <ele>2690.87</ele>
        <time>2018-02-07T15:07:04Z</time>
      </trkpt>
      <trkpt lat="45.65837" lon="6.66624">
        <ele>2692.31</ele>
        <time>2018-02-07T15:07:20Z</time>
      </trkpt>
      <trkpt lat="45.65831" lon="6.66623">
        <ele>2693.27</ele>
        <time>2018-02-07T15:07:32Z</time>
      </trkpt>
      <trkpt lat="45.65826" lon="6.66629">
        <ele>2694.23</ele>
        <time>2018-02-07T15:07:46Z</time>
      </trkpt>
      <trkpt lat="45.65821" lon="6.66632">
        <ele>2694.23</ele>
        <time>2018-02-07T15:08:00Z</time>
      </trkpt>
      <trkpt lat="45.65816" lon="6.66634">
        <ele>2694.71</ele>
        <time>2018-02-07T15:08:10Z</time>
      </trkpt>
      <trkpt lat="45.65807" lon="6.66634">
        <ele>2697.12</ele>
        <time>2018-02-07T15:08:28Z</time>
      </trkpt>
      <trkpt lat="45.65801" lon="6.66637">
        <ele>2697.6</ele>
        <time>2018-02-07T15:08:37Z</time>
      </trkpt>
      <trkpt lat="45.65795" lon="6.6664">
        <ele>2698.08</ele>
        <time>2018-02-07T15:08:51Z</time>
      </trkpt>
      <trkpt lat="45.65786" lon="6.66642">
        <ele>2699.04</ele>
        <time>2018-02-07T15:09:10Z</time>
      </trkpt>
      <trkpt lat="45.65778" lon="6.66645">
        <ele>2699.04</ele>
        <time>2018-02-07T15:09:20Z</time>
      </trkpt>
      <trkpt lat="45.6577" lon="6.66648">
        <ele>2699.52</ele>
        <time>2018-02-07T15:09:39Z</time>
      </trkpt>
      <trkpt lat="45.65763" lon="6.6665">
        <ele>2700.48</ele>
        <time>2018-02-07T15:09:53Z</time>
      </trkpt>
      <trkpt lat="45.65758" lon="6.66652">
        <ele>2700.48</ele>
        <time>2018-02-07T15:10:04Z</time>
      </trkpt>
      <trkpt lat="45.6575" lon="6.66656">
        <ele>2701.44</ele>
        <time>2018-02-07T15:10:19Z</time>
      </trkpt>
      <trkpt lat="45.65743" lon="6.66658">
        <ele>2701.92</ele>
        <time>2018-02-07T15:10:33Z</time>
      </trkpt>
      <trkpt lat="45.65736" lon="6.66659">
        <ele>2702.4</ele>
        <time>2018-02-07T15:10:50Z</time>
      </trkpt>
      <trkpt lat="45.65729" lon="6.66661">
        <ele>2702.88</ele>
        <time>2018-02-07T15:11:02Z</time>
      </trkpt>
      <trkpt lat="45.65721" lon="6.66663">
        <ele>2703.36</ele>
        <time>2018-02-07T15:11:19Z</time>
      </trkpt>
      <trkpt lat="45.65715" lon="6.66662">
        <ele>2703.85</ele>
        <time>2018-02-07T15:11:37Z</time>
      </trkpt>
      <trkpt lat="45.65712" lon="6.66662">
        <ele>2703.85</ele>
        <time>2018-02-07T15:12:04Z</time>
      </trkpt>
      <trkpt lat="45.65706" lon="6.66662">
        <ele>2703.85</ele>
        <time>2018-02-07T15:12:18Z</time>
      </trkpt>
      <trkpt lat="45.65699" lon="6.66661">
        <ele>2703.85</ele>
        <time>2018-02-07T15:12:31Z</time>
      </trkpt>
      <trkpt lat="45.6569" lon="6.66658">
        <ele>2702.88</ele>
        <time>2018-02-07T15:12:45Z</time>
      </trkpt>
      <trkpt lat="45.65683" lon="6.66656">
        <ele>2702.4</ele>
        <time>2018-02-07T15:13:00Z</time>
      </trkpt>
      <trkpt lat="45.65675" lon="6.66654">
        <ele>2702.4</ele>
        <time>2018-02-07T15:13:13Z</time>
      </trkpt>
      <trkpt lat="45.65667" lon="6.6665">
        <ele>2702.88</ele>
        <time>2018-02-07T15:13:29Z</time>
      </trkpt>
      <trkpt lat="45.65658" lon="6.66647">
        <ele>2702.88</ele>
        <time>2018-02-07T15:13:46Z</time>
      </trkpt>
      <trkpt lat="45.6565" lon="6.66643">
        <ele>2702.4</ele>
        <time>2018-02-07T15:13:58Z</time>
      </trkpt>
      <trkpt lat="45.65641" lon="6.66639">
        <ele>2701.92</ele>
        <time>2018-02-07T15:14:12Z</time>
      </trkpt>
      <trkpt lat="45.6563" lon="6.66636">
        <ele>2701.44</ele>
        <time>2018-02-07T15:14:28Z</time>
      </trkpt>
      <trkpt lat="45.65623" lon="6.66633">
        <ele>2701.92</ele>
        <time>2018-02-07T15:14:42Z</time>
      </trkpt>
      <trkpt lat="45.65616" lon="6.66632">
        <ele>2701.92</ele>
        <time>2018-02-07T15:14:57Z</time>
      </trkpt>
      <trkpt lat="45.65611" lon="6.66628">
        <ele>2701.92</ele>
        <time>2018-02-07T15:15:10Z</time>
      </trkpt>
      <trkpt lat="45.65603" lon="6.66625">
        <ele>2702.88</ele>
        <time>2018-02-07T15:15:26Z</time>
      </trkpt>
      <trkpt lat="45.65594" lon="6.66621">
        <ele>2702.88</ele>
        <time>2018-02-07T15:15:43Z</time>
      </trkpt>
      <trkpt lat="45.65587" lon="6.66619">
        <ele>2702.4</ele>
        <time>2018-02-07T15:15:56Z</time>
      </trkpt>
      <trkpt lat="45.65578" lon="6.66617">
        <ele>2702.88</ele>
        <time>2018-02-07T15:16:11Z</time>
      </trkpt>
      <trkpt lat="45.65568" lon="6.66614">
        <ele>2701.92</ele>
        <time>2018-02-07T15:16:26Z</time>
      </trkpt>
      <trkpt lat="45.65558" lon="6.66609">
        <ele>2701.44</ele>
        <time>2018-02-07T15:16:43Z</time>
      </trkpt>
      <trkpt lat="45.6555" lon="6.66608">
        <ele>2700.48</ele>
        <time>2018-02-07T15:16:57Z</time>
      </trkpt>
      <trkpt lat="45.6554" lon="6.66608">
        <ele>2700</ele>
        <time>2018-02-07T15:17:14Z</time>
      </trkpt>
      <trkpt lat="45.65532" lon="6.66608">
        <ele>2699.52</ele>
        <time>2018-02-07T15:17:27Z</time>
      </trkpt>
      <trkpt lat="45.65522" lon="6.6661">
        <ele>2698.08</ele>
        <time>2018-02-07T15:17:42Z</time>
      </trkpt>
      <trkpt lat="45.65513" lon="6.66613">
        <ele>2698.08</ele>
        <time>2018-02-07T15:17:56Z</time>
      </trkpt>
      <trkpt lat="45.65504" lon="6.66614">
        <ele>2697.6</ele>
        <time>2018-02-07T15:18:11Z</time>
      </trkpt>
      <trkpt lat="45.65494" lon="6.66616">
        <ele>2696.64</ele>
        <time>2018-02-07T15:18:25Z</time>
      </trkpt>
      <trkpt lat="45.65488" lon="6.66618">
        <ele>2696.64</ele>
        <time>2018-02-07T15:18:36Z</time>
      </trkpt>
      <trkpt lat="45.65482" lon="6.66621">
        <ele>2696.64</ele>
        <time>2018-02-07T15:18:48Z</time>
      </trkpt>
      <trkpt lat="45.65475" lon="6.66625">
        <ele>2695.19</ele>
        <time>2018-02-07T15:19:01Z</time>
      </trkpt>
      <trkpt lat="45.65468" lon="6.66627">
        <ele>2694.23</ele>
        <time>2018-02-07T15:19:12Z</time>
      </trkpt>
      <trkpt lat="45.65467" lon="6.66627">
        <ele>2693.75</ele>
        <time>2018-02-07T15:19:13Z</time>
      </trkpt>
      <trkpt lat="45.65456" lon="6.66635">
        <ele>2689.91</ele>
        <time>2018-02-07T15:19:20Z</time>
      </trkpt>
      <trkpt lat="45.65449" lon="6.66642">
        <ele>2687.98</ele>
        <time>2018-02-07T15:19:31Z</time>
      </trkpt>
      <trkpt lat="45.65442" lon="6.66654">
        <ele>2687.02</ele>
        <time>2018-02-07T15:19:45Z</time>
      </trkpt>
      <trkpt lat="45.65436" lon="6.66666">
        <ele>2687.5</ele>
        <time>2018-02-07T15:20:01Z</time>
      </trkpt>
      <trkpt lat="45.65433" lon="6.66674">
        <ele>2687.5</ele>
        <time>2018-02-07T15:20:14Z</time>
      </trkpt>
      <trkpt lat="45.65433" lon="6.66678">
        <ele>2687.02</ele>
        <time>2018-02-07T15:20:28Z</time>
      </trkpt>
      <trkpt lat="45.65431" lon="6.66685">
        <ele>2686.06</ele>
        <time>2018-02-07T15:20:38Z</time>
      </trkpt>
      <trkpt lat="45.65429" lon="6.66699">
        <ele>2684.62</ele>
        <time>2018-02-07T15:20:54Z</time>
      </trkpt>
      <trkpt lat="45.65425" lon="6.6671">
        <ele>2685.1</ele>
        <time>2018-02-07T15:21:07Z</time>
      </trkpt>
      <trkpt lat="45.65424" lon="6.66716">
        <ele>2686.06</ele>
        <time>2018-02-07T15:21:20Z</time>
      </trkpt>
      <trkpt lat="45.65422" lon="6.66719">
        <ele>2687.02</ele>
        <time>2018-02-07T15:21:35Z</time>
      </trkpt>
      <trkpt lat="45.6542" lon="6.66722">
        <ele>2687.02</ele>
        <time>2018-02-07T15:21:51Z</time>
      </trkpt>
      <trkpt lat="45.6542" lon="6.66723">
        <ele>2686.54</ele>
        <time>2018-02-07T15:22:07Z</time>
      </trkpt>
      <trkpt lat="45.65419" lon="6.66726">
        <ele>2687.02</ele>
        <time>2018-02-07T15:22:30Z</time>
      </trkpt>
      <trkpt lat="45.65421" lon="6.66721">
        <ele>2687.5</ele>
        <time>2018-02-07T15:22:46Z</time>
      </trkpt>
      <trkpt lat="45.6542" lon="6.66721">
        <ele>2687.5</ele>
        <time>2018-02-07T15:22:59Z</time>
      </trkpt>
      <trkpt lat="45.65419" lon="6.66724">
        <ele>2687.5</ele>
        <time>2018-02-07T15:23:13Z</time>
      </trkpt>
      <trkpt lat="45.65419" lon="6.66724">
        <ele>2687.5</ele>
        <time>2018-02-07T15:23:27Z</time>
      </trkpt>
      <trkpt lat="45.65418" lon="6.66723">
        <ele>2687.98</ele>
        <time>2018-02-07T15:23:43Z</time>
      </trkpt>
      <trkpt lat="45.65415" lon="6.66721">
        <ele>2688.94</ele>
        <time>2018-02-07T15:23:58Z</time>
      </trkpt>
      <trkpt lat="45.65416" lon="6.66715">
        <ele>2688.94</ele>
        <time>2018-02-07T15:24:13Z</time>
      </trkpt>
      <trkpt lat="45.65418" lon="6.6672">
        <ele>2688.94</ele>
        <time>2018-02-07T15:24:27Z</time>
      </trkpt>
      <trkpt lat="45.65417" lon="6.66721">
        <ele>2689.43</ele>
        <time>2018-02-07T15:24:45Z</time>
      </trkpt>
      <trkpt lat="45.65415" lon="6.66719">
        <ele>2689.43</ele>
        <time>2018-02-07T15:25:00Z</time>
      </trkpt>
      <trkpt lat="45.65415" lon="6.66718">
        <ele>2688.94</ele>
        <time>2018-02-07T15:25:13Z</time>
      </trkpt>
      <trkpt lat="45.65416" lon="6.66719">
        <ele>2688.94</ele>
        <time>2018-02-07T15:25:31Z</time>
      </trkpt>
      <trkpt lat="45.65418" lon="6.66717">
        <ele>2688.46</ele>
        <time>2018-02-07T15:25:47Z</time>
      </trkpt>
      <trkpt lat="45.65417" lon="6.66719">
        <ele>2687.5</ele>
        <time>2018-02-07T15:26:00Z</time>
      </trkpt>
      <trkpt lat="45.65418" lon="6.66718">
        <ele>2687.5</ele>
        <time>2018-02-07T15:26:22Z</time>
      </trkpt>
      <trkpt lat="45.65419" lon="6.66722">
        <ele>2687.5</ele>
        <time>2018-02-07T15:26:52Z</time>
      </trkpt>
      <trkpt lat="45.65419" lon="6.66725">
        <ele>2687.5</ele>
        <time>2018-02-07T15:27:18Z</time>
      </trkpt>
      <trkpt lat="45.65418" lon="6.66721">
        <ele>2687.5</ele>
        <time>2018-02-07T15:27:49Z</time>
      </trkpt>
      <trkpt lat="45.65415" lon="6.66728">
        <ele>2688.46</ele>
        <time>2018-02-07T15:28:26Z</time>
      </trkpt>
      <trkpt lat="45.6541" lon="6.66731">
        <ele>2688.94</ele>
        <time>2018-02-07T15:29:01Z</time>
      </trkpt>
      <trkpt lat="45.65414" lon="6.66728">
        <ele>2689.91</ele>
        <time>2018-02-07T15:29:35Z</time>
      </trkpt>
      <trkpt lat="45.65419" lon="6.66721">
        <ele>2690.39</ele>
        <time>2018-02-07T15:30:05Z</time>
      </trkpt>
      <trkpt lat="45.65416" lon="6.66718">
        <ele>2690.87</ele>
        <time>2018-02-07T15:30:39Z</time>
      </trkpt>
      <trkpt lat="45.65416" lon="6.6672">
        <ele>2691.83</ele>
        <time>2018-02-07T15:31:06Z</time>
      </trkpt>
      <trkpt lat="45.65412" lon="6.66717">
        <ele>2691.35</ele>
        <time>2018-02-07T15:31:34Z</time>
      </trkpt>
      <trkpt lat="45.65413" lon="6.6672">
        <ele>2691.83</ele>
        <time>2018-02-07T15:32:05Z</time>
      </trkpt>
      <trkpt lat="45.65416" lon="6.66715">
        <ele>2691.83</ele>
        <time>2018-02-07T15:32:32Z</time>
      </trkpt>
      <trkpt lat="45.65412" lon="6.66714">
        <ele>2692.31</ele>
        <time>2018-02-07T15:33:05Z</time>
      </trkpt>
      <trkpt lat="45.65412" lon="6.6672">
        <ele>2692.79</ele>
        <time>2018-02-07T15:33:38Z</time>
      </trkpt>
      <trkpt lat="45.65408" lon="6.66723">
        <ele>2693.27</ele>
        <time>2018-02-07T15:34:09Z</time>
      </trkpt>
      <trkpt lat="45.65412" lon="6.66727">
        <ele>2694.23</ele>
        <time>2018-02-07T15:34:51Z</time>
      </trkpt>
      <trkpt lat="45.65417" lon="6.66735">
        <ele>2695.67</ele>
        <time>2018-02-07T15:35:29Z</time>
      </trkpt>
      <trkpt lat="45.65416" lon="6.66726">
        <ele>2696.15</ele>
        <time>2018-02-07T15:36:08Z</time>
      </trkpt>
      <trkpt lat="45.6542" lon="6.66727">
        <ele>2696.64</ele>
        <time>2018-02-07T15:36:37Z</time>
      </trkpt>
      <trkpt lat="45.6542" lon="6.66725">
        <ele>2696.64</ele>
        <time>2018-02-07T15:36:59Z</time>
      </trkpt>
      <trkpt lat="45.65424" lon="6.66728">
        <ele>2697.12</ele>
        <time>2018-02-07T15:37:41Z</time>
      </trkpt>
      <trkpt lat="45.65415" lon="6.66727">
        <ele>2697.6</ele>
        <time>2018-02-07T15:38:13Z</time>
      </trkpt>
      <trkpt lat="45.65409" lon="6.66734">
        <ele>2698.56</ele>
        <time>2018-02-07T15:38:43Z</time>
      </trkpt>
      <trkpt lat="45.65402" lon="6.66743">
        <ele>2699.04</ele>
        <time>2018-02-07T15:39:12Z</time>
      </trkpt>
      <trkpt lat="45.65406" lon="6.66734">
        <ele>2699.52</ele>
        <time>2018-02-07T15:39:51Z</time>
      </trkpt>
      <trkpt lat="45.65409" lon="6.66731">
        <ele>2701.92</ele>
        <time>2018-02-07T15:40:16Z</time>
      </trkpt>
      <trkpt lat="45.6541" lon="6.66723">
        <ele>2701.44</ele>
        <time>2018-02-07T15:40:33Z</time>
      </trkpt>
      <trkpt lat="45.65413" lon="6.66717">
        <ele>2700.96</ele>
        <time>2018-02-07T15:41:00Z</time>
      </trkpt>
      <trkpt lat="45.65416" lon="6.66715">
        <ele>2701.44</ele>
        <time>2018-02-07T15:41:19Z</time>
      </trkpt>
      <trkpt lat="45.65416" lon="6.66714">
        <ele>2701.44</ele>
        <time>2018-02-07T15:41:22Z</time>
      </trkpt>
      <trkpt lat="45.65412" lon="6.66702">
        <ele>2697.6</ele>
        <time>2018-02-07T15:41:28Z</time>
      </trkpt>
      <trkpt lat="45.65404" lon="6.66709">
        <ele>2694.23</ele>
        <time>2018-02-07T15:41:32Z</time>
      </trkpt>
      <trkpt lat="45.65402" lon="6.66705">
        <ele>2692.79</ele>
        <time>2018-02-07T15:41:33Z</time>
      </trkpt>
      <trkpt lat="45.65403" lon="6.667">
        <ele>2692.31</ele>
        <time>2018-02-07T15:41:34Z</time>
      </trkpt>
      <trkpt lat="45.65404" lon="6.66697">
        <ele>2688.46</ele>
        <time>2018-02-07T15:41:36Z</time>
      </trkpt>
      <trkpt lat="45.65404" lon="6.66696">
        <ele>2688.46</ele>
        <time>2018-02-07T15:41:37Z</time>
      </trkpt>
      <trkpt lat="45.65404" lon="6.66694">
        <ele>2688.94</ele>
        <time>2018-02-07T15:41:41Z</time>
      </trkpt>
      <trkpt lat="45.65404" lon="6.66689">
        <ele>2688.94</ele>
        <time>2018-02-07T15:41:43Z</time>
      </trkpt>
      <trkpt lat="45.65396" lon="6.66691">
        <ele>2684.62</ele>
        <time>2018-02-07T15:41:47Z</time>
      </trkpt>
      <trkpt lat="45.65386" lon="6.66706">
        <ele>2681.25</ele>
        <time>2018-02-07T15:41:51Z</time>
      </trkpt>
      <trkpt lat="45.65384" lon="6.66703">
        <ele>2680.77</ele>
        <time>2018-02-07T15:41:52Z</time>
      </trkpt>
      <trkpt lat="45.65384" lon="6.66698">
        <ele>2678.37</ele>
        <time>2018-02-07T15:41:53Z</time>
      </trkpt>
      <trkpt lat="45.65384" lon="6.66693">
        <ele>2677.89</ele>
        <time>2018-02-07T15:41:54Z</time>
      </trkpt>
      <trkpt lat="45.65383" lon="6.66686">
        <ele>2675.97</ele>
        <time>2018-02-07T15:41:56Z</time>
      </trkpt>
      <trkpt lat="45.6538" lon="6.66685">
        <ele>2674.04</ele>
        <time>2018-02-07T15:41:57Z</time>
      </trkpt>
      <trkpt lat="45.65375" lon="6.66688">
        <ele>2673.56</ele>
        <time>2018-02-07T15:41:58Z</time>
      </trkpt>
      <trkpt lat="45.65371" lon="6.66693">
        <ele>2670.2</ele>
        <time>2018-02-07T15:41:59Z</time>
      </trkpt>
      <trkpt lat="45.65363" lon="6.66704">
        <ele>2666.83</ele>
        <time>2018-02-07T15:42:01Z</time>
      </trkpt>
      <trkpt lat="45.65358" lon="6.66712">
        <ele>2665.87</ele>
        <time>2018-02-07T15:42:03Z</time>
      </trkpt>
      <trkpt lat="45.65353" lon="6.6671">
        <ele>2665.87</ele>
        <time>2018-02-07T15:42:05Z</time>
      </trkpt>
      <trkpt lat="45.65353" lon="6.66702">
        <ele>2664.43</ele>
        <time>2018-02-07T15:42:06Z</time>
      </trkpt>
      <trkpt lat="45.65355" lon="6.66696">
        <ele>2662.03</ele>
        <time>2018-02-07T15:42:07Z</time>
      </trkpt>
      <trkpt lat="45.6536" lon="6.66684">
        <ele>2661.55</ele>
        <time>2018-02-07T15:42:09Z</time>
      </trkpt>
      <trkpt lat="45.65363" lon="6.66675">
        <ele>2660.59</ele>
        <time>2018-02-07T15:42:11Z</time>
      </trkpt>
      <trkpt lat="45.65362" lon="6.66669">
        <ele>2659.14</ele>
        <time>2018-02-07T15:42:13Z</time>
      </trkpt>
      <trkpt lat="45.65357" lon="6.66667">
        <ele>2658.18</ele>
        <time>2018-02-07T15:42:14Z</time>
      </trkpt>
      <trkpt lat="45.65351" lon="6.66669">
        <ele>2654.34</ele>
        <time>2018-02-07T15:42:15Z</time>
      </trkpt>
      <trkpt lat="45.65343" lon="6.6668">
        <ele>2650.97</ele>
        <time>2018-02-07T15:42:17Z</time>
      </trkpt>
      <trkpt lat="45.65338" lon="6.66689">
        <ele>2650.01</ele>
        <time>2018-02-07T15:42:19Z</time>
      </trkpt>
      <trkpt lat="45.65335" lon="6.6669">
        <ele>2649.05</ele>
        <time>2018-02-07T15:42:22Z</time>
      </trkpt>
      <trkpt lat="45.65334" lon="6.66686">
        <ele>2648.57</ele>
        <time>2018-02-07T15:42:23Z</time>
      </trkpt>
      <trkpt lat="45.65337" lon="6.66678">
        <ele>2646.17</ele>
        <time>2018-02-07T15:42:25Z</time>
      </trkpt>
      <trkpt lat="45.65338" lon="6.66669">
        <ele>2645.21</ele>
        <time>2018-02-07T15:42:27Z</time>
      </trkpt>
      <trkpt lat="45.65336" lon="6.66665">
        <ele>2644.72</ele>
        <time>2018-02-07T15:42:28Z</time>
      </trkpt>
      <trkpt lat="45.65331" lon="6.66665">
        <ele>2642.8</ele>
        <time>2018-02-07T15:42:29Z</time>
      </trkpt>
      <trkpt lat="45.65326" lon="6.66668">
        <ele>2639.92</ele>
        <time>2018-02-07T15:42:30Z</time>
      </trkpt>
      <trkpt lat="45.65321" lon="6.66673">
        <ele>2638.48</ele>
        <time>2018-02-07T15:42:31Z</time>
      </trkpt>
      <trkpt lat="45.65312" lon="6.66681">
        <ele>2635.11</ele>
        <time>2018-02-07T15:42:33Z</time>
      </trkpt>
      <trkpt lat="45.65299" lon="6.66691">
        <ele>2633.67</ele>
        <time>2018-02-07T15:42:36Z</time>
      </trkpt>
      <trkpt lat="45.65297" lon="6.66694">
        <ele>2634.15</ele>
        <time>2018-02-07T15:42:39Z</time>
      </trkpt>
      <trkpt lat="45.65296" lon="6.6668">
        <ele>2630.3</ele>
        <time>2018-02-07T15:42:43Z</time>
      </trkpt>
      <trkpt lat="45.65296" lon="6.66677">
        <ele>2630.3</ele>
        <time>2018-02-07T15:42:44Z</time>
      </trkpt>
      <trkpt lat="45.65291" lon="6.66673">
        <ele>2626.94</ele>
        <time>2018-02-07T15:42:47Z</time>
      </trkpt>
      <trkpt lat="45.65289" lon="6.66674">
        <ele>2626.46</ele>
        <time>2018-02-07T15:42:48Z</time>
      </trkpt>
      <trkpt lat="45.65289" lon="6.66673">
        <ele>2625.98</ele>
        <time>2018-02-07T15:43:03Z</time>
      </trkpt>
      <trkpt lat="45.65289" lon="6.66672">
        <ele>2625.98</ele>
        <time>2018-02-07T15:43:26Z</time>
      </trkpt>
      <trkpt lat="45.65289" lon="6.66672">
        <ele>2625.98</ele>
        <time>2018-02-07T15:43:47Z</time>
      </trkpt>
      <trkpt lat="45.6529" lon="6.66671">
        <ele>2625.5</ele>
        <time>2018-02-07T15:44:19Z</time>
      </trkpt>
      <trkpt lat="45.65288" lon="6.66672">
        <ele>2625.5</ele>
        <time>2018-02-07T15:44:38Z</time>
      </trkpt>
      <trkpt lat="45.65277" lon="6.66671">
        <ele>2623.09</ele>
        <time>2018-02-07T15:44:42Z</time>
      </trkpt>
      <trkpt lat="45.65261" lon="6.66667">
        <ele>2620.21</ele>
        <time>2018-02-07T15:44:45Z</time>
      </trkpt>
      <trkpt lat="45.65239" lon="6.66675">
        <ele>2616.37</ele>
        <time>2018-02-07T15:44:49Z</time>
      </trkpt>
      <trkpt lat="45.65221" lon="6.6667">
        <ele>2611.08</ele>
        <time>2018-02-07T15:44:53Z</time>
      </trkpt>
      <trkpt lat="45.65207" lon="6.66669">
        <ele>2607.23</ele>
        <time>2018-02-07T15:44:56Z</time>
      </trkpt>
      <trkpt lat="45.65191" lon="6.66664">
        <ele>2603.39</ele>
        <time>2018-02-07T15:44:59Z</time>
      </trkpt>
      <trkpt lat="45.65178" lon="6.66665">
        <ele>2599.54</ele>
        <time>2018-02-07T15:45:01Z</time>
      </trkpt>
      <trkpt lat="45.65167" lon="6.66664">
        <ele>2596.18</ele>
        <time>2018-02-07T15:45:03Z</time>
      </trkpt>
      <trkpt lat="45.65157" lon="6.66663">
        <ele>2593.77</ele>
        <time>2018-02-07T15:45:05Z</time>
      </trkpt>
      <trkpt lat="45.65137" lon="6.66657">
        <ele>2587.04</ele>
        <time>2018-02-07T15:45:11Z</time>
      </trkpt>
      <trkpt lat="45.65139" lon="6.66658">
        <ele>2586.08</ele>
        <time>2018-02-07T15:45:18Z</time>
      </trkpt>
      <trkpt lat="45.6514" lon="6.66658">
        <ele>2586.08</ele>
        <time>2018-02-07T15:45:36Z</time>
      </trkpt>
      <trkpt lat="45.6514" lon="6.66657">
        <ele>2585.6</ele>
        <time>2018-02-07T15:45:53Z</time>
      </trkpt>
      <trkpt lat="45.65139" lon="6.66657">
        <ele>2585.6</ele>
        <time>2018-02-07T15:46:13Z</time>
      </trkpt>
      <trkpt lat="45.6513" lon="6.66662">
        <ele>2584.64</ele>
        <time>2018-02-07T15:46:22Z</time>
      </trkpt>
      <trkpt lat="45.65117" lon="6.66658">
        <ele>2580.8</ele>
        <time>2018-02-07T15:46:25Z</time>
      </trkpt>
      <trkpt lat="45.65112" lon="6.66665">
        <ele>2578.39</ele>
        <time>2018-02-07T15:46:28Z</time>
      </trkpt>
      <trkpt lat="45.65101" lon="6.66656">
        <ele>2575.03</ele>
        <time>2018-02-07T15:46:33Z</time>
      </trkpt>
      <trkpt lat="45.651" lon="6.66642">
        <ele>2573.11</ele>
        <time>2018-02-07T15:46:35Z</time>
      </trkpt>
      <trkpt lat="45.65098" lon="6.66637">
        <ele>2571.66</ele>
        <time>2018-02-07T15:46:36Z</time>
      </trkpt>
      <trkpt lat="45.65095" lon="6.66636">
        <ele>2571.66</ele>
        <time>2018-02-07T15:46:37Z</time>
      </trkpt>
      <trkpt lat="45.65093" lon="6.66638">
        <ele>2569.74</ele>
        <time>2018-02-07T15:46:38Z</time>
      </trkpt>
      <trkpt lat="45.65091" lon="6.66642">
        <ele>2569.26</ele>
        <time>2018-02-07T15:46:39Z</time>
      </trkpt>
      <trkpt lat="45.65085" lon="6.6665">
        <ele>2566.86</ele>
        <time>2018-02-07T15:46:41Z</time>
      </trkpt>
      <trkpt lat="45.65077" lon="6.66632">
        <ele>2563.49</ele>
        <time>2018-02-07T15:46:45Z</time>
      </trkpt>
      <trkpt lat="45.65075" lon="6.66627">
        <ele>2562.53</ele>
        <time>2018-02-07T15:46:46Z</time>
      </trkpt>
      <trkpt lat="45.65072" lon="6.66627">
        <ele>2561.09</ele>
        <time>2018-02-07T15:46:47Z</time>
      </trkpt>
      <trkpt lat="45.65069" lon="6.66631">
        <ele>2560.61</ele>
        <time>2018-02-07T15:46:48Z</time>
      </trkpt>
      <trkpt lat="45.65057" lon="6.66645">
        <ele>2556.76</ele>
        <time>2018-02-07T15:46:52Z</time>
      </trkpt>
      <trkpt lat="45.65055" lon="6.66639">
        <ele>2554.84</ele>
        <time>2018-02-07T15:46:53Z</time>
      </trkpt>
      <trkpt lat="45.65042" lon="6.66625">
        <ele>2553.4</ele>
        <time>2018-02-07T15:47:00Z</time>
      </trkpt>
      <trkpt lat="45.65039" lon="6.66628">
        <ele>2552.44</ele>
        <time>2018-02-07T15:47:01Z</time>
      </trkpt>
      <trkpt lat="45.65036" lon="6.66633">
        <ele>2551.48</ele>
        <time>2018-02-07T15:47:02Z</time>
      </trkpt>
      <trkpt lat="45.65032" lon="6.66634">
        <ele>2550.03</ele>
        <time>2018-02-07T15:47:03Z</time>
      </trkpt>
      <trkpt lat="45.65029" lon="6.66632">
        <ele>2550.03</ele>
        <time>2018-02-07T15:47:04Z</time>
      </trkpt>
      <trkpt lat="45.65025" lon="6.66631">
        <ele>2549.55</ele>
        <time>2018-02-07T15:47:05Z</time>
      </trkpt>
      <trkpt lat="45.65022" lon="6.66632">
        <ele>2548.11</ele>
        <time>2018-02-07T15:47:06Z</time>
      </trkpt>
      <trkpt lat="45.65021" lon="6.66635">
        <ele>2548.11</ele>
        <time>2018-02-07T15:47:13Z</time>
      </trkpt>
      <trkpt lat="45.65019" lon="6.66636">
        <ele>2548.11</ele>
        <time>2018-02-07T15:47:18Z</time>
      </trkpt>
      <trkpt lat="45.65018" lon="6.66636">
        <ele>2547.63</ele>
        <time>2018-02-07T15:47:19Z</time>
      </trkpt>
      <trkpt lat="45.65016" lon="6.66636">
        <ele>2547.15</ele>
        <time>2018-02-07T15:47:23Z</time>
      </trkpt>
      <trkpt lat="45.65013" lon="6.66636">
        <ele>2547.63</ele>
        <time>2018-02-07T15:47:24Z</time>
      </trkpt>
      <trkpt lat="45.65011" lon="6.66636">
        <ele>2547.15</ele>
        <time>2018-02-07T15:47:25Z</time>
      </trkpt>
      <trkpt lat="45.65009" lon="6.66637">
        <ele>2546.67</ele>
        <time>2018-02-07T15:47:26Z</time>
      </trkpt>
      <trkpt lat="45.65008" lon="6.66637">
        <ele>2546.67</ele>
        <time>2018-02-07T15:47:27Z</time>
      </trkpt>
      <trkpt lat="45.65007" lon="6.66636">
        <ele>2546.19</ele>
        <time>2018-02-07T15:47:28Z</time>
      </trkpt>
      <trkpt lat="45.64976" lon="6.66642">
        <ele>2542.34</ele>
        <time>2018-02-07T15:47:41Z</time>
      </trkpt>
      <trkpt lat="45.64958" lon="6.66642">
        <ele>2539.46</ele>
        <time>2018-02-07T15:47:51Z</time>
      </trkpt>
      <trkpt lat="45.64954" lon="6.66643">
        <ele>2539.46</ele>
        <time>2018-02-07T15:48:02Z</time>
      </trkpt>
      <trkpt lat="45.64952" lon="6.66642">
        <ele>2538.98</ele>
        <time>2018-02-07T15:48:18Z</time>
      </trkpt>
      <trkpt lat="45.6495" lon="6.6664">
        <ele>2538.5</ele>
        <time>2018-02-07T15:48:19Z</time>
      </trkpt>
      <trkpt lat="45.64947" lon="6.66637">
        <ele>2538.5</ele>
        <time>2018-02-07T15:48:20Z</time>
      </trkpt>
      <trkpt lat="45.6494" lon="6.66629">
        <ele>2536.58</ele>
        <time>2018-02-07T15:48:22Z</time>
      </trkpt>
      <trkpt lat="45.64931" lon="6.66634">
        <ele>2534.65</ele>
        <time>2018-02-07T15:48:25Z</time>
      </trkpt>
      <trkpt lat="45.64913" lon="6.66635">
        <ele>2531.29</ele>
        <time>2018-02-07T15:48:30Z</time>
      </trkpt>
      <trkpt lat="45.64904" lon="6.66646">
        <ele>2527.44</ele>
        <time>2018-02-07T15:48:33Z</time>
      </trkpt>
      <trkpt lat="45.64896" lon="6.66646">
        <ele>2526.48</ele>
        <time>2018-02-07T15:48:35Z</time>
      </trkpt>
      <trkpt lat="45.64879" lon="6.6665">
        <ele>2523.12</ele>
        <time>2018-02-07T15:48:39Z</time>
      </trkpt>
      <trkpt lat="45.64878" lon="6.6665">
        <ele>2521.68</ele>
        <time>2018-02-07T15:48:41Z</time>
      </trkpt>
      <trkpt lat="45.64878" lon="6.6665">
        <ele>2521.68</ele>
        <time>2018-02-07T15:48:49Z</time>
      </trkpt>
      <trkpt lat="45.64876" lon="6.66644">
        <ele>2521.19</ele>
        <time>2018-02-07T15:48:51Z</time>
      </trkpt>
      <trkpt lat="45.64872" lon="6.66642">
        <ele>2518.79</ele>
        <time>2018-02-07T15:48:54Z</time>
      </trkpt>
      <trkpt lat="45.64853" lon="6.66644">
        <ele>2515.43</ele>
        <time>2018-02-07T15:49:03Z</time>
      </trkpt>
      <trkpt lat="45.64848" lon="6.66643">
        <ele>2515.43</ele>
        <time>2018-02-07T15:49:05Z</time>
      </trkpt>
      <trkpt lat="45.64839" lon="6.66635">
        <ele>2513.5</ele>
        <time>2018-02-07T15:49:09Z</time>
      </trkpt>
      <trkpt lat="45.64832" lon="6.66631">
        <ele>2512.54</ele>
        <time>2018-02-07T15:49:11Z</time>
      </trkpt>
      <trkpt lat="45.64825" lon="6.66611">
        <ele>2508.7</ele>
        <time>2018-02-07T15:49:18Z</time>
      </trkpt>
      <trkpt lat="45.64821" lon="6.66614">
        <ele>2507.74</ele>
        <time>2018-02-07T15:49:20Z</time>
      </trkpt>
      <trkpt lat="45.64817" lon="6.66608">
        <ele>2506.29</ele>
        <time>2018-02-07T15:49:23Z</time>
      </trkpt>
      <trkpt lat="45.64815" lon="6.66601">
        <ele>2505.33</ele>
        <time>2018-02-07T15:49:26Z</time>
      </trkpt>
      <trkpt lat="45.64814" lon="6.66602">
        <ele>2503.89</ele>
        <time>2018-02-07T15:49:29Z</time>
      </trkpt>
      <trkpt lat="45.64814" lon="6.66601">
        <ele>2505.33</ele>
        <time>2018-02-07T15:49:41Z</time>
      </trkpt>
      <trkpt lat="45.64804" lon="6.66592">
        <ele>2502.45</ele>
        <time>2018-02-07T15:49:46Z</time>
      </trkpt>
      <trkpt lat="45.6479" lon="6.6658">
        <ele>2498.6</ele>
        <time>2018-02-07T15:49:51Z</time>
      </trkpt>
      <trkpt lat="45.64779" lon="6.66565">
        <ele>2496.68</ele>
        <time>2018-02-07T15:49:56Z</time>
      </trkpt>
      <trkpt lat="45.64766" lon="6.66548">
        <ele>2494.28</ele>
        <time>2018-02-07T15:50:02Z</time>
      </trkpt>
      <trkpt lat="45.64765" lon="6.66545">
        <ele>2493.8</ele>
        <time>2018-02-07T15:50:11Z</time>
      </trkpt>
      <trkpt lat="45.64765" lon="6.66544">
        <ele>2493.32</ele>
        <time>2018-02-07T15:50:12Z</time>
      </trkpt>
      <trkpt lat="45.64761" lon="6.6655">
        <ele>2491.87</ele>
        <time>2018-02-07T15:50:21Z</time>
      </trkpt>
      <trkpt lat="45.64761" lon="6.66552">
        <ele>2491.39</ele>
        <time>2018-02-07T15:50:24Z</time>
      </trkpt>
      <trkpt lat="45.64749" lon="6.66548">
        <ele>2489.47</ele>
        <time>2018-02-07T15:50:30Z</time>
      </trkpt>
      <trkpt lat="45.64748" lon="6.66536">
        <ele>2488.03</ele>
        <time>2018-02-07T15:50:33Z</time>
      </trkpt>
      <trkpt lat="45.64748" lon="6.66533">
        <ele>2487.07</ele>
        <time>2018-02-07T15:50:44Z</time>
      </trkpt>
      <trkpt lat="45.64748" lon="6.66533">
        <ele>2487.07</ele>
        <time>2018-02-07T15:51:06Z</time>
      </trkpt>
      <trkpt lat="45.64748" lon="6.66532">
        <ele>2487.07</ele>
        <time>2018-02-07T15:51:10Z</time>
      </trkpt>
      <trkpt lat="45.64743" lon="6.66526">
        <ele>2486.11</ele>
        <time>2018-02-07T15:51:13Z</time>
      </trkpt>
      <trkpt lat="45.64738" lon="6.66508">
        <ele>2481.78</ele>
        <time>2018-02-07T15:51:17Z</time>
      </trkpt>
      <trkpt lat="45.64737" lon="6.66505">
        <ele>2482.26</ele>
        <time>2018-02-07T15:51:18Z</time>
      </trkpt>
      <trkpt lat="45.64731" lon="6.66483">
        <ele>2478.9</ele>
        <time>2018-02-07T15:51:23Z</time>
      </trkpt>
      <trkpt lat="45.64731" lon="6.6646">
        <ele>2476.49</ele>
        <time>2018-02-07T15:51:34Z</time>
      </trkpt>
      <trkpt lat="45.64731" lon="6.66456">
        <ele>2476.01</ele>
        <time>2018-02-07T15:51:37Z</time>
      </trkpt>
      <trkpt lat="45.64723" lon="6.66459">
        <ele>2472.17</ele>
        <time>2018-02-07T15:51:41Z</time>
      </trkpt>
      <trkpt lat="45.64723" lon="6.6646">
        <ele>2472.17</ele>
        <time>2018-02-07T15:51:42Z</time>
      </trkpt>
      <trkpt lat="45.64716" lon="6.6647">
        <ele>2471.69</ele>
        <time>2018-02-07T15:51:52Z</time>
      </trkpt>
      <trkpt lat="45.64713" lon="6.66454">
        <ele>2469.28</ele>
        <time>2018-02-07T15:51:57Z</time>
      </trkpt>
      <trkpt lat="45.64715" lon="6.6645">
        <ele>2468.8</ele>
        <time>2018-02-07T15:51:58Z</time>
      </trkpt>
      <trkpt lat="45.6472" lon="6.66434">
        <ele>2466.4</ele>
        <time>2018-02-07T15:52:07Z</time>
      </trkpt>
      <trkpt lat="45.6472" lon="6.66435">
        <ele>2465.92</ele>
        <time>2018-02-07T15:52:27Z</time>
      </trkpt>
      <trkpt lat="45.6472" lon="6.66433">
        <ele>2465.92</ele>
        <time>2018-02-07T15:52:32Z</time>
      </trkpt>
      <trkpt lat="45.64716" lon="6.66424">
        <ele>2463.04</ele>
        <time>2018-02-07T15:52:39Z</time>
      </trkpt>
      <trkpt lat="45.64708" lon="6.66414">
        <ele>2459.19</ele>
        <time>2018-02-07T15:52:44Z</time>
      </trkpt>
      <trkpt lat="45.64708" lon="6.66411">
        <ele>2459.19</ele>
        <time>2018-02-07T15:52:45Z</time>
      </trkpt>
      <trkpt lat="45.64702" lon="6.66411">
        <ele>2456.31</ele>
        <time>2018-02-07T15:52:49Z</time>
      </trkpt>
      <trkpt lat="45.64696" lon="6.66406">
        <ele>2453.9</ele>
        <time>2018-02-07T15:52:55Z</time>
      </trkpt>
      <trkpt lat="45.64696" lon="6.66406">
        <ele>2453.42</ele>
        <time>2018-02-07T15:52:56Z</time>
      </trkpt>
      <trkpt lat="45.64685" lon="6.66409">
        <ele>2449.58</ele>
        <time>2018-02-07T15:53:00Z</time>
      </trkpt>
      <trkpt lat="45.64684" lon="6.6641">
        <ele>2450.06</ele>
        <time>2018-02-07T15:53:01Z</time>
      </trkpt>
      <trkpt lat="45.64683" lon="6.6641">
        <ele>2450.54</ele>
        <time>2018-02-07T15:53:03Z</time>
      </trkpt>
      <trkpt lat="45.64675" lon="6.66409">
        <ele>2448.62</ele>
        <time>2018-02-07T15:53:08Z</time>
      </trkpt>
      <trkpt lat="45.64678" lon="6.66398">
        <ele>2444.77</ele>
        <time>2018-02-07T15:53:11Z</time>
      </trkpt>
      <trkpt lat="45.6468" lon="6.66396">
        <ele>2444.77</ele>
        <time>2018-02-07T15:53:12Z</time>
      </trkpt>
      <trkpt lat="45.64673" lon="6.66397">
        <ele>2442.37</ele>
        <time>2018-02-07T15:53:16Z</time>
      </trkpt>
      <trkpt lat="45.6467" lon="6.66398">
        <ele>2441.89</ele>
        <time>2018-02-07T15:53:18Z</time>
      </trkpt>
      <trkpt lat="45.64663" lon="6.66396">
        <ele>2440.44</ele>
        <time>2018-02-07T15:53:24Z</time>
      </trkpt>
      <trkpt lat="45.64668" lon="6.66383">
        <ele>2436.6</ele>
        <time>2018-02-07T15:53:28Z</time>
      </trkpt>
      <trkpt lat="45.64669" lon="6.66382">
        <ele>2436.6</ele>
        <time>2018-02-07T15:53:29Z</time>
      </trkpt>
      <trkpt lat="45.6467" lon="6.66384">
        <ele>2436.6</ele>
        <time>2018-02-07T15:53:36Z</time>
      </trkpt>
      <trkpt lat="45.6467" lon="6.66376">
        <ele>2435.16</ele>
        <time>2018-02-07T15:53:40Z</time>
      </trkpt>
      <trkpt lat="45.64662" lon="6.66378">
        <ele>2431.31</ele>
        <time>2018-02-07T15:53:44Z</time>
      </trkpt>
      <trkpt lat="45.64659" lon="6.6638">
        <ele>2431.31</ele>
        <time>2018-02-07T15:53:53Z</time>
      </trkpt>
      <trkpt lat="45.64656" lon="6.66371">
        <ele>2427.47</ele>
        <time>2018-02-07T15:53:59Z</time>
      </trkpt>
      <trkpt lat="45.64658" lon="6.66366">
        <ele>2426.99</ele>
        <time>2018-02-07T15:54:01Z</time>
      </trkpt>
      <trkpt lat="45.64653" lon="6.66364">
        <ele>2423.14</ele>
        <time>2018-02-07T15:54:04Z</time>
      </trkpt>
      <trkpt lat="45.64652" lon="6.66366">
        <ele>2423.14</ele>
        <time>2018-02-07T15:54:05Z</time>
      </trkpt>
      <trkpt lat="45.64646" lon="6.66367">
        <ele>2422.18</ele>
        <time>2018-02-07T15:54:09Z</time>
      </trkpt>
      <trkpt lat="45.64637" lon="6.66369">
        <ele>2420.26</ele>
        <time>2018-02-07T15:54:13Z</time>
      </trkpt>
      <trkpt lat="45.64633" lon="6.66368">
        <ele>2419.78</ele>
        <time>2018-02-07T15:54:15Z</time>
      </trkpt>
      <trkpt lat="45.64637" lon="6.66353">
        <ele>2415.93</ele>
        <time>2018-02-07T15:54:19Z</time>
      </trkpt>
      <trkpt lat="45.6464" lon="6.66349">
        <ele>2415.93</ele>
        <time>2018-02-07T15:54:30Z</time>
      </trkpt>
      <trkpt lat="45.64631" lon="6.66344">
        <ele>2412.57</ele>
        <time>2018-02-07T15:54:34Z</time>
      </trkpt>
      <trkpt lat="45.64618" lon="6.66347">
        <ele>2409.2</ele>
        <time>2018-02-07T15:54:37Z</time>
      </trkpt>
      <trkpt lat="45.64615" lon="6.66349">
        <ele>2409.2</ele>
        <time>2018-02-07T15:54:38Z</time>
      </trkpt>
      <trkpt lat="45.64609" lon="6.6635">
        <ele>2409.2</ele>
        <time>2018-02-07T15:54:40Z</time>
      </trkpt>
      <trkpt lat="45.64599" lon="6.66351">
        <ele>2407.76</ele>
        <time>2018-02-07T15:54:43Z</time>
      </trkpt>
      <trkpt lat="45.64593" lon="6.6635">
        <ele>2406.8</ele>
        <time>2018-02-07T15:54:45Z</time>
      </trkpt>
      <trkpt lat="45.6459" lon="6.66334">
        <ele>2403.91</ele>
        <time>2018-02-07T15:54:49Z</time>
      </trkpt>
      <trkpt lat="45.64583" lon="6.6633">
        <ele>2400.55</ele>
        <time>2018-02-07T15:54:52Z</time>
      </trkpt>
      <trkpt lat="45.64582" lon="6.66333">
        <ele>2400.07</ele>
        <time>2018-02-07T15:55:01Z</time>
      </trkpt>
      <trkpt lat="45.64582" lon="6.66333">
        <ele>2400.07</ele>
        <time>2018-02-07T15:55:24Z</time>
      </trkpt>
      <trkpt lat="45.64581" lon="6.66333">
        <ele>2400.07</ele>
        <time>2018-02-07T15:55:25Z</time>
      </trkpt>
      <trkpt lat="45.6456" lon="6.66333">
        <ele>2397.18</ele>
        <time>2018-02-07T15:55:32Z</time>
      </trkpt>
      <trkpt lat="45.64556" lon="6.66334">
        <ele>2396.22</ele>
        <time>2018-02-07T15:55:33Z</time>
      </trkpt>
      <trkpt lat="45.64541" lon="6.66327">
        <ele>2392.38</ele>
        <time>2018-02-07T15:55:37Z</time>
      </trkpt>
      <trkpt lat="45.6453" lon="6.6632">
        <ele>2388.53</ele>
        <time>2018-02-07T15:55:40Z</time>
      </trkpt>
      <trkpt lat="45.64523" lon="6.66315">
        <ele>2385.17</ele>
        <time>2018-02-07T15:55:43Z</time>
      </trkpt>
      <trkpt lat="45.64524" lon="6.66309">
        <ele>2382.76</ele>
        <time>2018-02-07T15:55:48Z</time>
      </trkpt>
      <trkpt lat="45.64524" lon="6.66307">
        <ele>2383.25</ele>
        <time>2018-02-07T15:56:02Z</time>
      </trkpt>
      <trkpt lat="45.64522" lon="6.66306">
        <ele>2383.25</ele>
        <time>2018-02-07T15:56:16Z</time>
      </trkpt>
      <trkpt lat="45.64513" lon="6.66298">
        <ele>2379.88</ele>
        <time>2018-02-07T15:56:20Z</time>
      </trkpt>
      <trkpt lat="45.64507" lon="6.66291">
        <ele>2375.55</ele>
        <time>2018-02-07T15:56:23Z</time>
      </trkpt>
      <trkpt lat="45.64507" lon="6.66291">
        <ele>2375.55</ele>
        <time>2018-02-07T15:56:24Z</time>
      </trkpt>
      <trkpt lat="45.64506" lon="6.66291">
        <ele>2375.07</ele>
        <time>2018-02-07T15:56:25Z</time>
      </trkpt>
      <trkpt lat="45.64495" lon="6.66291">
        <ele>2372.19</ele>
        <time>2018-02-07T15:56:30Z</time>
      </trkpt>
      <trkpt lat="45.64493" lon="6.6629">
        <ele>2372.19</ele>
        <time>2018-02-07T15:56:31Z</time>
      </trkpt>
      <trkpt lat="45.64479" lon="6.66285">
        <ele>2366.9</ele>
        <time>2018-02-07T15:56:37Z</time>
      </trkpt>
      <trkpt lat="45.64476" lon="6.66287">
        <ele>2365.94</ele>
        <time>2018-02-07T15:56:39Z</time>
      </trkpt>
      <trkpt lat="45.64476" lon="6.66282">
        <ele>2365.46</ele>
        <time>2018-02-07T15:56:46Z</time>
      </trkpt>
      <trkpt lat="45.64474" lon="6.66282">
        <ele>2364.98</ele>
        <time>2018-02-07T15:57:07Z</time>
      </trkpt>
      <trkpt lat="45.6446" lon="6.66272">
        <ele>2360.65</ele>
        <time>2018-02-07T15:57:12Z</time>
      </trkpt>
      <trkpt lat="45.6445" lon="6.66268">
        <ele>2357.29</ele>
        <time>2018-02-07T15:57:15Z</time>
      </trkpt>
      <trkpt lat="45.64436" lon="6.66264">
        <ele>2353.44</ele>
        <time>2018-02-07T15:57:19Z</time>
      </trkpt>
      <trkpt lat="45.64419" lon="6.66266">
        <ele>2350.08</ele>
        <time>2018-02-07T15:57:23Z</time>
      </trkpt>
      <trkpt lat="45.64405" lon="6.66269">
        <ele>2347.2</ele>
        <time>2018-02-07T15:57:27Z</time>
      </trkpt>
      <trkpt lat="45.64402" lon="6.66268">
        <ele>2346.23</ele>
        <time>2018-02-07T15:57:28Z</time>
      </trkpt>
      <trkpt lat="45.64372" lon="6.66272">
        <ele>2342.87</ele>
        <time>2018-02-07T15:57:35Z</time>
      </trkpt>
      <trkpt lat="45.64355" lon="6.66281">
        <ele>2340.47</ele>
        <time>2018-02-07T15:57:39Z</time>
      </trkpt>
      <trkpt lat="45.64347" lon="6.66286">
        <ele>2339.02</ele>
        <time>2018-02-07T15:57:41Z</time>
      </trkpt>
      <trkpt lat="45.64325" lon="6.66285">
        <ele>2335.18</ele>
        <time>2018-02-07T15:57:47Z</time>
      </trkpt>
      <trkpt lat="45.64322" lon="6.66283">
        <ele>2334.7</ele>
        <time>2018-02-07T15:57:48Z</time>
      </trkpt>
      <trkpt lat="45.64306" lon="6.66291">
        <ele>2331.81</ele>
        <time>2018-02-07T15:57:53Z</time>
      </trkpt>
      <trkpt lat="45.64299" lon="6.66294">
        <ele>2330.37</ele>
        <time>2018-02-07T15:57:55Z</time>
      </trkpt>
      <trkpt lat="45.64292" lon="6.66298">
        <ele>2328.45</ele>
        <time>2018-02-07T15:57:57Z</time>
      </trkpt>
      <trkpt lat="45.64293" lon="6.66301">
        <ele>2328.45</ele>
        <time>2018-02-07T15:58:08Z</time>
      </trkpt>
      <trkpt lat="45.64293" lon="6.66302">
        <ele>2327.97</ele>
        <time>2018-02-07T15:58:11Z</time>
      </trkpt>
      <trkpt lat="45.6429" lon="6.66302">
        <ele>2327.49</ele>
        <time>2018-02-07T15:58:23Z</time>
      </trkpt>
      <trkpt lat="45.6429" lon="6.66301">
        <ele>2327.49</ele>
        <time>2018-02-07T15:58:48Z</time>
      </trkpt>
      <trkpt lat="45.64288" lon="6.66301">
        <ele>2327.97</ele>
        <time>2018-02-07T15:59:08Z</time>
      </trkpt>
      <trkpt lat="45.64282" lon="6.66298">
        <ele>2327.49</ele>
        <time>2018-02-07T15:59:12Z</time>
      </trkpt>
      <trkpt lat="45.64268" lon="6.66307">
        <ele>2323.16</ele>
        <time>2018-02-07T15:59:17Z</time>
      </trkpt>
      <trkpt lat="45.6426" lon="6.66308">
        <ele>2321.24</ele>
        <time>2018-02-07T15:59:19Z</time>
      </trkpt>
      <trkpt lat="45.64244" lon="6.66311">
        <ele>2314.99</ele>
        <time>2018-02-07T15:59:24Z</time>
      </trkpt>
      <trkpt lat="45.64243" lon="6.66309">
        <ele>2314.99</ele>
        <time>2018-02-07T15:59:25Z</time>
      </trkpt>
      <trkpt lat="45.64235" lon="6.66302">
        <ele>2312.11</ele>
        <time>2018-02-07T15:59:30Z</time>
      </trkpt>
      <trkpt lat="45.64235" lon="6.66302">
        <ele>2312.11</ele>
        <time>2018-02-07T15:59:31Z</time>
      </trkpt>
      <trkpt lat="45.64229" lon="6.66307">
        <ele>2309.22</ele>
        <time>2018-02-07T15:59:38Z</time>
      </trkpt>
      <trkpt lat="45.6422" lon="6.663">
        <ele>2305.86</ele>
        <time>2018-02-07T15:59:43Z</time>
      </trkpt>
      <trkpt lat="45.64221" lon="6.66298">
        <ele>2306.34</ele>
        <time>2018-02-07T15:59:52Z</time>
      </trkpt>
      <trkpt lat="45.64211" lon="6.66292">
        <ele>2304.42</ele>
        <time>2018-02-07T15:59:56Z</time>
      </trkpt>
      <trkpt lat="45.64206" lon="6.66286">
        <ele>2302.01</ele>
        <time>2018-02-07T15:59:58Z</time>
      </trkpt>
      <trkpt lat="45.64204" lon="6.66285">
        <ele>2301.53</ele>
        <time>2018-02-07T15:59:59Z</time>
      </trkpt>
      <trkpt lat="45.64202" lon="6.66282">
        <ele>2301.53</ele>
        <time>2018-02-07T16:00:00Z</time>
      </trkpt>
      <trkpt lat="45.642" lon="6.6628">
        <ele>2300.57</ele>
        <time>2018-02-07T16:00:01Z</time>
      </trkpt>
      <trkpt lat="45.64199" lon="6.66279">
        <ele>2300.09</ele>
        <time>2018-02-07T16:00:02Z</time>
      </trkpt>
      <trkpt lat="45.64196" lon="6.66277">
        <ele>2299.61</ele>
        <time>2018-02-07T16:00:03Z</time>
      </trkpt>
      <trkpt lat="45.64185" lon="6.6627">
        <ele>2297.69</ele>
        <time>2018-02-07T16:00:09Z</time>
      </trkpt>
      <trkpt lat="45.64183" lon="6.66273">
        <ele>2296.73</ele>
        <time>2018-02-07T16:00:10Z</time>
      </trkpt>
      <trkpt lat="45.64185" lon="6.66283">
        <ele>2293.84</ele>
        <time>2018-02-07T16:00:13Z</time>
      </trkpt>
      <trkpt lat="45.64182" lon="6.66287">
        <ele>2294.32</ele>
        <time>2018-02-07T16:00:15Z</time>
      </trkpt>
      <trkpt lat="45.64179" lon="6.66286">
        <ele>2293.36</ele>
        <time>2018-02-07T16:00:16Z</time>
      </trkpt>
      <trkpt lat="45.64177" lon="6.66284">
        <ele>2291.92</ele>
        <time>2018-02-07T16:00:17Z</time>
      </trkpt>
      <trkpt lat="45.64158" lon="6.66271">
        <ele>2289.52</ele>
        <time>2018-02-07T16:00:24Z</time>
      </trkpt>
      <trkpt lat="45.64155" lon="6.66268">
        <ele>2288.56</ele>
        <time>2018-02-07T16:00:25Z</time>
      </trkpt>
      <trkpt lat="45.64153" lon="6.66265">
        <ele>2287.59</ele>
        <time>2018-02-07T16:00:26Z</time>
      </trkpt>
      <trkpt lat="45.64151" lon="6.66263">
        <ele>2287.59</ele>
        <time>2018-02-07T16:00:27Z</time>
      </trkpt>
      <trkpt lat="45.64149" lon="6.66262">
        <ele>2287.59</ele>
        <time>2018-02-07T16:00:28Z</time>
      </trkpt>
      <trkpt lat="45.64147" lon="6.66262">
        <ele>2287.11</ele>
        <time>2018-02-07T16:00:29Z</time>
      </trkpt>
      <trkpt lat="45.64145" lon="6.66263">
        <ele>2286.15</ele>
        <time>2018-02-07T16:00:30Z</time>
      </trkpt>
      <trkpt lat="45.64144" lon="6.66267">
        <ele>2285.67</ele>
        <time>2018-02-07T16:00:31Z</time>
      </trkpt>
      <trkpt lat="45.6414" lon="6.66269">
        <ele>2283.75</ele>
        <time>2018-02-07T16:00:32Z</time>
      </trkpt>
      <trkpt lat="45.64137" lon="6.66266">
        <ele>2282.79</ele>
        <time>2018-02-07T16:00:33Z</time>
      </trkpt>
      <trkpt lat="45.64135" lon="6.66263">
        <ele>2282.79</ele>
        <time>2018-02-07T16:00:34Z</time>
      </trkpt>
      <trkpt lat="45.6413" lon="6.66259">
        <ele>2282.31</ele>
        <time>2018-02-07T16:00:37Z</time>
      </trkpt>
      <trkpt lat="45.64128" lon="6.66269">
        <ele>2278.94</ele>
        <time>2018-02-07T16:00:41Z</time>
      </trkpt>
      <trkpt lat="45.64133" lon="6.66269">
        <ele>2279.42</ele>
        <time>2018-02-07T16:00:50Z</time>
      </trkpt>
      <trkpt lat="45.64129" lon="6.66271">
        <ele>2277.98</ele>
        <time>2018-02-07T16:00:53Z</time>
      </trkpt>
      <trkpt lat="45.64128" lon="6.66269">
        <ele>2277.98</ele>
        <time>2018-02-07T16:00:58Z</time>
      </trkpt>
      <trkpt lat="45.64124" lon="6.6628">
        <ele>2275.1</ele>
        <time>2018-02-07T16:01:04Z</time>
      </trkpt>
      <trkpt lat="45.64118" lon="6.66282">
        <ele>2273.17</ele>
        <time>2018-02-07T16:01:06Z</time>
      </trkpt>
      <trkpt lat="45.64115" lon="6.6628">
        <ele>2272.21</ele>
        <time>2018-02-07T16:01:07Z</time>
      </trkpt>
      <trkpt lat="45.64112" lon="6.66278">
        <ele>2271.73</ele>
        <time>2018-02-07T16:01:08Z</time>
      </trkpt>
      <trkpt lat="45.64109" lon="6.66277">
        <ele>2271.25</ele>
        <time>2018-02-07T16:01:09Z</time>
      </trkpt>
      <trkpt lat="45.64107" lon="6.66279">
        <ele>2270.29</ele>
        <time>2018-02-07T16:01:10Z</time>
      </trkpt>
      <trkpt lat="45.64109" lon="6.66298">
        <ele>2268.37</ele>
        <time>2018-02-07T16:01:15Z</time>
      </trkpt>
      <trkpt lat="45.6411" lon="6.66303">
        <ele>2267.41</ele>
        <time>2018-02-07T16:01:16Z</time>
      </trkpt>
      <trkpt lat="45.6411" lon="6.66318">
        <ele>2264.52</ele>
        <time>2018-02-07T16:01:20Z</time>
      </trkpt>
      <trkpt lat="45.6411" lon="6.66323">
        <ele>2263.56</ele>
        <time>2018-02-07T16:01:28Z</time>
      </trkpt>
      <trkpt lat="45.64086" lon="6.66304">
        <ele>2260.2</ele>
        <time>2018-02-07T16:01:38Z</time>
      </trkpt>
      <trkpt lat="45.64083" lon="6.66302">
        <ele>2259.24</ele>
        <time>2018-02-07T16:01:39Z</time>
      </trkpt>
      <trkpt lat="45.64068" lon="6.66295">
        <ele>2257.31</ele>
        <time>2018-02-07T16:01:43Z</time>
      </trkpt>
      <trkpt lat="45.64065" lon="6.66293">
        <ele>2256.35</ele>
        <time>2018-02-07T16:01:44Z</time>
      </trkpt>
      <trkpt lat="45.64062" lon="6.6629">
        <ele>2255.87</ele>
        <time>2018-02-07T16:01:45Z</time>
      </trkpt>
      <trkpt lat="45.64059" lon="6.66288">
        <ele>2255.87</ele>
        <time>2018-02-07T16:01:46Z</time>
      </trkpt>
      <trkpt lat="45.64046" lon="6.66279">
        <ele>2253.47</ele>
        <time>2018-02-07T16:01:50Z</time>
      </trkpt>
      <trkpt lat="45.64043" lon="6.66281">
        <ele>2252.51</ele>
        <time>2018-02-07T16:01:51Z</time>
      </trkpt>
      <trkpt lat="45.64041" lon="6.66286">
        <ele>2251.06</ele>
        <time>2018-02-07T16:01:52Z</time>
      </trkpt>
      <trkpt lat="45.64039" lon="6.66287">
        <ele>2250.1</ele>
        <time>2018-02-07T16:01:53Z</time>
      </trkpt>
      <trkpt lat="45.64036" lon="6.66285">
        <ele>2248.66</ele>
        <time>2018-02-07T16:01:54Z</time>
      </trkpt>
      <trkpt lat="45.64033" lon="6.66286">
        <ele>2248.66</ele>
        <time>2018-02-07T16:01:55Z</time>
      </trkpt>
      <trkpt lat="45.64029" lon="6.66289">
        <ele>2248.18</ele>
        <time>2018-02-07T16:01:56Z</time>
      </trkpt>
      <trkpt lat="45.64025" lon="6.6629">
        <ele>2246.74</ele>
        <time>2018-02-07T16:01:57Z</time>
      </trkpt>
      <trkpt lat="45.64022" lon="6.66286">
        <ele>2244.33</ele>
        <time>2018-02-07T16:01:58Z</time>
      </trkpt>
      <trkpt lat="45.64019" lon="6.66283">
        <ele>2244.82</ele>
        <time>2018-02-07T16:01:59Z</time>
      </trkpt>
      <trkpt lat="45.64017" lon="6.66279">
        <ele>2244.33</ele>
        <time>2018-02-07T16:02:05Z</time>
      </trkpt>
      <trkpt lat="45.64015" lon="6.6628">
        <ele>2244.33</ele>
        <time>2018-02-07T16:02:07Z</time>
      </trkpt>
      <trkpt lat="45.64012" lon="6.66281">
        <ele>2243.85</ele>
        <time>2018-02-07T16:02:08Z</time>
      </trkpt>
      <trkpt lat="45.64008" lon="6.6628">
        <ele>2243.37</ele>
        <time>2018-02-07T16:02:09Z</time>
      </trkpt>
      <trkpt lat="45.64005" lon="6.66278">
        <ele>2241.93</ele>
        <time>2018-02-07T16:02:10Z</time>
      </trkpt>
      <trkpt lat="45.64001" lon="6.66277">
        <ele>2240.97</ele>
        <time>2018-02-07T16:02:11Z</time>
      </trkpt>
      <trkpt lat="45.63997" lon="6.66278">
        <ele>2240.49</ele>
        <time>2018-02-07T16:02:12Z</time>
      </trkpt>
      <trkpt lat="45.63993" lon="6.66277">
        <ele>2239.05</ele>
        <time>2018-02-07T16:02:13Z</time>
      </trkpt>
      <trkpt lat="45.63991" lon="6.66274">
        <ele>2237.61</ele>
        <time>2018-02-07T16:02:14Z</time>
      </trkpt>
      <trkpt lat="45.63989" lon="6.66273">
        <ele>2238.09</ele>
        <time>2018-02-07T16:02:15Z</time>
      </trkpt>
      <trkpt lat="45.63978" lon="6.66269">
        <ele>2236.16</ele>
        <time>2018-02-07T16:02:18Z</time>
      </trkpt>
      <trkpt lat="45.63974" lon="6.66262">
        <ele>2233.76</ele>
        <time>2018-02-07T16:02:21Z</time>
      </trkpt>
      <trkpt lat="45.63974" lon="6.66263">
        <ele>2233.76</ele>
        <time>2018-02-07T16:02:35Z</time>
      </trkpt>
      <trkpt lat="45.63972" lon="6.66266">
        <ele>2233.76</ele>
        <time>2018-02-07T16:02:37Z</time>
      </trkpt>
      <trkpt lat="45.63969" lon="6.6627">
        <ele>2232.8</ele>
        <time>2018-02-07T16:02:38Z</time>
      </trkpt>
      <trkpt lat="45.63967" lon="6.6627">
        <ele>2230.88</ele>
        <time>2018-02-07T16:02:39Z</time>
      </trkpt>
      <trkpt lat="45.63965" lon="6.6627">
        <ele>2230.88</ele>
        <time>2018-02-07T16:02:40Z</time>
      </trkpt>
      <trkpt lat="45.63961" lon="6.6627">
        <ele>2229.92</ele>
        <time>2018-02-07T16:02:41Z</time>
      </trkpt>
      <trkpt lat="45.63956" lon="6.66271">
        <ele>2228.95</ele>
        <time>2018-02-07T16:02:42Z</time>
      </trkpt>
      <trkpt lat="45.63951" lon="6.66272">
        <ele>2228.47</ele>
        <time>2018-02-07T16:02:43Z</time>
      </trkpt>
      <trkpt lat="45.63947" lon="6.66271">
        <ele>2226.55</ele>
        <time>2018-02-07T16:02:44Z</time>
      </trkpt>
      <trkpt lat="45.63944" lon="6.6627">
        <ele>2224.63</ele>
        <time>2018-02-07T16:02:45Z</time>
      </trkpt>
      <trkpt lat="45.63941" lon="6.6627">
        <ele>2225.11</ele>
        <time>2018-02-07T16:02:46Z</time>
      </trkpt>
      <trkpt lat="45.63937" lon="6.66269">
        <ele>2223.67</ele>
        <time>2018-02-07T16:02:47Z</time>
      </trkpt>
      <trkpt lat="45.63935" lon="6.66267">
        <ele>2222.71</ele>
        <time>2018-02-07T16:02:48Z</time>
      </trkpt>
      <trkpt lat="45.63933" lon="6.66266">
        <ele>2222.22</ele>
        <time>2018-02-07T16:02:49Z</time>
      </trkpt>
      <trkpt lat="45.6393" lon="6.66267">
        <ele>2222.22</ele>
        <time>2018-02-07T16:02:50Z</time>
      </trkpt>
      <trkpt lat="45.63926" lon="6.66267">
        <ele>2221.74</ele>
        <time>2018-02-07T16:02:51Z</time>
      </trkpt>
      <trkpt lat="45.63923" lon="6.66265">
        <ele>2220.3</ele>
        <time>2018-02-07T16:02:52Z</time>
      </trkpt>
      <trkpt lat="45.63919" lon="6.66264">
        <ele>2219.82</ele>
        <time>2018-02-07T16:02:53Z</time>
      </trkpt>
      <trkpt lat="45.63915" lon="6.66261">
        <ele>2218.86</ele>
        <time>2018-02-07T16:02:55Z</time>
      </trkpt>
      <trkpt lat="45.63906" lon="6.66269">
        <ele>2216.94</ele>
        <time>2018-02-07T16:02:58Z</time>
      </trkpt>
      <trkpt lat="45.63894" lon="6.6627">
        <ele>2213.57</ele>
        <time>2018-02-07T16:03:01Z</time>
      </trkpt>
      <trkpt lat="45.63884" lon="6.66271">
        <ele>2211.17</ele>
        <time>2018-02-07T16:03:03Z</time>
      </trkpt>
      <trkpt lat="45.63866" lon="6.66265">
        <ele>2209.25</ele>
        <time>2018-02-07T16:03:07Z</time>
      </trkpt>
      <trkpt lat="45.63853" lon="6.6626">
        <ele>2206.84</ele>
        <time>2018-02-07T16:03:10Z</time>
      </trkpt>
      <trkpt lat="45.63845" lon="6.66259">
        <ele>2205.88</ele>
        <time>2018-02-07T16:03:12Z</time>
      </trkpt>
      <trkpt lat="45.63842" lon="6.66256">
        <ele>2204.44</ele>
        <time>2018-02-07T16:03:15Z</time>
      </trkpt>
      <trkpt lat="45.63842" lon="6.66256">
        <ele>2204.92</ele>
        <time>2018-02-07T16:03:22Z</time>
      </trkpt>
      <trkpt lat="45.63831" lon="6.66257">
        <ele>2203.48</ele>
        <time>2018-02-07T16:03:28Z</time>
      </trkpt>
      <trkpt lat="45.63821" lon="6.66257">
        <ele>2201.08</ele>
        <time>2018-02-07T16:03:31Z</time>
      </trkpt>
      <trkpt lat="45.63818" lon="6.66257">
        <ele>2200.11</ele>
        <time>2018-02-07T16:03:32Z</time>
      </trkpt>
      <trkpt lat="45.63809" lon="6.66256">
        <ele>2198.19</ele>
        <time>2018-02-07T16:03:34Z</time>
      </trkpt>
      <trkpt lat="45.63796" lon="6.66252">
        <ele>2196.27</ele>
        <time>2018-02-07T16:03:37Z</time>
      </trkpt>
      <trkpt lat="45.6379" lon="6.66245">
        <ele>2192.42</ele>
        <time>2018-02-07T16:03:39Z</time>
      </trkpt>
      <trkpt lat="45.63789" lon="6.66242">
        <ele>2191.94</ele>
        <time>2018-02-07T16:03:40Z</time>
      </trkpt>
      <trkpt lat="45.63771" lon="6.6624">
        <ele>2189.54</ele>
        <time>2018-02-07T16:03:47Z</time>
      </trkpt>
      <trkpt lat="45.63766" lon="6.66241">
        <ele>2188.1</ele>
        <time>2018-02-07T16:03:48Z</time>
      </trkpt>
      <trkpt lat="45.63761" lon="6.66241">
        <ele>2185.69</ele>
        <time>2018-02-07T16:03:49Z</time>
      </trkpt>
      <trkpt lat="45.6376" lon="6.66245">
        <ele>2184.73</ele>
        <time>2018-02-07T16:03:56Z</time>
      </trkpt>
      <trkpt lat="45.63759" lon="6.66244">
        <ele>2184.73</ele>
        <time>2018-02-07T16:04:09Z</time>
      </trkpt>
      <trkpt lat="45.63758" lon="6.66247">
        <ele>2184.73</ele>
        <time>2018-02-07T16:04:23Z</time>
      </trkpt>
      <trkpt lat="45.63755" lon="6.66247">
        <ele>2184.73</ele>
        <time>2018-02-07T16:04:26Z</time>
      </trkpt>
      <trkpt lat="45.63753" lon="6.66246">
        <ele>2184.25</ele>
        <time>2018-02-07T16:04:28Z</time>
      </trkpt>
      <trkpt lat="45.63752" lon="6.66241">
        <ele>2182.81</ele>
        <time>2018-02-07T16:04:31Z</time>
      </trkpt>
      <trkpt lat="45.63751" lon="6.6624">
        <ele>2182.81</ele>
        <time>2018-02-07T16:04:54Z</time>
      </trkpt>
      <trkpt lat="45.6375" lon="6.66241">
        <ele>2182.33</ele>
        <time>2018-02-07T16:05:07Z</time>
      </trkpt>
      <trkpt lat="45.63745" lon="6.6624">
        <ele>2181.85</ele>
        <time>2018-02-07T16:05:10Z</time>
      </trkpt>
      <trkpt lat="45.63742" lon="6.66236">
        <ele>2180.41</ele>
        <time>2018-02-07T16:05:11Z</time>
      </trkpt>
      <trkpt lat="45.63735" lon="6.66229">
        <ele>2178</ele>
        <time>2018-02-07T16:05:13Z</time>
      </trkpt>
      <trkpt lat="45.63728" lon="6.66222">
        <ele>2176.56</ele>
        <time>2018-02-07T16:05:15Z</time>
      </trkpt>
      <trkpt lat="45.63724" lon="6.66219">
        <ele>2176.08</ele>
        <time>2018-02-07T16:05:16Z</time>
      </trkpt>
      <trkpt lat="45.63722" lon="6.66216">
        <ele>2175.6</ele>
        <time>2018-02-07T16:05:17Z</time>
      </trkpt>
      <trkpt lat="45.63719" lon="6.66213">
        <ele>2174.16</ele>
        <time>2018-02-07T16:05:18Z</time>
      </trkpt>
      <trkpt lat="45.63715" lon="6.66211">
        <ele>2174.16</ele>
        <time>2018-02-07T16:05:19Z</time>
      </trkpt>
      <trkpt lat="45.63713" lon="6.66208">
        <ele>2174.16</ele>
        <time>2018-02-07T16:05:20Z</time>
      </trkpt>
      <trkpt lat="45.63711" lon="6.66206">
        <ele>2172.24</ele>
        <time>2018-02-07T16:05:21Z</time>
      </trkpt>
      <trkpt lat="45.6371" lon="6.66205">
        <ele>2171.76</ele>
        <time>2018-02-07T16:05:22Z</time>
      </trkpt>
      <trkpt lat="45.63707" lon="6.66204">
        <ele>2171.76</ele>
        <time>2018-02-07T16:05:23Z</time>
      </trkpt>
      <trkpt lat="45.63705" lon="6.66204">
        <ele>2171.76</ele>
        <time>2018-02-07T16:05:24Z</time>
      </trkpt>
      <trkpt lat="45.63696" lon="6.66207">
        <ele>2169.83</ele>
        <time>2018-02-07T16:05:33Z</time>
      </trkpt>
      <trkpt lat="45.63682" lon="6.66192">
        <ele>2166.95</ele>
        <time>2018-02-07T16:05:41Z</time>
      </trkpt>
      <trkpt lat="45.63679" lon="6.66189">
        <ele>2165.99</ele>
        <time>2018-02-07T16:05:42Z</time>
      </trkpt>
      <trkpt lat="45.63676" lon="6.66186">
        <ele>2164.55</ele>
        <time>2018-02-07T16:05:43Z</time>
      </trkpt>
      <trkpt lat="45.63674" lon="6.66186">
        <ele>2165.99</ele>
        <time>2018-02-07T16:05:44Z</time>
      </trkpt>
      <trkpt lat="45.63671" lon="6.66185">
        <ele>2165.03</ele>
        <time>2018-02-07T16:05:45Z</time>
      </trkpt>
      <trkpt lat="45.63669" lon="6.66183">
        <ele>2164.55</ele>
        <time>2018-02-07T16:05:46Z</time>
      </trkpt>
      <trkpt lat="45.63667" lon="6.66181">
        <ele>2163.58</ele>
        <time>2018-02-07T16:05:47Z</time>
      </trkpt>
      <trkpt lat="45.63663" lon="6.66176">
        <ele>2162.14</ele>
        <time>2018-02-07T16:05:49Z</time>
      </trkpt>
      <trkpt lat="45.6366" lon="6.66165">
        <ele>2160.22</ele>
        <time>2018-02-07T16:05:52Z</time>
      </trkpt>
      <trkpt lat="45.63656" lon="6.66151">
        <ele>2158.78</ele>
        <time>2018-02-07T16:06:04Z</time>
      </trkpt>
      <trkpt lat="45.63645" lon="6.66161">
        <ele>2155.89</ele>
        <time>2018-02-07T16:06:11Z</time>
      </trkpt>
      <trkpt lat="45.63639" lon="6.66168">
        <ele>2154.93</ele>
        <time>2018-02-07T16:06:25Z</time>
      </trkpt>
      <trkpt lat="45.63639" lon="6.66169">
        <ele>2154.93</ele>
        <time>2018-02-07T16:06:26Z</time>
      </trkpt>
      <trkpt lat="45.63628" lon="6.66176">
        <ele>2153.49</ele>
        <time>2018-02-07T16:06:32Z</time>
      </trkpt>
      <trkpt lat="45.63617" lon="6.66184">
        <ele>2152.53</ele>
        <time>2018-02-07T16:06:45Z</time>
      </trkpt>
      <trkpt lat="45.63599" lon="6.66195">
        <ele>2150.61</ele>
        <time>2018-02-07T16:06:58Z</time>
      </trkpt>
      <trkpt lat="45.6359" lon="6.66195">
        <ele>2150.61</ele>
        <time>2018-02-07T16:07:10Z</time>
      </trkpt>
      <trkpt lat="45.63587" lon="6.66194">
        <ele>2151.09</ele>
        <time>2018-02-07T16:07:14Z</time>
      </trkpt>
      <trkpt lat="45.63561" lon="6.66198">
        <ele>2148.68</ele>
        <time>2018-02-07T16:07:28Z</time>
      </trkpt>
      <trkpt lat="45.63537" lon="6.66208">
        <ele>2146.28</ele>
        <time>2018-02-07T16:07:37Z</time>
      </trkpt>
      <trkpt lat="45.63533" lon="6.66212">
        <ele>2145.8</ele>
        <time>2018-02-07T16:07:38Z</time>
      </trkpt>
      <trkpt lat="45.63526" lon="6.66227">
        <ele>2142.92</ele>
        <time>2018-02-07T16:07:42Z</time>
      </trkpt>
      <trkpt lat="45.63517" lon="6.6624">
        <ele>2140.03</ele>
        <time>2018-02-07T16:07:47Z</time>
      </trkpt>
      <trkpt lat="45.63515" lon="6.6624">
        <ele>2140.03</ele>
        <time>2018-02-07T16:07:48Z</time>
      </trkpt>
      <trkpt lat="45.63511" lon="6.6623">
        <ele>2136.67</ele>
        <time>2018-02-07T16:07:52Z</time>
      </trkpt>
      <trkpt lat="45.6351" lon="6.66232">
        <ele>2135.23</ele>
        <time>2018-02-07T16:07:53Z</time>
      </trkpt>
      <trkpt lat="45.63509" lon="6.66234">
        <ele>2134.74</ele>
        <time>2018-02-07T16:07:54Z</time>
      </trkpt>
      <trkpt lat="45.63508" lon="6.66235">
        <ele>2134.26</ele>
        <time>2018-02-07T16:07:55Z</time>
      </trkpt>
      <trkpt lat="45.63506" lon="6.66238">
        <ele>2134.26</ele>
        <time>2018-02-07T16:07:56Z</time>
      </trkpt>
      <trkpt lat="45.63504" lon="6.66243">
        <ele>2132.82</ele>
        <time>2018-02-07T16:07:59Z</time>
      </trkpt>
      <trkpt lat="45.63496" lon="6.66253">
        <ele>2130.9</ele>
        <time>2018-02-07T16:08:04Z</time>
      </trkpt>
      <trkpt lat="45.63485" lon="6.66262">
        <ele>2128.02</ele>
        <time>2018-02-07T16:08:07Z</time>
      </trkpt>
      <trkpt lat="45.63467" lon="6.66275">
        <ele>2124.65</ele>
        <time>2018-02-07T16:08:13Z</time>
      </trkpt>
      <trkpt lat="45.63448" lon="6.66287">
        <ele>2120.81</ele>
        <time>2018-02-07T16:08:21Z</time>
      </trkpt>
      <trkpt lat="45.63445" lon="6.6629">
        <ele>2120.32</ele>
        <time>2018-02-07T16:08:30Z</time>
      </trkpt>
      <trkpt lat="45.63433" lon="6.66274">
        <ele>2116.96</ele>
        <time>2018-02-07T16:08:35Z</time>
      </trkpt>
      <trkpt lat="45.63422" lon="6.66257">
        <ele>2114.56</ele>
        <time>2018-02-07T16:08:38Z</time>
      </trkpt>
      <trkpt lat="45.63415" lon="6.66243">
        <ele>2113.6</ele>
        <time>2018-02-07T16:08:41Z</time>
      </trkpt>
      <trkpt lat="45.63409" lon="6.66244">
        <ele>2110.71</ele>
        <time>2018-02-07T16:08:45Z</time>
      </trkpt>
      <trkpt lat="45.63413" lon="6.66245">
        <ele>2111.19</ele>
        <time>2018-02-07T16:08:59Z</time>
      </trkpt>
      <trkpt lat="45.63411" lon="6.66247">
        <ele>2111.19</ele>
        <time>2018-02-07T16:09:18Z</time>
      </trkpt>
      <trkpt lat="45.63395" lon="6.66256">
        <ele>2106.39</ele>
        <time>2018-02-07T16:09:23Z</time>
      </trkpt>
      <trkpt lat="45.63395" lon="6.66257">
        <ele>2105.91</ele>
        <time>2018-02-07T16:09:24Z</time>
      </trkpt>
      <trkpt lat="45.63394" lon="6.66258">
        <ele>2106.39</ele>
        <time>2018-02-07T16:09:25Z</time>
      </trkpt>
      <trkpt lat="45.63389" lon="6.66264">
        <ele>2104.94</ele>
        <time>2018-02-07T16:09:28Z</time>
      </trkpt>
      <trkpt lat="45.63385" lon="6.66272">
        <ele>2102.54</ele>
        <time>2018-02-07T16:09:30Z</time>
      </trkpt>
      <trkpt lat="45.63377" lon="6.66295">
        <ele>2100.14</ele>
        <time>2018-02-07T16:09:36Z</time>
      </trkpt>
      <trkpt lat="45.63376" lon="6.66305">
        <ele>2098.7</ele>
        <time>2018-02-07T16:09:40Z</time>
      </trkpt>
      <trkpt lat="45.63366" lon="6.66325">
        <ele>2095.81</ele>
        <time>2018-02-07T16:09:49Z</time>
      </trkpt>
      <trkpt lat="45.63363" lon="6.66333">
        <ele>2095.33</ele>
        <time>2018-02-07T16:09:52Z</time>
      </trkpt>
      <trkpt lat="45.63361" lon="6.66339">
        <ele>2094.37</ele>
        <time>2018-02-07T16:09:56Z</time>
      </trkpt>
      <trkpt lat="45.63356" lon="6.66355">
        <ele>2092.45</ele>
        <time>2018-02-07T16:10:04Z</time>
      </trkpt>
      <trkpt lat="45.63355" lon="6.66365">
        <ele>2091.49</ele>
        <time>2018-02-07T16:10:08Z</time>
      </trkpt>
      <trkpt lat="45.63355" lon="6.66368">
        <ele>2091</ele>
        <time>2018-02-07T16:10:09Z</time>
      </trkpt>
      <trkpt lat="45.63354" lon="6.6637">
        <ele>2090.52</ele>
        <time>2018-02-07T16:10:10Z</time>
      </trkpt>
      <trkpt lat="45.63354" lon="6.66373">
        <ele>2090.52</ele>
        <time>2018-02-07T16:10:11Z</time>
      </trkpt>
      <trkpt lat="45.63349" lon="6.66402">
        <ele>2087.16</ele>
        <time>2018-02-07T16:10:18Z</time>
      </trkpt>
      <trkpt lat="45.63346" lon="6.66429">
        <ele>2084.28</ele>
        <time>2018-02-07T16:10:26Z</time>
      </trkpt>
      <trkpt lat="45.63346" lon="6.66436">
        <ele>2083.31</ele>
        <time>2018-02-07T16:10:28Z</time>
      </trkpt>
      <trkpt lat="45.63344" lon="6.66436">
        <ele>2083.79</ele>
        <time>2018-02-07T16:10:35Z</time>
      </trkpt>
      <trkpt lat="45.63343" lon="6.66436">
        <ele>2083.31</ele>
        <time>2018-02-07T16:10:41Z</time>
      </trkpt>
      <trkpt lat="45.63339" lon="6.66423">
        <ele>2081.39</ele>
        <time>2018-02-07T16:10:51Z</time>
      </trkpt>
      <trkpt lat="45.63325" lon="6.66403">
        <ele>2079.47</ele>
        <time>2018-02-07T16:10:58Z</time>
      </trkpt>
      <trkpt lat="45.63303" lon="6.66395">
        <ele>2077.55</ele>
        <time>2018-02-07T16:11:05Z</time>
      </trkpt>
      <trkpt lat="45.63291" lon="6.66399">
        <ele>2073.7</ele>
        <time>2018-02-07T16:11:09Z</time>
      </trkpt>
      <trkpt lat="45.63292" lon="6.66403">
        <ele>2072.74</ele>
        <time>2018-02-07T16:11:13Z</time>
      </trkpt>
      <trkpt lat="45.63275" lon="6.6641">
        <ele>2069.86</ele>
        <time>2018-02-07T16:11:21Z</time>
      </trkpt>
      <trkpt lat="45.63276" lon="6.66416">
        <ele>2068.41</ele>
        <time>2018-02-07T16:11:24Z</time>
      </trkpt>
      <trkpt lat="45.63284" lon="6.66436">
        <ele>2066.49</ele>
        <time>2018-02-07T16:11:35Z</time>
      </trkpt>
      <trkpt lat="45.63294" lon="6.6646">
        <ele>2064.09</ele>
        <time>2018-02-07T16:11:41Z</time>
      </trkpt>
      <trkpt lat="45.63297" lon="6.66471">
        <ele>2063.13</ele>
        <time>2018-02-07T16:11:43Z</time>
      </trkpt>
      <trkpt lat="45.63299" lon="6.66485">
        <ele>2060.72</ele>
        <time>2018-02-07T16:11:45Z</time>
      </trkpt>
      <trkpt lat="45.633" lon="6.6649">
        <ele>2060.72</ele>
        <time>2018-02-07T16:11:46Z</time>
      </trkpt>
      <trkpt lat="45.63303" lon="6.66502">
        <ele>2060.72</ele>
        <time>2018-02-07T16:11:52Z</time>
      </trkpt>
      <trkpt lat="45.63297" lon="6.66502">
        <ele>2059.28</ele>
        <time>2018-02-07T16:11:56Z</time>
      </trkpt>
      <trkpt lat="45.63293" lon="6.66496">
        <ele>2058.32</ele>
        <time>2018-02-07T16:11:59Z</time>
      </trkpt>
      <trkpt lat="45.6329" lon="6.66496">
        <ele>2058.8</ele>
        <time>2018-02-07T16:12:01Z</time>
      </trkpt>
      <trkpt lat="45.63289" lon="6.66498">
        <ele>2057.84</ele>
        <time>2018-02-07T16:12:02Z</time>
      </trkpt>
      <trkpt lat="45.63291" lon="6.6652">
        <ele>2054.96</ele>
        <time>2018-02-07T16:12:09Z</time>
      </trkpt>
      <trkpt lat="45.63291" lon="6.66527">
        <ele>2053.03</ele>
        <time>2018-02-07T16:12:10Z</time>
      </trkpt>
      <trkpt lat="45.63288" lon="6.66553">
        <ele>2049.67</ele>
        <time>2018-02-07T16:12:14Z</time>
      </trkpt>
      <trkpt lat="45.63288" lon="6.66554">
        <ele>2050.15</ele>
        <time>2018-02-07T16:12:16Z</time>
      </trkpt>
      <trkpt lat="45.63284" lon="6.66569">
        <ele>2047.26</ele>
        <time>2018-02-07T16:12:22Z</time>
      </trkpt>
      <trkpt lat="45.63278" lon="6.666">
        <ele>2043.9</ele>
        <time>2018-02-07T16:12:32Z</time>
      </trkpt>
      <trkpt lat="45.63277" lon="6.6662">
        <ele>2041.98</ele>
        <time>2018-02-07T16:12:37Z</time>
      </trkpt>
      <trkpt lat="45.63277" lon="6.66625">
        <ele>2041.98</ele>
        <time>2018-02-07T16:12:50Z</time>
      </trkpt>
      <trkpt lat="45.63277" lon="6.66626">
        <ele>2041.98</ele>
        <time>2018-02-07T16:13:08Z</time>
      </trkpt>
      <trkpt lat="45.63269" lon="6.66629">
        <ele>2040.54</ele>
        <time>2018-02-07T16:13:15Z</time>
      </trkpt>
      <trkpt lat="45.63268" lon="6.66634">
        <ele>2039.57</ele>
        <time>2018-02-07T16:13:17Z</time>
      </trkpt>
      <trkpt lat="45.63265" lon="6.66635">
        <ele>2039.09</ele>
        <time>2018-02-07T16:13:19Z</time>
      </trkpt>
      <trkpt lat="45.63263" lon="6.66634">
        <ele>2038.61</ele>
        <time>2018-02-07T16:13:22Z</time>
      </trkpt>
      <trkpt lat="45.63261" lon="6.66642">
        <ele>2036.21</ele>
        <time>2018-02-07T16:13:32Z</time>
      </trkpt>
      <trkpt lat="45.63261" lon="6.66646">
        <ele>2035.73</ele>
        <time>2018-02-07T16:13:33Z</time>
      </trkpt>
      <trkpt lat="45.63268" lon="6.66655">
        <ele>2032.36</ele>
        <time>2018-02-07T16:13:37Z</time>
      </trkpt>
      <trkpt lat="45.63267" lon="6.66657">
        <ele>2032.36</ele>
        <time>2018-02-07T16:13:41Z</time>
      </trkpt>
      <trkpt lat="45.63256" lon="6.66664">
        <ele>2031.4</ele>
        <time>2018-02-07T16:13:46Z</time>
      </trkpt>
      <trkpt lat="45.63247" lon="6.66667">
        <ele>2029.48</ele>
        <time>2018-02-07T16:13:50Z</time>
      </trkpt>
      <trkpt lat="45.63243" lon="6.66686">
        <ele>2026.6</ele>
        <time>2018-02-07T16:13:55Z</time>
      </trkpt>
      <trkpt lat="45.63243" lon="6.66691">
        <ele>2026.6</ele>
        <time>2018-02-07T16:13:56Z</time>
      </trkpt>
      <trkpt lat="45.63242" lon="6.66696">
        <ele>2026.12</ele>
        <time>2018-02-07T16:13:57Z</time>
      </trkpt>
      <trkpt lat="45.6324" lon="6.66705">
        <ele>2025.15</ele>
        <time>2018-02-07T16:13:59Z</time>
      </trkpt>
      <trkpt lat="45.63232" lon="6.66739">
        <ele>2022.27</ele>
        <time>2018-02-07T16:14:05Z</time>
      </trkpt>
      <trkpt lat="45.63228" lon="6.66756">
        <ele>2020.35</ele>
        <time>2018-02-07T16:14:08Z</time>
      </trkpt>
      <trkpt lat="45.63225" lon="6.66767">
        <ele>2019.39</ele>
        <time>2018-02-07T16:14:10Z</time>
      </trkpt>
      <trkpt lat="45.63223" lon="6.66772">
        <ele>2018.91</ele>
        <time>2018-02-07T16:14:11Z</time>
      </trkpt>
      <trkpt lat="45.63222" lon="6.66777">
        <ele>2018.43</ele>
        <time>2018-02-07T16:14:12Z</time>
      </trkpt>
      <trkpt lat="45.63219" lon="6.66804">
        <ele>2015.54</ele>
        <time>2018-02-07T16:14:17Z</time>
      </trkpt>
      <trkpt lat="45.63214" lon="6.66833">
        <ele>2013.14</ele>
        <time>2018-02-07T16:14:22Z</time>
      </trkpt>
      <trkpt lat="45.63213" lon="6.66838">
        <ele>2012.66</ele>
        <time>2018-02-07T16:14:23Z</time>
      </trkpt>
      <trkpt lat="45.6321" lon="6.66863">
        <ele>2010.25</ele>
        <time>2018-02-07T16:14:27Z</time>
      </trkpt>
      <trkpt lat="45.63209" lon="6.6687">
        <ele>2009.77</ele>
        <time>2018-02-07T16:14:28Z</time>
      </trkpt>
      <trkpt lat="45.63208" lon="6.66878">
        <ele>2008.33</ele>
        <time>2018-02-07T16:14:29Z</time>
      </trkpt>
      <trkpt lat="45.63207" lon="6.66886">
        <ele>2008.33</ele>
        <time>2018-02-07T16:14:30Z</time>
      </trkpt>
      <trkpt lat="45.63206" lon="6.66894">
        <ele>2007.37</ele>
        <time>2018-02-07T16:14:31Z</time>
      </trkpt>
      <trkpt lat="45.63204" lon="6.669">
        <ele>2006.89</ele>
        <time>2018-02-07T16:14:32Z</time>
      </trkpt>
      <trkpt lat="45.63204" lon="6.66906">
        <ele>2006.41</ele>
        <time>2018-02-07T16:14:33Z</time>
      </trkpt>
      <trkpt lat="45.63205" lon="6.66911">
        <ele>2005.93</ele>
        <time>2018-02-07T16:14:34Z</time>
      </trkpt>
      <trkpt lat="45.63208" lon="6.66913">
        <ele>2005.93</ele>
        <time>2018-02-07T16:14:41Z</time>
      </trkpt>
      <trkpt lat="45.63207" lon="6.66916">
        <ele>2005.45</ele>
        <time>2018-02-07T16:14:43Z</time>
      </trkpt>
      <trkpt lat="45.63207" lon="6.66919">
        <ele>2005.45</ele>
        <time>2018-02-07T16:14:44Z</time>
      </trkpt>
      <trkpt lat="45.63208" lon="6.66921">
        <ele>2004.97</ele>
        <time>2018-02-07T16:14:45Z</time>
      </trkpt>
      <trkpt lat="45.6321" lon="6.66922">
        <ele>2003.52</ele>
        <time>2018-02-07T16:14:55Z</time>
      </trkpt>
      <trkpt lat="45.6321" lon="6.66921">
        <ele>2003.04</ele>
        <time>2018-02-07T16:15:15Z</time>
      </trkpt>
      <trkpt lat="45.6321" lon="6.66921">
        <ele>2003.04</ele>
        <time>2018-02-07T16:15:31Z</time>
      </trkpt>
      <trkpt lat="45.63211" lon="6.66921">
        <ele>2003.04</ele>
        <time>2018-02-07T16:15:50Z</time>
      </trkpt>
      <trkpt lat="45.63213" lon="6.66918">
        <ele>2003.04</ele>
        <time>2018-02-07T16:16:10Z</time>
      </trkpt>
      <trkpt lat="45.63214" lon="6.66913">
        <ele>2003.52</ele>
        <time>2018-02-07T16:16:23Z</time>
      </trkpt>
      <trkpt lat="45.63215" lon="6.66919">
        <ele>2002.56</ele>
        <time>2018-02-07T16:16:44Z</time>
      </trkpt>
      <trkpt lat="45.63218" lon="6.66921">
        <ele>2003.04</ele>
        <time>2018-02-07T16:17:12Z</time>
      </trkpt>
      <trkpt lat="45.63217" lon="6.66914">
        <ele>2003.04</ele>
        <time>2018-02-07T16:17:28Z</time>
      </trkpt>
    </trkseg>
  </trk>
</gpx>